     2              OBSERVATION DATA    GPS                 RINEX VERSION / TYPE
teqc 1997Jul24 19970814                                     PGM / RUN BY / DATE
                                                            COMMENT
Original Marker Name: 0805                                  COMMENT
Campaign Name: HPGN 1991                                    COMMENT
4-Character Station Name: 0805                              COMMENT
6-Character Antenna Code: TRMSST                            COMMENT
Vertical Measurement Point: BPA                             COMMENT
Vertical Offset to Rinex Ref. Point: 0.0000                 COMMENT
Radial Measurement Point: RRP                               COMMENT
Radial Offset to Rinex Ref. Point: 0.0000                   COMMENT
Antenna Height from Field Measurement: 2.2200 m             COMMENT
Original XYZ: 0.0000 0.0000 0.0000                          COMMENT
New XYZ position is based on association with SCEC monument COMMENT
E1F2O3G2+0011. Position of that monument is believed to be  COMMENT
valid to within 1 m horizontally; vertical accuracy         COMMENT
should be no worse than 3-times this value.                 COMMENT
                                                            COMMENT
Revised Rinex header created by UCSD GPS archive for        COMMENT
GSAC on 19-Apr-1999 (1999:109) 04:42:21 GMT                 COMMENT
For assistance contact dagnew@ucsd.edu or hjohnson@ucsd.edu COMMENT
                                                            COMMENT
HPGN 08-5 GPS KRAMER 1990                                   MARKER NAME
unknown NATIONAL GEODETIC SURVEY                            OBSERVER / AGENCY
484 TRIMBLE 4000 SST NP 4.30 / SP 4.20                      REC # / TYPE / VERS
18 TR 4000SST L1/L2 GEO                                     ANT # / TYPE
 -2417567.0000 -4638336.0000  3638932.0000                  APPROX POSITION XYZ
        2.2200        0.0000        0.0000                  ANTENNA: DELTA H/E/N
     1     1     0                                          WAVELENGTH FACT L1/2
     3    C1    L1    L2                                    # / TYPES OF OBSERV
     0                                                      INTERVAL
  1991     5     3    21    46   30.000000                  TIME OF FIRST OBS
  1991     5     4     1    10   15.000000                  TIME OF LAST OBS
     0                                                      # OF SATELLITES
                                                            END OF HEADER
 91  5  3 21 46 30.0000000  0  3G 2G 6G19
  20728491.7034     -87405.11248
  21515496.7114         -0.48657
  22272430.9924         -0.63756
 91  5  3 21 46 45.0000000  0  3G 2G 6G19
  20725248.9064    -104447.91248
  21508057.5314     -39089.32347
  22276118.8204      19394.74046
 91  5  3 21 47  0.0000000  0  3G 2G 6G19
  20722018.6884    -121419.54648        -0.35474
  21500627.781      -78135.594 7        -0.00633
  22279824.281       38866.116 6        -0.49632
 91  5  3 21 47 15.0000000  0  3G 2G 6G19
  20718804.2194    -138314.02548    -13164.87664
  21493206.9614    -117132.97147    -30387.54363
  22283545.992       58419.594 6     15235.89921
 91  5  3 21 47 30.0000000  0  3G 2G 6G19
  20715600.9454    -155142.98648    -26278.33964
  21485792.352     -156092.741 7    -60745.78223
  22287283.047       78043.746 6     30527.36621
 91  5  3 21 47 45.0000000  0  3G 2G 6G19
  20712411.9774    -171902.47448    -39337.67864
  21478387.711     -195010.803 7    -91071.51923
  22291027.805       97742.375 6     45876.87122
 91  5  3 21 47 59.9990000  0  3G 2G 6G19
  20709236.6054    -188588.69648    -52339.92364
  21470989.253     -233881.618 7   -121360.43823
  22294790.628      117516.869 6     61285.48422
 91  5  3 21 48 14.9990000  0  3G 2G 6G19
  20706075.6514    -205202.03048    -65285.37164
  21463602.214     -272708.118 7   -151614.82723
  22298569.964      137371.876 6     76756.83322
 91  5  3 21 48 29.9990000  0  3G 2G 6G19
  20702925.7144    -221751.87848    -78181.35264
  21456220.6904    -311498.14047   -181840.78963
  22302364.612      157295.458 6     92281.62322
 91  5  3 21 48 44.9990000  0  3G 2G 6G19
  20699790.7144    -238226.47048    -91018.69064
  21448848.6984    -350239.52947   -212028.85463
  22306168.206      177299.551 6    107869.14122
 91  5  3 21 48 59.9990000  0  3G 2G 6G19
  20696667.9174    -254637.77348   -103806.71464
  21441483.5584    -388943.99947   -242188.15363
  22309990.245      197372.310 6    123510.17221
 91  5  3 21 49 14.9990000  0  3G 2G 6G19
  20693557.7844    -270979.91948   -116540.85164
  21434125.3314    -427605.46947   -272313.93963
  22313821.8154     217519.61046    139209.28261
 91  5  3 21 49 29.9990000  0  3G 2G 6G19
  20690460.0034    -287260.36848   -129226.90964
  21426775.9254    -466231.10547   -302411.80363
  22317669.987      237734.056 6    154960.71422
 91  5  3 21 49 44.9990000  0  4G 2G15G 6G19
  20687374.3624    -303475.64748   -141862.18964
  24157365.8784         -0.04455
  21419432.5194    -504817.14347   -332478.81363
  22321529.675      258019.297 6    170767.31522
 91  5  3 21 49 59.9990000  0  4G 2G15G 6G19
  20684302.3004    -319619.24748   -154441.61364
  24150063.7374     -38367.95845
  21412098.9724    -543356.95647   -362509.80263
  22325406.644      278381.525 6    186633.90022
 91  5  3 21 50 14.9990000  0  4G 2G15G 6G19
  20681245.0654    -335687.63748   -166962.43464
  24142784.542      -76636.375 5
  21404774.6054    -581846.72047   -392501.78963
  22329293.511      298824.505 6    202563.41621
 91  5  3 21 50 29.9990000  0  4G 2G15G 6G19
  20678198.2304    -351696.68348   -179437.00964
  24135517.831     -114820.570 5        -0.30331
  21397456.2614    -620301.87347   -422466.80863
  22333196.034      319332.432 6    218543.53222
 91  5  3 21 50 44.9990000  0  4G 2G15G 6G19
  20675163.3624    -367644.73648   -191864.05964
  24128266.0974    -152918.45945    -29686.88261
  21390145.7374    -658720.61747   -452403.45863
  22337112.1054     339907.12746    234575.67862
 91  5  3 21 50 59.9990000  0  4G 2G15G 6G19
  20672139.9094    -383534.08048   -204245.36364
  24121032.847     -190931.870 5    -59307.62721
  21382841.3704    -697104.82747   -482313.19063
  22341038.5264     360546.36546    250658.11362
 91  5  3 21 51 14.9990000  0  4G 2G15G 6G19
  20669127.7374    -399362.35048   -216579.07664
  24113816.4874    -228858.03545    -88860.40261
  21375544.5974    -735451.85747   -512193.95563
  22344979.9644     381252.61646    266792.76262
 91  5  3 21 51 29.9990000  0  4G 2G15G 6G19
  20666128.9334    -415123.52748   -228860.50964
  24106617.9334    -266690.68645   -118340.30561
  21368254.9804    -773755.57047   -542040.96363
  22348938.214      402031.823 6    282984.26522
 91  5  3 21 51 44.9990000  0  4G 2G15G 6G19
  20663144.1364    -430808.06448   -241082.22464
  24099435.4334    -304419.74345   -147739.48161
  21360975.6444    -812006.23247   -571846.63563
  22352903.6284     422893.41946    299239.96761
 91  5  3 21 51 59.9990000  0  4G 2G15G 6G19
  20660172.0264    -446425.45348   -253251.61464
  24092272.589     -342054.146 5   -177064.89921
  21353705.7614    -850212.93847   -601618.05363
  22356887.4094     443828.10246    315552.61461
 91  5  3 21 52 14.9990000  0  4G 2G15G 6G19
  20657215.1594    -461962.45648   -265358.37164
  24085134.659     -379580.519 5   -206306.13921
  21346446.2144    -888362.23747   -631344.73963
  22360887.7144     464849.13446    331932.55161
 91  5  3 21 52 29.9990000  0  4G 2G15G 6G19
  20654270.9874    -477437.89748   -277417.15364
  24078006.980     -417017.233 5   -235477.51221
  21339193.7224    -926472.74447   -661041.19463
  22364901.3944     485937.69946    348365.11261
 91  5  3 21 52 44.9990000  0  4G 2G15G 6G19
  20651337.2844    -492848.52348   -289425.43364
  24070905.6364    -454360.71445   -264576.23961
  21331948.7144    -964540.95147   -690704.69463
  22368928.214      507096.981 6    364852.77921
 91  5  3 21 52 59.9990000  0  4G 2G15G 6G19
  20648416.6594    -508199.10848   -301386.92664
  24063812.0894    -491615.26545   -293605.65261
  21324713.1204   -1002571.35347   -720338.73963
  22372965.8554     528322.17946    381391.81261
 91  5  3 21 53 14.9990000  0  4G 2G15G 6G19
  20645508.0654    -523486.40748   -313299.10464
  24056743.183     -528776.932 5   -322562.68821
  21317483.8154   -1040560.30847   -749940.48463
  22377017.8554     549616.92346    397985.02461
 91  5  3 21 53 29.9990000  0  4G 2G15G 6G19
  20642609.5654    -538717.32148   -325167.34764
  24049685.730     -565852.452 5   -351452.61821
  21310261.4874   -1078514.55247   -779515.18463
  22381084.6674     570974.20546    414626.96661
 91  5  3 21 53 44.9990000  0  5G 2G15G 6G13G19
  20639723.0504    -553885.59748   -336986.77964
  24042651.050     -602835.107 5   -380270.16521
  21303046.2144   -1116427.46747   -809057.68163
  23901111.1594         -0.29654
  22385161.2454     592400.27046    431322.50561
 91  5  3 21 53 59.9990000  0  5G 2G15G 6G13G19
  20636846.6284    -569000.93548   -348764.96264
  24035630.237     -639734.431 5   -409022.78821
  21295837.8004   -1154308.58947   -838575.40763
  23887321.8624     -72453.20944
  22389248.2304     613885.40646    448064.07561
 91  5  3 21 54 14.9990000  0  5G 2G15G 6G13G19
  20633983.5584    -584045.32948   -360487.86164
  24028624.159     -676531.950 5   -437696.08121
  21288639.3154   -1192139.55647   -868054.05363
  23873542.2764    -144866.43244
  22393352.6984     635447.83046    464865.87861
 91  5  3 21 54 29.9990000  0  5G 2G15G 6G13G19
  20631131.3394    -599033.96448   -372167.31064
  24021640.339     -713242.462 5   -466301.57521
  21281446.1444   -1229935.25247   -897505.21763
  23859766.4174    -217254.69144
  22397466.5814     657072.41346    481716.10961
 91  5  3 21 54 44.9990000  0  5G 2G15G 6G13G19
  20628290.4484    -613964.02148   -383801.11364
  24014671.847     -749862.602 5   -494836.64221
  21274261.5264   -1267692.67047   -926926.55163
  23845997.370     -289614.922 4
  22401594.6444     678761.67546    498616.74561
 91  5  3 21 54 59.9990000  0  5G 2G15G 6G13G19
  20625461.2064    -628833.91648   -395388.03864
  24007718.503     -786390.341 5   -523299.71021
  21267083.2844   -1305409.91447   -956316.58263
  23832235.5974    -361945.21644
  22405734.2764     700517.45846    515569.20861
 91  5  3 21 55 14.9990000  0  5G 2G15G 6G13G19
  20622642.4954    -643645.76648   -406929.73164
  24000783.987     -822827.478 5   -551692.16521
  21259914.245    -1343088.927 7   -985676.82323
  23818476.472     -434247.274 4        -0.35531
  22409887.9724     722337.71246    532571.90861
 91  5  3 21 55 29.9990000  0  5G 2G15G 6G13G19
  20619838.0584    -658382.75548   -418413.09264
  23993872.065     -859156.611 5   -580000.47321
  21252755.003    -1380712.537 7  -1014993.89623
  23804726.9804    -506503.79744    -56303.86961
  22414056.7534     744239.34246    549638.02061
 91  5  3 21 55 44.9990000  0  5G 2G15G 6G13G19
  20617047.0194    -673047.09948   -429839.84564
  23986979.933     -895379.743 5   -608226.18821
  21245605.550    -1418282.751 7  -1044269.36323
  23790981.1284    -578716.35444   -112573.16261
  22418237.4954     766220.10346    566765.79161
 91  5  3 21 55 59.9990000  0  5G 2G15G 6G13G19
  20614268.6124    -687647.06048   -441216.43164
  23980105.3004    -931504.61845   -636375.34261
  21238465.034    -1455807.432 7  -1073509.35223
  23777248.6834    -650892.84944   -168814.35561
  22422432.9254     788271.76046    583948.80661
 91  5  3 21 56 14.9990000  0  5G 2G15G 6G13G19
  20611501.9254    -702189.23948   -452547.99164
  23973248.003     -967537.496 5   -664452.79821
  21231330.956    -1493293.026 7  -1102718.88123
  23763518.9564    -723039.42344   -225032.19361
  22426642.2924     810387.71946    601181.92761
 91  5  3 21 56 29.9990000  0  5G 2G15G 6G13G19
  20608747.6904    -716664.94748   -463827.75464
  23966411.190    -1003469.258 5   -692451.46521
  21224206.292    -1530730.488 7  -1131890.90723
  23749798.565     -795146.942 4   -281219.68621
  22430864.8704     832576.80346    618472.02961
 91  5  3 21 56 44.9990000  0  5G 2G15G 6G13G19
  20606003.0344    -731082.67448   -475062.33764
  23959591.0504   -1039307.90045   -720377.58761
  21217090.409    -1568128.029 7  -1161031.82723
  23736079.519     -867223.468 4   -337382.94621
  22435101.4644     854830.54746    635812.51461
 91  5  3 21 56 59.9990000  0  5G 2G15G 6G13G19
  20603273.7454    -745429.23548   -486241.46664
  23952791.487    -1075039.986 5   -748220.67121
  21209983.815    -1605472.208 7  -1190131.16623
  23722373.0034    -939255.56044   -393511.62361
  22439349.3234     877162.21346    653213.72361
 91  5  3 21 57 14.9990000  0  5G 2G15G 6G13G19
  20600556.1444    -759712.59548   -497371.34964
  23946008.4564   -1110673.20145   -775986.70761
  21202886.565    -1642770.644 7  -1219194.86023
  23708675.7144   -1011250.53045   -449611.36261
  22443611.636      899563.685 6    670669.31321
 91  5  3 21 57 29.9990000  0  5G 2G15G 6G13G19
  20597850.3704    -773925.96148   -508446.68964
  23939246.526    -1146200.394 5   -803670.14421
  21195799.253    -1680016.364 7  -1248217.48223
  23694981.8944   -1083201.17344   -505676.58661
  22447889.1284     922041.83746    688184.65761
 91  5  3 21 57 44.9990000  0  5G 2G15G 6G13G19
  20595157.8554    -788076.20048   -519472.84264
  23932506.9334   -1181627.73345   -831275.76061
  21188720.323    -1717215.916 7  -1277204.12623
  23681296.940    -1155114.107 4   -561712.40921
  22452181.5344     944589.85446    705754.44161
 91  5  3 21 57 59.9990000  0  5G 2G15G 6G13G19
  20592476.3314    -802167.73648   -530453.24964
  23925783.1054   -1216959.51745   -858806.92961
  21181649.917    -1754373.461 7  -1306158.03523
  23667619.761    -1226992.970 5   -617721.67421
  22456484.7374     967203.26046    723375.18361
 91  5  3 21 58 14.9990000  0  5G 2G15G 6G13G19
  20589808.4644    -816187.96248   -541378.09264
  23919082.714    -1252182.631 5   -886253.42321
  21174588.370    -1791476.159 7  -1335069.20723
  23653948.7924   -1298824.73745   -673694.22761
  22460803.3784     989894.81146    741056.80761
 91  5  3 21 58 29.9990000  0  5G 2G15G 6G13G19
  20587151.3474    -830152.62148   -552259.64364
  23912398.253    -1287312.467 5   -913627.21021
  21167535.808    -1828539.435 7  -1363949.65923
  23640286.2454   -1370624.74844   -729642.06961
  22465132.3004    1012648.73446    758787.04761
 91  5  3 21 58 44.9990000  0  5G 2G15G 6G13G19
  20584504.2534    -844059.53748   -563096.19164
  23905729.5344   -1322346.39445   -940926.30361
  21160491.417    -1865560.936 7  -1392797.56623
  23626629.1444   -1442390.41545   -785563.14361
  22469476.1834    1035467.20346    776567.57561
 91  5  3 21 58 59.9990000  0  5G 2G15G 6G13G19
  20581869.9724    -857905.37648   -573885.15464
  23899081.9804   -1357280.63245   -968147.69161
  21153454.526    -1902536.903 7  -1421609.98323
  23612979.6834   -1514117.90045   -841454.45161
  22473831.230     1058353.731 6    794401.13021
 91  5  3 21 59 14.9990000  0  5G 2G15G 6G13G19
  20579251.5894    -871665.33248   -584607.18764
  23892459.3084   -1392090.07445   -995271.83361
  21146431.698    -1939442.128 7  -1450367.27723
  23599341.737    -1585781.730 5   -897296.18921
  22478203.167     1081333.227 6    812307.13421
 91  5  3 21 59 29.9990000  0  5G 2G15G 6G13G19
  20576643.2144    -885372.52648   -595288.10964
  23885848.3004   -1426807.52245  -1022324.30561
  21139415.659    -1976309.771 7  -1479095.28723
  23585709.1834   -1657414.93745   -953114.06661
  22482585.925     1104372.171 6    830259.45121
 91  5  3 21 59 44.9990000  0  5G 2G15G 6G13G19
  20574046.9254    -899019.41448   -605922.04564
  23879264.144    -1461424.751 5  -1049298.66921
  21132408.409    -2013131.797 7  -1507787.75423
  23572085.9874   -1729009.41345  -1008901.71961
  22486984.823     1127478.359 6    848264.17021
 91  5  3 21 59 59.9990000  0  5G 2G15G 6G13G19
  20571460.4484    -912607.68848   -616510.30264
  23872692.5734   -1495943.27945  -1076196.13361
  21125410.394    -2049909.632 7  -1536445.78223
  23558469.3864   -1800566.55445  -1064660.30161
  22491397.2144    1150650.15945    866320.01361
 91  5  3 22  0 14.9990000  0  5G 2G15G 6G13G19
  20568885.5194    -926141.84048   -627056.38164
  23866146.0654   -1530367.25445  -1103019.91161
  21118419.362    -2086647.451 7  -1565072.63023
  23544858.9564   -1872090.04145  -1120392.68061
  22495815.245     1173883.191 6    884423.56821
 91  5  3 22  0 29.9990000  0  5G 2G15G 6G13G19
  20566321.9014    -939611.71748   -637552.38764
  23859612.3004   -1564686.34245  -1129761.96161
  21111439.097    -2123335.100 7  -1593660.38323
  23531258.0814   -1943569.62145  -1176090.84561
  22500248.8704    1197187.27546    902582.49061
 91  5  3 22  0 44.9990000  0  5G 2G15G 6G13G19
  20563767.7144    -953030.54848   -648008.61764
  23853100.4564   -1598913.03745  -1156432.01761
  21104463.323    -2159985.357 7  -1622218.99923
  23517658.9954   -2015018.02045  -1231764.66561
  22504694.269     1220549.348 6    920786.59421
 91  5  3 22  0 59.9990000  0  5G 2G15G 6G13G19
  20561226.8784    -966388.38548   -658417.31864
  23846606.886    -1633037.204 5  -1183022.17221
  21097498.980    -2196587.974 7  -1650740.49123
  23504072.3314   -2086424.66145  -1287406.01661
  22509156.417     1243979.414 5    939043.67921
 91  5  3 22  1 14.9990000  0  5G 2G15G 6G13G19
  20558699.0424    -979671.49048   -668767.78864
  23840132.409    -1667044.745 5  -1209521.46321
  21090545.448    -2233129.029 7  -1679214.01723
  23490494.542    -2157775.667 5  -1343003.95621
  22513626.745     1267491.039 6    957364.31921
 91  5  3 22  1 29.9990000  0  5G 2G15G 6G13G19
  20556181.7924    -992895.96448   -679072.56964
  23833684.2844   -1700951.26945  -1235942.01861
  21083600.472    -2269624.100 7  -1707651.70923
  23476923.6904   -2229086.57045  -1398570.67761
  22518118.151     1291068.477 5    975736.24921
 91  5  3 22  1 44.9990000  0  5G 2G15G 6G13G19
  20553677.0114   -1006060.75448   -689330.84564
  23827251.7224   -1734755.42145  -1262282.81861
  21076664.8084   -2306071.99347  -1736052.63663
  23463363.065    -2300355.580 5  -1454104.74321
  22522614.034     1314712.766 6    994160.26321
 91  5  3 22  1 59.9990000  0  5G 2G15G 6G13G19
  20551182.7224   -1019168.49348   -699544.66664
  23820834.3004   -1768459.15745  -1288545.37261
  21069737.456    -2342475.064 7  -1764418.63623
  23449806.1594   -2371585.01045  -1509607.99461
  22527128.2374    1338421.30145   1012634.33061
 91  5  3 22  2 14.9990000  0  5G 2G15G 6G13G19
  20548701.0814   -1032209.64748   -709706.60164
  23814442.058    -1802052.692 5  -1314722.06021
  21062819.964    -2378823.380 7  -1792741.97323
  23436262.9954   -2442764.87045  -1565072.60261
  22531650.003     1362203.631 5   1031165.90121
 91  5  3 22  2 29.9990000  0  5G 2G15G 6G13G19
  20546231.3314   -1045191.91648   -719822.65264
  23808073.2064   -1835543.39245  -1340818.61161
  21055911.5424   -2415124.40147  -1821028.45463
  23422723.4954   -2513902.58145  -1620504.36461
  22536192.284     1386052.029 5   1049748.96421
 91  5  3 22  2 44.9990000  0  5G 2G15G 6G13G19
  20543769.7064   -1058121.77248   -729897.86364
  23801715.948    -1868937.484 5  -1366839.89121
  21049012.5264   -2451384.34547  -1849282.93063
  23409193.206    -2585003.956 5  -1675907.79321
  22540738.347     1409960.000 5   1068378.43821
 91  5  3 22  2 59.9990000  0  5G 2G15G 6G13G19
  20541321.3084   -1070989.75648   -739924.86364
  23795382.003    -1902225.163 5  -1392778.25521
  21042121.7614   -2487593.43147  -1877497.77363
  23395673.5584   -2656059.13845  -1731275.25961
  22545302.167     1433937.131 5   1087061.80621
 91  5  3 22  3 14.9990000  0  5G 2G15G 6G13G19
  20538883.3554   -1083801.59648   -749908.11264
  23789066.6444   -1935411.67845  -1418637.77861
  21035240.4644   -2523757.19747  -1905677.29963
  23382158.0654   -2727073.45345  -1786610.86461
  22549877.862     1457977.730 6   1105794.63921
 91  5  3 22  3 29.9990000  0  5G 2G15G 6G13G19
  20536455.2534   -1096560.20448   -759849.88664
  23782770.5584   -1968499.40945  -1444420.33961
  21028365.8784   -2559878.07947  -1933823.41263
  23368652.909    -2798049.393 5  -1841916.56721
  22554464.2764    1482078.93145   1124574.66961
 91  5  3 22  3 44.9990000  0  5G 2G15G 6G13G19
  20534038.4644   -1109259.56648   -769745.49164
  23776493.1984   -2001482.10445  -1470121.05061
  21021501.9404   -2595949.94147  -1961931.32263
  23355156.355    -2868980.557 5  -1897187.37421
  22559062.433     1506246.539 6   1143406.46621
 91  5  3 22  3 59.9990000  0  5G 2G15G 6G13G19
  20531632.5114   -1121902.62948   -779597.22764
  23770236.737    -2034362.147 5  -1495741.78121
  21014646.9174   -2631975.45547  -1990003.12263
  23341664.5584   -2939869.24245  -1952425.10661
  22563675.659     1530477.740 5   1162287.81121
 91  5  3 22  4 14.9990000  0  5G 2G15G 6G13G19
  20529238.8624   -1134485.44648   -789402.01864
  23764001.042    -2067135.603 5  -1521279.43121
  21007800.6054   -2667950.33747  -2018035.46863
  23328185.519    -3010711.217 5  -2007626.42721
  22568296.159     1554776.398 6   1181221.72121
 91  5  3 22  4 29.9990000  0  5G 2G15G 6G13G19
  20526855.5814   -1147008.97648   -799160.61464
  23757784.542    -2099803.273 5  -1546734.66621
  21000964.4014   -2703875.38347  -2046028.98163
  23314712.456    -3081507.029 5  -2062791.75121
  22572933.323     1579141.572 6   1200207.46121
 91  5  3 22  4 44.9990000  0  5G 2G15G 6G13G19
  20524483.6984   -1159470.95748   -808871.24764
  23751585.933    -2132362.110 5  -1572105.09421
  20994137.6674   -2739747.86647  -2073981.53663
  23301248.5584   -3152253.81545  -2117918.88461
  22577583.081     1603575.653 6   1219246.89321
 91  5  3 22  4 59.9990000  0  5G 2G15G 6G13G19
  20522123.7454   -1171873.06348   -818535.22464
  23745409.3784   -2164813.16745  -1597391.53861
  20987322.308    -2775569.122 7  -2101894.17623
  23287795.9254   -3222952.75645  -2173008.74061
  22582244.745     1628076.949 6   1238338.70821
 91  5  3 22  5 14.9990000  0  5G 2G15G 6G13G19
  20519772.9404   -1184228.48948   -828162.82864
  23739251.9564   -2197169.62945  -1622604.26361
  20980512.034    -2811352.241 7  -2129777.10023
  23274348.151    -3293616.863 5  -2228071.45021
  22586918.495     1652632.222 6   1257472.58021
 91  5  3 22  5 29.9990000  0  5G 2G15G 6G13G19
  20517432.5504   -1196527.30548   -837746.32164
  23733117.4644   -2229421.25945  -1647735.30661
  20973712.175    -2847086.963 7  -2157622.31323
  23260909.776    -3364235.665 5  -2283098.86321
  22591603.112     1677251.488 6   1276656.31721
 91  5  3 22  5 44.9990000  0  5G 2G15G 6G13G19
  20515102.2694   -1208769.27948   -847285.52064
  23727000.245    -2261567.338 5  -1672784.10621
  20966920.636    -2882772.727 7  -2185429.37423
  23247481.167    -3434808.441 5  -2338090.41221
  22596302.323     1701934.980 6   1295890.10621
 91  5  3 22  5 59.9990000  0  5G 2G15G 6G13G19
  20512783.8004   -1220954.81048   -856780.73564
  23720899.612    -2293607.817 5  -1697750.61021
  20960140.401    -2918409.686 7  -2213198.40923
  23234060.472    -3505335.237 5  -2393046.11721
  22601011.6364    1726682.15846   1315173.51961
 91  5  3 22  6 14.9990000  0  5G 2G15G 6G13G19
  20510477.1904   -1233078.12648   -866227.47464
  23714825.612    -2325536.747 5  -1722630.21821
  20953367.7224   -2953991.75147  -2240924.66463
  23220648.5894   -3575809.46745  -2447960.87161
  22605732.675     1751498.981 6   1334511.19521
 91  5  3 22  6 29.9990000  0  5G 2G15G 6G13G19
  20508181.6054   -1245141.00048   -875627.11464
  23708771.9954   -2357355.51345  -1747423.98161
  20946608.050    -2989520.350 7  -2268609.26323
  23207247.980    -3646232.659 5  -2502835.89321
  22610469.5814    1776383.58045   1353901.68761
 91  5  3 22  6 44.9990000  0  5G 2G15G 6G13G19
  20505897.6754   -1257141.31748   -884978.01164
  23702737.9094   -2389061.62245  -1772129.95461
  20939858.089    -3024993.097 7  -2296250.33923
  23193854.8554   -3716602.27645  -2557669.11561
  22615216.690     1801338.374 6   1373346.87321
 91  5  3 22  6 59.9990000  0  5G 2G15G 6G13G19
  20503625.6444   -1269079.77848   -894280.70464
  23696725.9804   -2420655.20245  -1796748.24361
  20933117.956    -3060410.518 7  -2323848.30323
  23180477.3154   -3786918.64845  -2612460.86361
  22619978.690     1826362.418 5   1392846.02121
 91  5  3 22  7 14.9990000  0  5G 2G15G 6G13G19
  20501364.7224   -1280964.15748   -903541.25864
  23690731.105    -2452143.767 5  -1821284.72421
  20926387.3314   -3095779.90347  -2351408.83463
  23167104.2694   -3857188.97445  -2667216.76461
  22624752.487     1851447.813 6   1412392.97921
 91  5  3 22  7 29.9990000  0  5G 2G15G 6G13G19
  20499113.9644   -1292789.21048   -912755.58164
  23684764.5264   -2483521.99845  -1845735.19861
  20919666.3624   -3131095.87147  -2378927.74763
  23153740.956    -3927407.854 5  -2721932.53821
  22629538.737     1876599.718 5   1431991.75421
 91  5  3 22  7 44.9990000  0  5G 2G15G 6G13G19
  20496876.1514   -1304549.79148   -921919.66964
  23678814.2374   -2514784.22045  -1870095.29061
  20912958.089    -3166352.895 7  -2406400.72323
  23140388.362    -3997569.709 5  -2776603.88821
  22634338.519     1901823.455 5   1451646.50421
 91  5  3 22  7 59.9990000  0  5G 2G15G 6G13G19
  20494646.6834   -1316264.39748   -931047.92764
  23672882.237    -2545948.568 5  -1894379.11521
  20906256.308    -3201569.295 7  -2433842.04923
  23127044.190    -4067692.363 5  -2831244.69921
  22639150.690     1927100.420 5   1471342.73921
 91  5  3 22  8 14.9990000  0  5G 2G15G 6G13G19
  20492427.6674   -1327929.50648   -940137.61964
  23666974.222    -2577011.190 5  -1918583.69721
  20899562.612    -3236741.111 7  -2461248.63223
  23113709.2374   -4137771.70045  -2885851.75761
  22643969.894     1952434.332 5   1491083.34021
 91  5  3 22  8 29.9990000  0  5G 2G15G 6G13G19
  20490219.2224   -1339532.52748   -949178.93264
  23661082.495    -2607959.057 5  -1942698.83221
  20892881.308    -3271855.513 7  -2488610.48123
  23100383.0654   -4207794.80245  -2940415.00161
  22648803.019     1977837.795 5   1510878.13421
 91  5  3 22  8 44.9990000  0  5G 2G15G 6G13G19
  20488022.6674   -1351071.39348   -958170.24964
  23655215.4484   -2638789.72345  -1966722.64861
  20886209.987    -3306910.181 7  -2515925.78323
  23087069.9094   -4277759.41245  -2994932.66261
  22653653.1674    2003312.78145   1530728.66061
 91  5  3 22  8 59.9990000  0  5G 2G15G 6G13G19
  20485838.0894   -1362555.80548   -967119.13864
  23649369.487    -2669512.709 5  -1990662.55521
  20879549.480    -3341914.621 7  -2543201.94823
  23073764.792    -4347674.710 5  -3049411.91321
  22658512.0654    2028849.60045   1550627.37261
 91  5  3 22  9 14.9990000  0  5G 2G15G 6G13G19
  20483664.0114   -1373979.93248   -976021.05264
  23643546.1904   -2700121.60145  -2014513.55561
  20872898.519    -3376862.591 7  -2570434.10823
  23060470.5894   -4417534.24545  -3103847.68361
  22663383.214     2054454.087 5   1570578.80821
 91  5  3 22  9 29.9990000  0  5G 2G15G 6G13G19
  20481501.6754   -1385344.10548   -984876.24964
  23637744.1444   -2730616.57445  -2038275.81061
  20866259.151    -3411753.959 7  -2597622.16723
  23047187.0504   -4487337.84045  -3158239.88061
  22668268.2304    2080126.15745   1590582.89861
 91  5  3 22  9 44.9990000  0  5G 2G15G 6G13G19
  20479349.1054   -1396653.21648   -993688.54264
  23631960.464    -2761002.048 5  -2061952.72521
  20859630.042    -3446593.414 7  -2624769.77523
  23033913.948    -4557090.088 5  -3212592.08621
  22673165.2614    2105860.76745   1610635.72561
 91  5  3 22  9 59.9990000  0  5G 2G15G 6G13G19
  20477207.4484   -1407908.69148  -1002459.03764
  23626199.4254   -2791279.11345  -2085545.14661
  20853009.042    -3481382.108 7  -2651877.82523
  23020646.972    -4626791.951 5  -3266905.02221
  22678076.7614    2131656.41045   1630736.11261
 91  5  3 22 10 14.9990000  0  5G 2G15G 6G13G19
  20475074.9404   -1419117.09248  -1011192.85364
  23620456.0504   -2821454.11945  -2109058.07661
  20846396.909    -3516126.428 7  -2678951.29923
  23007395.0654   -4696449.51045  -3321183.45261
  22682994.3624    2157506.53045   1650878.94261
 91  5  3 22 10 29.9990000  0  5G 2G15G 6G13G19
  20472954.5194   -1430259.35948  -1019875.13664
  23614737.605    -2851507.659 5  -2132476.35021
  20839798.526    -3550806.928 7  -2705975.04923
  22994152.776    -4766043.401 5  -3375412.22421
  22687929.7144    2183430.17645   1671079.07261
 91  5  3 22 10 44.9990000  0  5G 2G15G 6G13G19
  20470844.8154   -1441345.52848  -1028513.70564
  23609039.9644   -2881449.46445  -2155807.53661
  20833208.855    -3585433.464 7  -2732956.74123
  22980918.2454   -4835583.14745  -3429598.85461
  22692873.2924    2209417.24245   1691328.61261
 91  5  3 22 10 59.9990000  0  5G 2G15G 6G13G19
  20468744.7224   -1452382.64448  -1037114.05364
  23603362.058    -2911286.217 5  -2179056.87521
  20826628.417    -3620012.764 7  -2759901.62723
  22967696.1674   -4905075.20145  -3483748.28861
  22697829.1754    2235460.68445   1711622.08461
 91  5  3 22 11 14.9990000  0  5G 2G15G 6G13G19
  20466654.8784   -1463364.02148  -1045670.97064
  23597704.042    -2941010.670 5  -2202218.70521
  20820059.448    -3654537.668 7  -2786804.12924
  22954483.0654   -4974512.42645  -3537855.02061
  22702797.800     2261567.137 5   1731964.65321
 91  5  3 22 11 29.9990000  0  5G 2G15G 6G13G19
  20464576.0424   -1474286.34748  -1054181.86964
  23592069.964    -2970619.281 5  -2225290.27921
  20813500.269    -3689004.601 7  -2813661.45624
  22941279.448    -5043891.386 5  -3591916.36721
  22707780.503     2287740.041 5   1752359.01021
 91  5  3 22 11 44.9990000  0  5G 2G15G 6G13G19
  20462509.5734   -1485146.47048  -1062644.30264
  23586457.8944   -3000108.58845  -2248268.88061
  20806953.058    -3723410.236 7  -2840471.01723
  22928088.2924   -5113208.52945  -3645929.50861
  22712770.940     2313982.466 5   1772807.52221
 91  5  3 22 11 59.9990000  0  5G 2G15G 6G13G19
  20460455.9564   -1495944.75148  -1071058.54464
  23580869.1904   -3029478.94045  -2271154.79261
  20800417.276    -3757754.770 7  -2867232.96923
  22914910.9334   -5182463.65245  -3699894.35361
  22717778.4094    2340293.95445   1793309.86361
 91  5  3 22 12 14.9990000  0  5G 2G15G 6G13G19
  20458409.4014   -1506691.88748  -1079432.93464
  23575302.722    -3058740.591 5  -2293955.99921
  20793891.769    -3792048.467 7  -2893955.30723
  22901740.9804   -5251667.22545  -3753819.00161
  22722797.0974    2366663.83745   1813857.70161
 91  5  3 22 12 29.9990000  0  5G 2G15G 6G13G19
  20456373.6444   -1517392.95048  -1087771.42064
  23569753.683    -3087898.029 5  -2316676.00621
  20787374.948    -3826295.968 7  -2920641.65024
  22888580.5584   -5320823.74145  -3807707.00961
  22727828.440     2393087.224 5   1834447.21321
 91  5  3 22 12 44.9990000  0  5G 2G15G 6G13G19
  20454348.1834   -1528037.91948  -1096066.19864
  23564224.565    -3116940.983 5  -2339306.78521
  20780867.730    -3860487.065 7  -2947284.04324
  22875430.245    -5389922.647 5  -3861550.10521
  22732866.7374    2419574.04845   1855086.17261
 91  5  3 22 12 59.9990000  0  5G 2G15G 6G13G19
  20452332.4724   -1538627.68748  -1104317.95764
  23558720.8554   -3145869.92545  -2361848.74261
  20774372.534    -3894622.403 7  -2973882.98624
  22862292.0584   -5458964.06545  -3915348.44061
  22737916.2144    2446123.45745   1875773.90061
 91  5  3 22 13 14.9990000  0  5G 2G15G 6G13G19
  20450327.7144   -1549163.65048  -1112527.79564
  23553236.831    -3174686.094 5  -2384302.82121
  20767887.550    -3928702.873 7  -3000439.17524
  22849164.151    -5527949.267 5  -3969102.96121
  22742981.7144    2472733.98345   1896509.25161
 91  5  3 22 13 29.9990000  0  5G 2G15G 6G13G19
  20448334.1834   -1559640.33248  -1120691.44364
  23547776.8944   -3203383.57845  -2406664.40761
  20761413.144    -3962722.968 7  -3026948.32324
  22836049.230    -5596872.110 5  -4022808.85421
  22748059.9334    2499411.03645   1917296.44261
 91  5  3 22 13 44.9990000  0  5G 2G15G 6G13G19
  20446349.0264   -1570073.45648  -1128821.14164
  23542334.245    -3231977.830 5  -2428945.55921
  20754948.167    -3996697.950 7  -3053422.31324
  22822941.3704   -5665748.10545  -4076478.28161
  22753143.2224    2526138.96045   1938123.26461
 91  5  3 22 13 59.9990000  0  5G 2G15G 6G13G19
  20444372.9404   -1580455.79448  -1136911.27364
  23536916.565    -3260461.105 5  -2451140.24021
  20748492.792    -4030620.257 7  -3079855.25624
  22809846.323    -5734569.510 5  -4130105.17021
  22758244.1984    2552925.03945   1958995.40461
 91  5  3 22 14 14.9990000  0  5G 2G15G 6G13G19
  20442408.3784   -1590780.12248  -1144956.20464
  23531515.7374   -3288826.12345  -2473242.75761
  20742049.300    -4064482.579 7  -3106241.46224
  22796760.3944   -5803328.93045  -4183683.74661
  22763350.659     2579776.193 5   1979918.24921
 91  5  3 22 14 29.9990000  0  5G 2G15G 6G13G19
  20440455.5814   -1601044.67148  -1152954.55264
  23526143.6124   -3317070.72445  -2495251.46561
  20735616.276    -4098282.669 7  -3132579.17424
  22783688.0114   -5872024.01345  -4237212.20361
  22768476.589     2606694.313 5   2000893.27621
 91  5  3 22 14 44.9990000  0  5G 2G15G 6G13G19
  20438513.5114   -1611247.91148  -1160905.12564
  23520789.6594   -3345192.96645  -2517164.81861
  20729197.151    -4132018.629 7  -3158866.91324
  22770628.355    -5940652.706 5  -4290688.91521
  22773609.784     2633681.038 5   2021921.76121
 91  5  3 22 14 59.9990000  0  5G 2G15G 6G13G19
  20436582.0734   -1621396.47048  -1168813.09264
  23515460.0344   -3373199.16545  -2538987.75861
  20722789.112    -4165697.053 7  -3185109.82024
  22757580.019    -6009221.363 5  -4344118.83721
  22778760.5974    2660729.59645   2042998.43561
 91  5  3 22 15 14.9990000  0  5G 2G15G 6G13G19
  20434661.8154   -1631489.72948  -1176677.96864
  23510153.808    -3401088.628 5  -2560719.72021
  20716389.753    -4199316.968 7  -3211307.13224
  22744543.7534   -6077729.00145  -4397501.24161
  22783916.1364    2687840.56545   2064123.74261
 91  5  3 22 15 29.9990000  0  5G 2G15G 6G13G19
  20432750.1904   -1641534.07548  -1184504.73264
  23504867.4874   -3428867.27945  -2582365.34461
  20710001.683    -4232884.370 7  -3237463.52624
  22731517.4484   -6146181.34945  -4450840.54961
  22789086.0584    2715007.62845   2085292.75861
 91  5  3 22 15 44.9990000  0  5G 2G15G 6G13G19
  20430848.2924   -1651528.47748  -1192292.57564
  23499603.1674   -3456533.64745  -2603923.47361
  20703626.065    -4266397.917 7  -3263577.95424
  22718502.753    -6214576.834 5  -4504135.54221
  22794267.058     2742231.840 5   2106506.29121
 91  5  3 22 15 59.9990000  0  5G 2G15G 6G13G19
  20428956.3554   -1661469.63048  -1200038.92864
  23494357.3474   -3484084.53345  -2625391.60661
  20697259.651    -4299854.149 7  -3289647.72724
  22705497.472    -6282911.889 5  -4557383.45121
  22799458.722     2769516.366 5   2127766.83121
 91  5  3 22 16 14.9990000  0  5G 2G15G 6G13G19
  20427074.7534   -1671358.43448  -1207744.48964
  23489139.8394   -3511520.15345  -2646769.93061
  20690902.769    -4333253.566 7  -3315673.21724
  22692506.206    -6351187.065 5  -4610584.71621
  22804661.8624    2796860.29945   2149073.66961
 91  5  3 22 16 29.9990000  0  5G 2G15G 6G13G19
  20425204.3394   -1681190.63248  -1215405.94364
  23483940.909    -3538835.972 5  -2668054.90521
  20684559.198    -4366591.455 7  -3341650.76724
  22679525.1514   -6419397.60145  -4663735.60161
  22809881.7694    2824267.88145   2170430.10061
 91  5  3 22 16 44.9990000  0  5G 2G15G 6G13G19
  20423342.3084   -1690974.51548  -1223029.74764
  23478761.9954   -3566039.83345  -2689252.62461
  20678225.737    -4399875.945 7  -3367586.71024
  22666553.878    -6487551.383 5  -4716842.25321
  22815104.1904    2851730.95945   2191829.77061
 91  5  3 22 16 59.9990000  0  5G 2G15G 6G13G19
  20421490.3944   -1700704.28248  -1230611.38364
  23473609.425    -3593125.698 5  -2710358.41721
  20671902.425    -4433100.825 7  -3393476.20224
  22653599.0654   -6555642.28045  -4769899.91661
  22820342.6674    2879255.18945   2213277.09461
 91  5  3 22 17 14.9990000  0  5G 2G15G 6G13G19
  20419649.5344   -1710380.14448  -1238151.01764
  23468479.4094   -3620093.54645  -2731372.24861
  20665591.925    -4466266.066 7  -3419319.22824
  22640651.987    -6623670.183 5  -4822908.48621
  22825589.7144    2906840.20645   2234771.78361
 91  5  3 22 17 29.9990000  0  5G 2G15G 6G13G19
  20417820.7304   -1719990.11148  -1245639.30464
  23463371.245    -3646930.955 5  -2752284.43421
  20659293.839    -4499359.649 7  -3445106.41424
  22627721.3234   -6691622.45745  -4875858.13061
  22830854.6754    2934498.20545   2256323.34261
 91  5  3 22 17 44.9990000  0  5G 2G15G 6G13G19
  20416002.3004   -1729544.93248  -1253084.62364
  23458283.9804   -3673648.60145  -2773103.30561
  20653008.573    -4532391.738 7  -3470845.67924
  22614803.3624   -6759509.18245  -4928756.68861
  22836129.870     2962218.175 5   2277923.19221
 91  5  3 22 17 59.9990000  0  5G 2G15G 6G13G19
  20414194.4804   -1739043.58548  -1260486.16964
  23453222.8154   -3700245.11345  -2793827.75861
  20646735.042    -4565361.130 7  -3496536.09224
  22601895.9874   -6827329.29245  -4981603.34361
  22841414.355     2990001.042 5   2299572.04021
 91  5  3 22 18 14.9990000  0  5G 2G15G 6G13G19
  20412397.4484   -1748487.87048  -1267845.35364
  23448185.878    -3726721.983 5  -2814459.00521
  20640472.019    -4598269.404 7  -3522178.88324
  22589005.3154   -6895084.23345  -5034399.21961
  22846713.073     3017845.201 5   2321268.65621
 91  5  3 22 18 29.9990000  0  5G 2G15G 6G13G19
  20410610.6124   -1757879.13748  -1275163.23064
  23443170.284    -3753080.201 5  -2834997.79521
  20634221.511    -4631117.460 7  -3547774.75024
  22576121.706    -6962774.546 5  -5087144.73921
  22852024.440     3045749.470 5   2343012.11221
 91  5  3 22 18 44.9990000  0  5G 2G15G 6G13G19
  20408833.6674   -1767218.07648  -1282440.32764
  23438178.9094   -3779320.36745  -2855444.58361
  20627982.097    -4663905.649 7  -3573323.96924
  22563252.355    -7030400.579 5  -5139840.15021
  22857344.9404    3073712.85045   2364801.63461
 91  5  3 22 18 59.9990000  0  5G 2G15G 6G13G19
  20407067.2064   -1776500.92948  -1289673.72564
  23433206.964    -3805438.118 5  -2875795.97721
  20621755.675    -4696629.858 7  -3598823.33424
  22550397.862    -7097958.335 5  -5192482.36621
  22862680.581     3101739.153 5   2386640.17721
 91  5  3 22 19 14.9990000  0  5G 2G15G 6G13G19
  20405310.9564   -1785728.65048  -1296864.15964
  23428258.8234   -3831434.30145  -2896052.65361
  20615539.175    -4729290.987 7  -3624273.54124
  22537553.3624   -7165448.17645  -5245071.68261
  22868023.980     3129827.281 5   2408526.89621
 91  5  3 22 19 29.9990000  0  5G 2G15G 6G13G19
  20403565.1834   -1794901.56748  -1304011.89364
  23423337.3004   -3857308.98145  -2916214.65061
  20609336.511    -4761888.925 7  -3649674.51124
  22524725.019    -7232870.135 5  -5297608.06921
  22873380.292     3157976.821 5   2430461.46821
 91  5  3 22 19 44.9990000  0  5G 2G15G 6G13G19
  20401832.2844   -1804007.87948  -1311107.72464
  23418437.0034   -3883050.11045  -2936272.58561
  20603147.339    -4794411.674 7  -3675016.89124
  22511909.9334   -7300211.93945  -5350082.03161
  22878751.925     3186199.634 5   2452453.14021
 91  5  3 22 19 59.9980000  0  5G 2G15G 6G13G19
  20400108.2874   -1813061.77748  -1318162.71364
  23413563.3184   -3908670.41045  -2956236.35861
  20596970.514    -4826871.330 7  -3700310.11424
  22499108.022    -7367483.382 5  -5402501.13021
  22884136.139     3214479.181 5   2474489.01721
 91  5  3 22 20 14.9980000  0  5G 2G15G 6G13G19
  20398398.1474   -1822055.44248  -1325170.77064
  23408710.5534   -3934163.80345  -2976101.25661
  20590806.920    -4859263.099 7  -3725550.43324
  22486318.6154   -7434683.98845  -5454865.05961
  22889528.1864    3242828.13945   2496578.98161
 91  5  3 22 20 29.9980000  0  5G 2G15G 6G13G19
  20396696.7954   -1830996.76148  -1332138.03664
  23403883.467    -3959536.992 5  -2995872.48921
  20584653.420    -4891592.945 7  -3750742.50324
  22473544.7724   -7501817.42345  -5507176.63961
  22894939.772     3271235.981 5   2518714.82821
 91  5  3 22 20 44.9980000  0  5G 2G15G 6G13G19
  20395003.9984   -1839892.47348  -1339069.76164
  23399074.8264   -3984796.47745  -3015555.11461
  20578512.568    -4923867.359 7  -3775891.37824
  22460781.5224   -7568889.91345  -5559440.73761
  22900350.654     3299695.985 5   2540891.31621
 91  5  3 22 20 59.9980000  0  5G 2G15G 6G13G19
  20393322.8504   -1848727.44348  -1345954.15964
  23394294.865    -4009926.790 5  -3035137.09021
  20572384.584    -4956070.898 7  -3800985.02824
  22448032.7014   -7635886.11046  -5611645.38261
  22905780.615     3328223.112 5   2563120.11121
 91  5  3 22 21 14.9980000  0  5G 2G15G 6G13G19
  20391651.3734   -1857508.68548  -1352796.68864
  23389536.303    -4034934.638 5  -3054623.63721
  20566269.686    -4988210.357 7  -3826028.74523
  22435297.1004   -7702812.54346  -5663795.65761
  22911217.389     3356810.414 5   2585395.79821
 91  5  3 22 21 29.9980000  0  5G 2G15G 6G13G19
  20389988.6474   -1866245.66048  -1359604.72664
  23384795.490    -4059829.148 5  -3074021.87021
  20560163.709    -5020294.734 7  -3851029.54324
  22422572.701    -7769678.122 6  -5715898.53321
  22916668.248     3385448.482 5   2607711.04321
 91  5  3 22 21 44.9980000  0  5G 2G15G 6G13G19
  20388336.6394   -1874928.63148  -1366370.68064
  23380084.389    -4084600.096 5  -3093323.82521
  20554070.748    -5052314.219 7  -3875979.77324
  22409862.3734   -7836472.88246  -5767946.20761
  22922129.576     3414146.873 5   2630073.28821
 91  5  3 22 21 59.9980000  0  5G 2G15G 6G13G19
  20386696.2254   -1883549.48448  -1373088.23864
  23375395.3424   -4109239.36445  -3112523.17361
  20547991.162    -5084260.001 7  -3900872.57323
  22397165.240    -7903188.361 6  -5819932.11021
  22927604.0844    3442913.74245   2652488.90361
 91  5  3 22 22 14.9980000  0  5G 2G15G 6G13G19
  20385065.5764   -1892117.97248  -1379764.98364
  23370727.9514   -4133756.02045  -3131626.98061
  20541924.061    -5116141.640 7  -3925715.39524
  22384482.5924   -7969833.64746  -5871863.31861
  22933089.381     3471739.431 5   2674950.34921
 91  5  3 22 22 29.9980000  0  5G 2G15G 6G13G19
  20383443.5844   -1900643.06048  -1386407.91364
  23366086.693    -4158159.178 5  -3150642.33921
  20535867.529    -5147967.906 7  -3950515.06724
  22371810.9124   -8036417.32646  -5923746.53961
  22938585.943     3500614.981 5   2697450.63821
 91  5  3 22 22 44.9980000  0  5G 2G15G 6G13G19
  20381833.7724   -1909104.60248  -1393001.32764
  23361466.623    -4182428.299 5  -3169553.26921
  20529825.725    -5179718.476 7  -3975255.76024
  22359158.498    -8102918.819 6  -5975565.70021
  22944092.670     3529560.538 5   2720005.48221
 91  5  3 22 22 59.9980000  0  5G 2G15G 6G13G19
  20380234.4514   -1917505.70048  -1399547.64464
  23356874.8264   -4206566.18045  -3188361.93561
  20523798.147    -5211395.946 7  -3999939.48423
  22346517.9674   -8169340.93246  -6027323.01861
  22949614.506     3558572.801 5   2742612.29921
 91  5  3 22 23 14.9980000  0  5G 2G15G 6G13G19
  20378644.3814   -1925859.32848  -1406056.97664
  23352305.225    -4230585.547 5  -3207078.24821
  20517782.147    -5243013.038 7  -4024576.16524
  22333892.397    -8235696.142 6  -6079028.19621
  22955144.420     3587638.643 5   2765260.86921
 91  5  3 22 23 29.9980000  0  5G 2G15G 6G13G19
  20377063.5294   -1934167.81848  -1412531.12464
  23347757.1074   -4254488.64945  -3225703.97561
  20511776.693    -5274571.861 7  -4049167.44423
  22321277.654    -8301986.689 6  -6130682.99921
  22960686.3814    3616755.48845   2787949.18761
 91  5  3 22 23 44.9980000  0  5G 2G15G 6G13G19
  20375493.8184   -1942415.84248  -1418958.15864
  23343232.0684   -4278259.84745  -3244226.91661
  20505785.022    -5306056.744 7  -4073701.10323
  22308677.779    -8368196.555 6  -6182274.93321
  22966238.076     3645938.853 5   2810689.32521
 91  5  3 22 23 59.9980000  0  5G 2G15G 6G13G19
  20373932.8894   -1950619.98148  -1425351.00164
  23338731.6394   -4301915.48545  -3262659.81561
  20499804.295    -5337484.123 7  -4098189.95824
  22296089.6784   -8434342.00646  -6233816.66561
  22971802.045     3675172.186 5   2833468.40521
 91  5  3 22 24 14.9980000  0  5G 2G15G 6G13G19
  20372381.3344   -1958773.25948  -1431704.20764
  23334250.3264   -4325447.91245  -3280996.70161
  20493835.982    -5368846.547 7  -4122628.19623
  22283517.2724   -8500415.34646  -6285302.23761
  22977373.1934    3704462.41645   2856291.81761
 91  5  3 22 24 29.9980000  0  5G 2G15G 6G13G19
  20370841.3504   -1966869.55448  -1438013.01564
  23329797.123    -4348851.092 5  -3299232.87621
  20487882.154    -5400137.513 7  -4147010.75823
  22270959.482    -8566410.186 6  -6336726.61421
  22982963.1314    3733815.70445   2879164.36261
 91  5  3 22 24 44.9980000  0  5G 2G15G 6G13G19
  20369310.5534   -1974912.10748  -1444279.94364
  23325368.787    -4372127.859 5  -3317370.55421
  20481940.068    -5431360.101 7  -4171340.03523
  22258414.5684   -8632329.31046  -6388091.99461
  22988558.1154    3763228.62145   2902083.36761
 91  5  3 22 24 59.9980000  0  5G 2G15G 6G13G19
  20367789.1704   -1982906.89348  -1450509.65264
  23320961.3654   -4395283.98745  -3335414.21961
  20476010.232    -5462519.919 7  -4195620.40023
  22245883.998    -8698178.194 6  -6439402.65421
  22994168.8184    3792695.10745   2925044.12661
 91  5  3 22 25 14.9980000  0  5G 2G15G 6G13G19
  20366279.7094   -1990841.69448  -1456692.61964
  23316581.1474   -4418306.87945  -3353354.06761
  20470095.162    -5493604.289 7  -4219841.97423
  22233369.0764   -8763944.42946  -6490648.91061
  22999786.889     3822227.451 5   2948056.19721
 91  5  3 22 25 29.9980000  0  5G 2G15G 6G13G19
  20364776.1474   -1998741.62948  -1462848.41864
  23312221.1624   -4441221.65945  -3371209.68361
  20464188.9514   -5524638.43547  -4244024.41563
  22220863.881    -8829652.672 6  -6541849.97421
  23005413.9984    3851800.49345   2971099.98061
 91  5  3 22 25 44.9980000  0  5G 2G15G 6G13G19
  20363282.4514   -2006590.29648  -1468964.26964
  23307883.0534   -4464011.74745  -3388968.13361
  20458297.420    -5555605.594 7  -4268154.65623
  22208374.389    -8895286.302 6  -6592992.89521
  23011050.522     3881430.589 5   2994188.23121
 91  5  3 22 25 59.9980000  0  5G 2G15G 6G13G19
  20361801.6864   -2014372.15948  -1475028.06264
  23303574.5064   -4486661.15846  -3406616.95061
  20452419.904    -5586489.611 7  -4292220.11224
  22195902.311    -8960829.054 6  -6644065.02221
  23016706.647     3911133.115 5   3017332.91521
 91  5  3 22 26 14.9980000  0  5G 2G15G 6G13G19
  20360328.4204   -2022111.11448  -1481058.42464
  23299286.0764   -4509193.51745  -3424174.57361
  20446554.139    -5617314.238 7  -4316239.28723
  22183442.2874   -9026304.42646  -6695084.61861
  23022365.2874    3940884.08145   3040515.33461
 91  5  3 22 26 29.9980000  0  5G 2G15G 6G13G19
  20358868.8814   -2029785.03148  -1487038.10564
  23295024.334    -4531586.563 6  -3441623.63521
  20440703.068    -5648056.939 7  -4340194.62624
  22170999.3574   -9091690.03746  -6746034.29261
  23028043.615     3970705.783 5   3063752.89321
 91  5  3 22 26 44.9980000  0  5G 2G15G 6G13G19
  20357416.6154   -2037414.09648  -1492982.84064
  23290787.287    -4553860.127 6  -3458979.60721
  20434864.9434   -5678737.84547  -4364101.81764
  22158570.982    -9157005.768 6  -6796929.51621
  23033727.607     4000577.902 5   3087029.72221
 91  5  3 22 26 59.9980000  0  5G 2G15G 6G13G19
  20355972.7404   -2045003.65848  -1498896.79164
  23286568.6864   -4576019.28445  -3476246.41361
  20429037.615    -5709361.812 7  -4387964.63123
  22146153.1004   -9222256.09346  -6847773.76861
  23039419.4594    4030495.10845   3110341.68861
 91  5  3 22 27 14.9980000  0  5G 2G15G 6G13G19
  20354536.0064   -2052552.14048  -1504778.73364
  23282375.7724   -4598062.07446  -3493422.55561
  20423221.303    -5739927.008 7  -4411781.65624
  22133748.850    -9287439.308 6  -6898565.73121
  23045120.475     4060458.992 5   3133690.03421
 91  5  3 22 27 29.9980000  0  5G 2G15G 6G13G19
  20353109.9674   -2060047.60748  -1510619.36364
  23278202.607    -4619976.593 6  -3510498.75621
  20417418.0924   -5770421.20247  -4435543.35764
  22121360.303    -9352543.405 6  -6949296.06221
  23050838.256     4090480.906 5   3157083.59521
 91  5  3 22 27 44.9980000  0  5G 2G15G 6G13G19
  20351693.7874   -2067488.63948  -1516417.57964
  23274056.9674   -4641761.07846  -3527473.62961
  20411629.404    -5800842.808 7  -4459248.49323
  22108987.029    -9417566.465 6  -6999963.21421
  23056560.2484    4120562.49245   3180523.64361
 91  5  3 22 27 59.9980000  0  5G 2G15G 6G13G19
  20350286.256    -2074883.412 8  -1522179.74824
  23269936.147    -4663423.392 6  -3544353.29321
  20405852.8974   -5831199.66547  -4482903.17763
  22096628.217    -9482516.066 6  -7050573.15721
  23062290.9594    4150695.55845   3204003.81061
 91  5  3 22 28 14.9980000  0  5G 2G15G 6G13G19
  20348888.4594   -2082227.62348  -1527902.52164
  23265839.248    -4684959.119 6  -3561134.33121
  20400089.701    -5861487.082 7  -4506503.74824
  22084282.904    -9547387.553 6  -7101122.22021
  23068037.607     4180884.392 5   3227527.42721
 91  5  3 22 28 29.9980000  0  5G 2G15G 6G13G19
  20347499.3734   -2089529.20548  -1533592.07464
  23261762.959    -4706376.022 6  -3577822.77321
  20394338.3574   -5891712.59447  -4530056.08763
  22071951.2954   -9612188.48546  -7151616.30261
  23073792.100     4211121.042 5   3251088.31721
 91  5  3 22 28 44.9980000  0  5G 2G15G 6G13G19
  20346119.0294   -2096784.04548  -1539245.20564
  23257710.490    -4727669.681 6  -3594415.18721
  20388598.6074   -5921871.95047  -4553556.87464
  22059634.748    -9676914.443 6  -7202051.95921
  23079555.092     4241409.422 5   3274689.51221
 91  5  3 22 28 59.9980000  0  5G 2G15G 6G13G19
  20344749.537    -2103979.291 8  -1544851.90224
  23253684.857    -4748826.780 6  -3610901.18421
  20382874.4284   -5951952.10247  -4576995.94064
  22047332.5454   -9741552.06946  -7252418.79661
  23085333.8264    4271762.27545   3298340.92861
 91  5  3 22 29 14.9980000  0  5G 2G15G 6G13G19
  20343389.029    -2111130.444 8  -1550424.23724
  23249682.115    -4769862.817 6  -3627292.85821
  20377162.1784   -5981968.08547  -4600385.00564
  22035046.912    -9806116.451 6  -7302728.55821
  23091117.350     4302164.195 5   3322030.59921
 91  5  3 22 29 29.9980000  0  5G 2G15G 6G13G19
  20342037.5064   -2118233.64948  -1555959.21564
  23245702.4364   -4790773.59546  -3643586.92861
  20371464.0144   -6011915.64547  -4623720.76264
  22022775.8184   -9870603.30746  -7352977.91461
  23096909.8184    4332619.02545   3345761.47961
 91  5  3 22 29 44.9980000  0  5G 2G15G 6G13G19
  20340693.459    -2125293.687 8  -1561460.55124
  23241745.959    -4811563.742 6  -3659786.99021
  20365776.6934   -6041799.44047  -4647006.82564
  22010518.3114   -9935016.97846  -7403170.23961
  23102717.5534    4363121.80945   3369529.72961
 91  5  3 22 29 59.9980000  0  5G 2G15G 6G13G19
  20339362.162    -2132290.867 8  -1566912.91424
  23237816.0294   -4832213.21246  -3675877.44861
  20360106.6394   -6071599.43347  -4670227.59164
  21998278.0294   -9999337.51946  -7453289.98961
  23108535.6004    4393692.27945   3393350.73161
 91  5  3 22 30 14.9980000  0  5G 2G15G 6G13G19
  20338043.545    -2139220.059 8  -1572312.29624
  23233913.053    -4852716.830 6  -3691854.25121
  20354452.6474   -6101310.06347  -4693378.71964
  21986056.982   -10063559.293 6  -7503332.79821
  23114365.459     4424335.612 5   3417228.50221
 91  5  3 22 30 29.9980000  0  5G 2G15G 6G13G19
  20336734.9284   -2146097.55548  -1577671.39264
  23230037.186    -4873090.606 6  -3707729.88821
  20348812.5144   -6130947.44447  -4716472.77364
  21973851.897   -10127698.261 6  -7553311.07421
  23120207.717     4455035.159 5   3441150.07021
 91  5  3 22 30 44.9980000  0  5G 2G15G 6G13G19
  20335437.7564   -2152913.80548  -1582982.76564
  23226186.756    -4893324.811 6  -3723496.75721
  20343188.686    -6160501.774 7  -4739502.11124
  21961665.0764  -10191744.63346  -7603217.18661
  23126062.5844    4485800.38645   3465122.82561
 91  5  3 22 30 59.9980000  0  5G 2G15G 6G13G19
  20334150.1474   -2159679.95048  -1588255.09464
  23222361.232    -4913430.126 6  -3739163.20921
  20337579.139    -6189983.776 7  -4762475.08824
  21949491.7724  -10255709.08246  -7653059.46561
  23131930.3974    4516620.24045   3489138.14361
 91  5  3 22 31 14.9980000  0  5G 2G15G 6G13G19
  20332869.9284   -2166408.24048  -1593497.92564
  23218557.490    -4933418.638 6  -3754738.64621
  20331979.318    -6219405.427 7  -4785401.03824
  21937332.8424  -10319603.27846  -7702847.01261
  23137801.4824    4547482.37645   3513186.41161
 91  5  3 22 31 29.9980000  0  5G 2G15G 6G13G19
  20331598.9754   -2173087.13548  -1598702.26764
  23214777.420    -4953278.930 6  -3770214.16921
  20326394.475    -6248755.188 7  -4808270.96724
  21925190.459   -10383415.420 6  -7752570.61321
  23143683.897     4578398.102 5   3537276.43621
 91  5  3 22 31 44.9980000  0  5G 2G15G 6G13G19
  20330337.740    -2179713.417 8  -1603865.61624
  23211025.279    -4973007.578 6  -3785587.11621
  20320823.787    -6278029.464 7  -4831082.07824
  21913063.4904  -10447142.24246  -7802227.73961
  23149576.600     4609370.703 5   3561410.78221
 91  5  3 22 31 59.9980000  0  5G 2G15G 6G13G19
  20329086.7254   -2186291.67948  -1608991.54064
  23207293.725    -4992608.491 6  -3800860.52621
  20315267.1314   -6307232.20847  -4853837.45264
  21900951.279   -10510787.409 6  -7851821.23321
  23155480.7174    4640395.67845   3585585.93861
 91  5  3 22 32 14.9980000  0  5G 2G15G 6G13G19
  20327840.3894   -2192841.17048  -1614095.04864
  23203585.0144   -5012100.91346  -3816049.38761
  20309719.7094   -6336382.48647  -4876551.94464
  21888851.631   -10574369.850 6  -7901365.84821
  23161391.9904    4671453.65945   3609786.80561
 91  5  3 22 32 29.9980000  0  5G 2G15G 6G13G19
  20326604.9364   -2199331.86748  -1619152.74464
  23199902.397    -5031454.375 6  -3831129.99321
  20304187.772    -6365449.889 7  -4899201.85324
  21876771.303   -10637859.196 6  -7950837.94021
  23167314.4124    4702574.49644   3634036.65361
 91  5  3 22 32 44.9980000  0  5G 2G15G 6G13G19
  20325380.787    -2205763.606 8  -1624164.50124
  23196244.787    -5050668.831 6  -3846102.26721
  20298673.5374   -6394434.23947  -4921787.05264
  21864705.850   -10701255.129 6  -8000237.22621
  23173249.639     4733758.266 5   3658335.53321
 91  5  3 22 32 59.9980000  0  5G 2G15G 6G13G19
  20324167.4594   -2212142.97048  -1629135.44464
  23192613.3344   -5069750.75346  -3860971.27661
  20293170.811    -6423341.879 7  -4944312.47424
  21852660.4044  -10764563.95446  -8049568.63461
  23179199.014     4764998.092 5   3682678.09621
 91  5  3 22 33 14.9980000  0  5G 2G15G 6G13G19
  20322962.5614   -2218472.75048  -1634067.74764
  23189007.936    -5088702.580 6  -3875738.91021
  20287685.365    -6452174.956 7  -4966779.79424
  21840628.561   -10827787.830 6  -8098833.86521
  23185150.1544    4796291.37045   3707062.31861
 91  5  3 22 33 29.9980000  0  5G 2G15G 6G13G19
  20321768.865    -2224746.360 8  -1638956.28824
  23185427.123    -5107517.164 6  -3890399.59021
  20282213.647    -6480926.657 7  -4989183.70524
  21828614.2484  -10890919.63246  -8148027.34461
  23191114.8034    4827644.83045   3731493.40261
 91  5  3 22 33 44.9980000  0  5G 2G15G 6G13G19
  20320586.334    -2230963.504 8  -1643800.82724
  23181874.1154   -5126194.27346  -3904953.17661
  20276757.936    -6509596.544 7  -5011523.86324
  21816619.1624  -10953958.59346  -8197148.48161
  23197091.2874    4859058.58845   3755971.47961
 91  5  3 22 33 59.9980000  0  5G 2G15G 6G13G19
  20319410.3114   -2237139.02548  -1648612.92964
  23178341.5294   -5144748.75446  -3919411.18561
  20271315.756    -6538199.219 7  -5033811.64824
  21804637.787   -11016919.591 6  -8246208.86121
  23203080.178     4890517.447 5   3780484.71521
 91  5  3 22 34 14.9980000  0  5G 2G15G 6G13G19
  20318244.2254   -2243270.59548  -1653390.78364
  23174835.8264   -5163178.04546  -3933771.65961
  20265884.7094   -6566731.76647  -5056044.79264
  21792672.3974  -11079799.70346  -8295206.21261
  23209076.2484    4922023.79445   3805034.96161
 91  5  3 22 34 29.9980000  0  5G 2G15G 6G13G19
  20317084.1934   -2249363.60148  -1658138.58764
  23171352.2564   -5181487.37146  -3948038.63361
  20260469.670    -6595199.652 7  -5078227.54224
  21780721.365   -11142603.856 6  -8344144.39021
  23215079.2644    4953572.29545   3829618.03861
 91  5  3 22 34 44.9980000  0  5G 2G15G 6G13G19
  20315933.0614   -2255415.88648  -1662854.65864
  23167889.1074   -5199674.36046  -3962210.28261
  20255062.787    -6623600.170 7  -5100357.80324
  21768784.4204  -11205329.35746  -8393021.27361
  23221090.272     4985164.984 5   3854235.54421
 91  5  3 22 34 59.9980000  0  5G 2G15G 6G13G19
  20314788.8264   -2261424.96548  -1667537.07064
  23164453.9284   -5217736.14046  -3976284.36861
  20249673.107    -6651930.604 7  -5122433.45324
  21756863.3424  -11267973.72046  -8441834.93161
  23227110.2254    5016804.26145   3878889.36661
 91  5  3 22 35 14.9980000  0  5G 2G15G 6G13G19
  20313655.4824   -2267385.27048  -1672181.46964
  23161041.475    -5235666.652 6  -3990256.16421
  20244295.857    -6680184.905 7  -5144449.78124
  21744958.357   -11330530.960 6  -8490580.69821
  23233142.0534    5048495.65145   3903583.78761
 91  5  3 22 35 29.9980000  0  5G 2G15G 6G13G19
  20312529.6074   -2273296.77848  -1676787.84664
  23157653.2094   -5253466.15946  -4004125.88361
  20238934.6934   -6708363.07447  -5166406.78264
  21733071.9284  -11393000.82946  -8539258.40361
  23239185.553     5080238.858 5   3928318.58121
 91  5  3 22 35 44.9980000  0  5G 2G15G 6G13G19
  20311417.9204   -2279142.45548  -1681342.92564
  23154294.8974   -5271117.41846  -4017880.07961
  20233589.982    -6736447.820 7  -5188290.98724
  21721203.8424  -11455365.78046  -8587854.34961
  23245235.670     5112050.987 5   3953107.09321
 91  5  3 22 35 59.9980000  0  5G 2G15G 6G13G19
  20310314.3424   -2284942.39148  -1685862.36264
  23150961.998    -5288640.217 6  -4031534.18221
  20228259.529    -6764458.581 7  -5210117.54024
  21709352.3894  -11517645.42146  -8636383.80761
  23251300.123     5143912.096 4   3977933.76321
 91  5  3 22 36 14.9980000  0  5G 2G15G 6G13G19
  20309217.4044   -2290704.21648  -1690352.10664
  23147649.654    -5306042.183 6  -4045094.11621
  20222942.959    -6792402.725 7  -5231892.18824
  21697515.545   -11579847.094 6  -8684852.51821
  23257369.522     5175814.169 4   4002792.35121
 91  5  3 22 36 29.9980000  0  5G 2G15G 6G13G19
  20308129.9674   -2296419.21848  -1694805.36164
  23144362.2794   -5323314.19246  -4058552.78961
  20217638.920    -6820271.616 7  -5253608.19524
  21685696.3424  -11641961.55146  -8733253.27361
  23263452.998     5207765.722 4   4027689.50421
 91  5  3 22 36 44.9980000  0  5G 2G15G 6G13G19
  20307051.1784   -2302086.33348  -1699221.30264
  23141100.045    -5340455.074 6  -4071909.28621
  20212349.7014   -6848063.62647  -5275264.29264
  21673891.5144  -11703987.54346  -8781585.09561
  23269540.6784    5239768.06745   4052626.23261
 91  5  3 22 36 59.9980000  0  5G 2G15G 6G13G19
  20305981.9984   -2307706.92948  -1703600.99464
  23137863.311    -5357466.078 6  -4085164.57421
  20207075.623    -6875779.982 7  -5296861.44124
  21662104.6864  -11765925.99246  -8829848.69161
  23275640.053     5271819.463 5   4077601.17621
 91  5  3 22 37 14.9980000  0  5G 2G15G 6G13G19
  20304920.6864   -2313284.24848  -1707946.96364
  23134649.2324   -5374350.05646  -4098320.88061
  20201815.2644   -6903423.44847  -5318401.79264
  21650336.1474  -11827779.79946  -8878046.33961
  23281748.2014    5303916.79544   4102611.92761
 91  5  3 22 37 29.9980000  0  5G 2G15G 6G13G19
  20303868.5924   -2318815.09948  -1712256.72364
  23131460.2404   -5391103.79846  -4111375.70261
  20196569.6934   -6930990.61247  -5339882.68964
  21638582.4204  -11889545.26246  -8926175.14461
  23287867.568     5336063.043 4   4127660.78121
 91  5  3 22 37 44.9980000  0  5G 2G15G 6G13G19
  20302825.5534   -2324292.28148  -1716524.66564
  23128300.7724   -5407720.02546  -4124323.37461
  20191340.1624   -6958474.09447  -5361298.37764
  21626846.1624  -11951214.73046  -8974229.15861
  23293993.803     5368265.497 4   4152753.43721
 91  5  3 22 37 59.9980000  0  5G 2G15G 6G13G19
  20301794.1154   -2329714.47448  -1720749.75464
  23125166.2094   -5424197.08046  -4137162.60061
  20186124.725    -6985872.088 7  -5382647.44824
  21615129.5144  -12012786.67046  -9022207.16761
  23300134.693     5400525.251 4   4177890.74121
 91  5  3 22 38 14.9980000  0  5G 2G15G 6G13G19
  20300772.2484   -2335084.43648  -1724934.14564
  23122054.717    -5440537.733 6  -4149895.52421
  20180927.662    -7013187.223 7  -5403931.96024
  21603430.3034  -12074263.68546  -9070111.21861
  23306281.2954    5432839.38345   4203070.42961
 91  5  3 22 38 29.9980000  0  5G 2G15G 6G13G19
  20299758.9824   -2340406.92248  -1729081.54464
  23118970.373    -5456746.326 6  -4162525.55821
  20175745.4284   -7040424.01247  -5425155.41964
  21591748.506   -12135650.170 6  -9117944.70721
  23312444.6314    5465203.09344   4228288.73861
 91  5  3 22 38 44.9980000  0  5G 2G15G 6G13G19
  20298755.0374   -2345683.78748  -1733193.38864
  23115911.975    -5472824.472 6  -4175053.94021
  20170576.295    -7067583.820 7  -5446318.89124
  21580084.584   -12196947.381 6  -9165708.64621
  23318610.2174    5497614.54844   4253544.25661
 91  5  3 22 38 59.9980000  0  5G 2G15G 6G13G19
  20297762.7014   -2350900.12848  -1737258.07864
  23112878.7724   -5488757.21246  -4187469.02961
  20165425.0064   -7094651.41847  -5467410.51564
  21568439.3894  -12258140.09446  -9213391.15661
  23324789.9674    5530088.52744   4278848.48361
 91  5  3 22 39 14.9980000  0  5G 2G15G 6G13G19
  20296776.9904   -2356079.67948  -1741294.09864
  23109871.217    -5504568.039 6  -4199789.09621
  20160287.7564   -7121650.16647  -5488448.49464
  21556811.5684  -12319251.52646  -9261010.32461
  23330974.201     5562601.383 4   4304183.01521
 91  5  3 22 39 29.9980000  0  5G 2G15G 6G13G19
  20295800.1544   -2361213.54248  -1745294.51664
  23106887.5224   -5520248.11146  -4212007.30561
  20155165.459    -7148571.283 7  -5509425.97324
  21545198.4984  -12380272.71246  -9308559.17961
  23337174.545     5595161.635 4   4329554.48121
 91  5  3 22 39 44.9980000  0  5G 2G15G 6G13G19
  20294831.2094   -2366302.21748  -1749259.72464
  23103928.232    -5535797.787 6  -4224123.88821
  20150056.982    -7175414.828 7  -5530343.00724
  21533603.2254  -12441203.63546  -9356037.70161
  23343374.482     5627768.818 4   4354962.50521
 91  5  3 22 39 59.9980000  0  5G 2G15G 6G13G19
  20293871.7404   -2371343.23948  -1753187.80264
  23100991.772    -5551214.402 6  -4236136.80421
  20144964.068    -7202177.863 7  -5551197.30524
  21522026.2644  -12502041.42046  -9403443.64461
  23349594.397     5660425.412 4   4380409.04021
 91  5  3 22 40 14.9980000  0  5G 2G15G 6G13G19
  20292921.8894   -2376335.07548  -1757077.54964
  23098086.9204   -5566496.22246  -4248044.67461
  20139887.264    -7228858.811 7  -5571987.64124
  21510465.1934  -12562784.25846  -9450775.60361
  23355814.865     5693132.517 4   4405894.92921
 91  5  3 22 40 29.9980000  0  5G 2G15G 6G13G19
  20291979.8574   -2381286.21748  -1760935.58964
  23095200.7954   -5581651.54846  -4259853.98261
  20134824.2954   -7255465.88647  -5592720.41563
  21498923.7724  -12623440.43546  -9498040.04261
  23362048.217     5725881.654 4   4431413.55721
 91  5  3 22 40 44.9980000  0  5G 2G15G 6G13G19
  20291046.9434   -2386190.05648  -1764756.77064
  23092343.443    -5596673.757 6  -4271559.56821
  20129775.990    -7281991.893 7  -5613390.02023
  21487399.2724  -12684002.92146  -9545231.46961
  23368288.232     5758679.639 4   4456970.26921
 91  5  3 22 40 59.9980000  0  5G 2G15G 6G13G19
  20290122.7404   -2391044.68348  -1768539.60264
  23089509.4984   -5611560.56946  -4283159.64261
  20124743.873    -7308434.817 7  -5633994.88023
  21475893.4594  -12744469.48046  -9592348.15061
  23374539.0764    5791528.17444   4482566.37161
 91  5  3 22 41 14.9980000  0  5G 2G15G 6G13G19
  20289210.9044   -2395835.59448  -1772272.78664
  23086706.0374   -5626297.33946  -4294642.79361
  20119730.553    -7334779.953 7  -5654523.54623
  21464407.381   -12804825.004 6  -9639378.31421
  23380802.193     5824441.541 4   4508212.98521
 91  5  3 22 41 29.9980000  0  5G 2G15G 6G13G19
  20288309.3974   -2400576.23048  -1775966.79564
  23083927.1314   -5640897.46746  -4306019.48161
  20114733.7014   -7361040.35147  -5674986.18463
  21452941.1004  -12865082.61946  -9686332.17561
  23387078.8344    5857406.09543   4533899.48861
 91  5  3 22 41 44.9980000  0  5G 2G15G 6G13G19
  20287414.7094   -2405274.83348  -1779628.05064
  23081174.162    -5655368.870 6  -4317295.86221
  20109751.709    -7387223.924 7  -5695388.95223
  21441492.225   -12925250.377 6  -9733216.03121
  23393356.490     5890413.671 4   4559619.51321
 91  5  3 22 41 59.9980000  0  5G 2G15G 6G13G19
  20286530.4284   -2409925.21048  -1783251.72964
  23078447.357    -5669705.258 6  -4328467.03921
  20104784.1544   -7413324.20947  -5715726.82863
  21430060.7174  -12985321.62946  -9780024.68461
  23399647.818     5923470.421 4   4585377.85021
 91  5  3 22 42 14.9980000  0  5G 2G15G 6G13G19
  20285653.9284   -2414526.07648  -1786836.82464
  23075743.311    -5683905.343 6  -4339532.02621
  20099833.756    -7439339.648 7  -5735998.58523
  21418647.693   -13045294.680 6  -9826756.81921
  23405947.1394    5956577.53744   4611175.42661
 91  5  3 22 42 29.9980000  0  5G 2G15G 6G13G19
  20284789.3814   -2419073.67248  -1790380.41164
  23073066.592    -5697965.192 6  -4350487.70221
  20094899.647    -7465266.276 7  -5756201.13723
  21407255.178   -13105165.515 6  -9873409.30721
  23412256.451     5989738.462 4   4637014.94721
 91  5  3 22 42 44.9980000  0  5G 2G15G 6G13G19
  20283932.1394   -2423582.28348  -1793893.61964
  23070416.4514   -5711899.14146  -4361345.30061
  20089979.764    -7491118.076 7  -5776345.38823
  21395878.381   -13164948.132 6  -9919993.05221
  23418576.6234    6022938.70244   4662885.08461
 91  5  3 22 42 59.9980000  0  5G 2G15G 6G13G19
  20283080.6004   -2428055.87848  -1797379.54364
  23067789.9364   -5725710.79646  -4372107.59961
  20085074.022    -7516898.729 7  -5796434.19223
  21384518.092   -13224646.138 6  -9966510.86921
  23424900.514     6056174.340 4   4688782.81421
 91  5  3 22 43 14.9980000  0  5G 2G15G 6G13G19
  20282238.1154   -2432481.09448  -1800827.76764
  23065186.4514   -5739386.74846  -4382764.15161
  20080184.326    -7542594.634 7  -5816456.96423
  21373176.506   -13284246.002 6 -10012952.21521
  23431236.4984    6089458.54844   4714718.38361
 91  5  3 22 43 29.9980000  0  5G 2G15G 6G13G19
  20281405.0684   -2436855.29648  -1804236.24164
  23062610.6004   -5752924.17946  -4393312.75661
  20075312.2644   -7568202.86747  -5836411.42163
  21361854.475   -13343744.285 6 -10059314.41021
  23437579.1154    6122794.16544   4740694.01761
 91  5  3 22 43 44.9980000  0  5G 2G15G 6G13G19
  20280582.8424   -2441182.07548  -1807607.76264
  23060058.772    -5766326.365 6  -4403755.97721
  20070455.287    -7593726.581 7  -5856300.01823
  21350550.7644  -13403144.57746 -10105600.24761
  23443930.3574    6156177.48844   4766706.84561
 91  5  3 22 43 59.9980000  0  5G 2G15G 6G13G19
  20279767.4904   -2445468.77148  -1810948.05264
  23057531.2564   -5779600.69146  -4414099.57761
  20065611.662    -7619172.869 7  -5876128.28123
  21339265.068   -13462453.889 6 -10151815.18421
  23450292.576     6189600.745 4   4792750.77021
 91  5  3 22 44 14.9980000  0  5G 2G15G 6G13G19
  20278961.2014   -2449697.69448  -1814243.32164
  23055034.4594   -5792729.39046  -4424329.68961
  20060788.162    -7644523.861 7  -5895882.28723
  21327998.943   -13521654.126 6 -10197945.13321
  23456662.264     6223081.710 4   4818839.66121
 91  5  3 22 44 29.9980000  0  5G 2G15G 6G13G19
  20278165.2014   -2453881.18848  -1817503.19364
  23052562.451    -5805724.676 5  -4434455.86021
  20055980.779    -7669791.606 7  -5915571.42723
  21316752.139   -13580757.061 6 -10243999.26621
  23463044.0144    6256607.99144   4844963.87861
 91  5  3 22 44 44.9980000  0  5G 2G15G 6G13G19
  20277378.6074   -2458020.46248  -1820728.60864
  23050111.850    -5818587.618 6  -4444478.88021
  20051186.803    -7694977.036 7  -5935196.42523
  21305523.826   -13639763.977 6 -10289978.58221
  23469430.8974    6290178.02344   4871122.18461
 91  5  3 22 44 59.9980000  0  5G 2G15G 6G13G19
  20276600.6544   -2462109.15648  -1823914.60764
  23047692.6544   -5831311.81146  -4454393.80061
  20046410.9904   -7720073.36447  -5954751.99463
  21294314.2324  -13698667.83046 -10335877.58761
  23475828.686     6323798.206 3   4897319.56921
 91  5  3 22 45 14.9980000  0  5G 2G15G 6G13G19
  20275831.0764   -2466153.00148  -1827065.66464
  23045298.3974   -5843902.63046  -4464204.78361
  20041653.0764   -7745086.15847  -5974242.47263
  21283123.1004  -13757474.16346 -10381700.60261
  23482234.295     6357462.914 3   4923551.64021
 91  5  3 22 45 29.9980000  0  5G 2G15G 6G13G19
  20275068.3184   -2470162.28048  -1830189.78264
  23042923.0764   -5856370.36546  -4473919.87061
  20036906.397    -7770025.388 7  -5993675.62723
  21271948.8424  -13816192.89746 -10427455.35961
  23488648.295     6391161.582 3   4949810.17421
 91  5  3 22 45 44.9980000  0  5G 2G15G 6G13G19
  20274313.6074   -2474125.76448  -1833278.21664
  23040577.607    -5868703.664 6  -4483530.19021
  20032177.537    -7794879.732 7  -6013042.63223
  21260794.889   -13874812.554 6 -10473132.91821
  23495069.5844    6424905.00843   4976103.58861
 91  5  3 22 45 59.9980000  0  5G 2G15G 6G13G19
  20273568.8894   -2478044.55348  -1836331.82664
  23038256.865    -5880903.605 6  -4493036.60821
  20027462.475    -7819649.935 7  -6032344.07923
  21249658.2324  -13933334.03246 -10518733.96861
  23501499.326     6458692.166 3   5002431.05721
 91  5  3 22 46 14.9980000  0  5G 2G15G 6G13G19
  20272831.9984   -2481911.23848  -1839344.83364
  23035959.8264   -5892962.67746  -4502433.24361
  20022767.451    -7844328.216 7  -6051573.89323
  21238540.8344  -13991749.54946 -10564252.45561
  23507937.3654    6492530.37243   5028798.33361
 91  5  3 22 46 29.9980000  0  5G 2G15G 6G13G19
  20272106.5374   -2485728.66348  -1842319.45564
  23033691.7254   -5904883.54846  -4511722.17761
  20018086.998    -7868917.326 7  -6070734.22623
  21227445.2484  -14050061.30346 -10609690.08461
  23514385.7644    6526416.61343   5055203.01161
 91  5  3 22 46 44.9980000  0  5G 2G15G 6G13G19
  20271392.1394   -2489478.17948  -1845241.16164
  23031455.147    -5916647.599 6  -4520888.93821
  20013429.053    -7893398.141 7  -6089810.17323
  21216371.5924  -14108250.53346 -10655032.24961
  23520847.2484    6560369.62143   5081659.72861
 91  5  3 22 46 59.9980000  0  5G 2G15G 6G13G19
  20270686.4674   -2493187.47448  -1848131.52164
  23029238.936    -5928282.148 6  -4529954.77821
  20008784.967    -7917798.045 7  -6108823.07523
  21205317.443   -14166344.685 6 -10700300.31521
  23527314.951     6594361.409 3   5108146.67621
 91  5  3 22 47 14.9980000  0  5G 2G15G 6G13G19
  20269987.5924   -2496855.36948  -1850989.62764
  23027050.897    -5939785.765 6  -4538918.58121
  20004159.139    -7942115.640 7  -6127771.83623
  21194281.5844  -14224342.11346 -10745493.03361
  23533790.1864    6628393.13343   5134664.71861
 91  5  3 22 47 29.9980000  0  5G 2G15G 6G13G19
  20269299.4984   -2500474.16348  -1853809.47264
  23024888.178    -5951150.747 5  -4547774.36621
  19999548.115    -7966342.907 7  -6146650.21123
  21183263.8734  -14282234.92946 -10790604.21761
  23540277.272     6662472.426 3   5161219.82221
 91  5  3 22 47 44.9980000  0  5G 2G15G 6G13G19
  20268619.8574   -2504051.45648  -1856596.97664
  23022749.951    -5962384.564 6  -4556527.94521
  19994952.365    -7990487.079 7  -6165463.84023
  21172265.6624  -14340030.20446 -10835639.40461
  23546768.990     6696591.760 3   5187806.14921
 91  5  3 22 47 59.9980000  0  5G 2G15G 6G13G19
  20267946.9594   -2507578.66048  -1859345.44764
  23020640.779    -5973478.741 6  -4565172.71921
  19990377.326    -8014539.453 7  -6184205.93023
  21161288.045   -14397718.965 6 -10880591.58921
  23553275.2564    6730759.58143   5214430.26261
 91  5  3 22 48 14.9980000  0  5G 2G15G 6G13G19
  20267286.2174   -2511057.40748  -1862056.16264
  23018554.0374   -5984434.62545  -4573709.73761
  19985816.459    -8038501.276 7  -6202877.47423
  21150330.904   -14455302.468 6 -10925461.74921
  23559785.1154    6764974.06743   5241090.71161
 91  5  3 22 48 29.9980000  0  5G 2G15G 6G13G19
  20266632.3424   -2514497.63748  -1864736.86464
  23016492.9594   -5995261.85445  -4582146.49461
  19981271.615    -8062382.289 7  -6221486.04023
  21139390.2324  -14512790.20646 -10970257.29661
  23566304.404     6799225.154 3   5267779.70121
 91  5  3 22 48 44.9980000  0  5G 2G15G 6G13G19
  20265985.6154   -2517892.66248  -1867382.34264
  23014457.162    -6005953.837 5  -4590477.86721
  19976744.8574   -8086175.37047  -6240026.08963
  21128470.6234  -14570175.43046 -11014972.95761
  23572827.248     6833519.343 3   5294502.24021
 91  5  3 22 48 59.9980000  0  5G 2G15G 6G13G19
  20265349.0294   -2521234.07148  -1869986.04264
  23012452.3424   -6016502.41045  -4598697.49961
  19972235.756    -8109872.152 7  -6258491.10223
  21117571.881   -14627449.686 6 -11059602.15421
  23579365.443     6867864.648 3   5321264.65421
 91  5  3 22 49 14.9980000  0  5G 2G15G 6G13G19
  20264722.3894   -2524527.94548  -1872552.69864
  23010470.2724   -6026913.62846  -4606810.10061
  19967743.967    -8133478.265 7  -6276885.46123
  21106693.475   -14684618.597 6 -11104149.25221
  23585906.7724    6902255.14643   5348062.28061
 91  5  3 22 49 29.9980000  0  5G 2G15G 6G13G19
  20264107.0534   -2527764.32748  -1875074.55864
  23008516.3504   -6037177.32845  -4614807.75461
  19963269.350    -8156983.517 7  -6295201.22923
  21095836.3034  -14741671.83446 -11148606.22461
  23592462.2404    6936700.55643   5374902.68261
 91  5  3 22 49 44.9980000  0  5G 2G15G 6G13G19
  20263501.6784   -2530946.28148  -1877554.00364
  23006593.107    -6047296.336 6  -4622692.67921
  19958815.475    -8180390.794 7  -6313440.65223
  21085000.4514  -14798612.12546 -11192975.18161
  23599027.0764    6971197.70343   5401783.39461
 91  5  3 22 49 59.9980000  0  5G 2G15G 6G13G19
  20262903.7484   -2534089.68848  -1880003.41564
  23004690.4514   -6057286.41746  -4630477.12761
  19954376.639    -8203715.699 7  -6331615.89223
  21074184.6394  -14855455.04846 -11237268.27461
  23605602.529     7005730.624 3   5428692.01621
 91  5  3 22 50 14.9980000  0  5G 2G15G 6G13G19
  20262318.4434   -2537164.88048  -1882399.67164
  23002819.701    -6067117.722 6  -4638137.86721
  19949959.6394   -8226928.12547  -6349703.48663
  21063390.3654  -14912170.60346 -11281462.11261
  23612183.115     7040328.811 3   5455651.43321
 91  5  3 22 50 29.9980000  0  5G 2G15G 6G13G19
  20261743.0684   -2540184.51448  -1884752.63964
  23000977.998    -6076802.901 5  -4645684.73821
  19945561.850    -8250040.535 7  -6367713.14323
  21052619.475   -14968771.010 6 -11325566.23421
  23618778.5534    7074979.39343   5482651.71561
 91  5  3 22 50 44.9980000  0  5G 2G15G 6G13G19
  20261178.0614   -2543157.09448  -1887068.93964
  22999159.9124   -6086350.35145  -4653124.27261
  19941181.170    -8273061.185 7  -6385651.30123
  21041869.5374  -15025264.82146 -11369587.28761
  23625380.537     7109674.054 3   5509686.30421
 91  5  3 22 50 59.9980000  0  5G 2G15G 6G13G19
  20260619.4044   -2546091.00848  -1889355.11264
  22997365.6474   -6095768.51245  -4660463.07261
  19936815.943    -8295998.256 7  -6403524.33023
  21031137.4284  -15081659.94846 -11413531.45161
  23631994.5224    7144404.14143   5536748.53261
 91  5  3 22 51 14.9980000  0  5G 2G15G 6G13G19
  20260070.3344   -2548977.21648  -1891604.11364
  22995601.076    -6105048.185 5  -4667693.96421
  19932469.311    -8318842.267 7  -6421324.84823
  21020426.6474  -15137946.65546 -11457391.12361
  23638602.881     7179178.634 3   5563845.35821
 91  5  3 22 51 29.9980000  0  5G 2G15G 6G13G19
  20259531.2014   -2551809.71648  -1893811.26264
  22993863.436    -6114183.151 6  -4674812.09021
  19928140.3034   -8341586.82747  -6439047.87163
  21009737.0454  -15194118.73146 -11501161.47561
  23645238.061     7214003.390 3   5590981.34321
 91  5  3 22 51 44.9980000  0  4G 2G15G 6G13
  20259000.6624   -2554599.20248  -1895984.89564
  22992150.850    -6123184.308 6  -4681825.94621
  19923829.1784   -8364242.49047  -6456701.62363
  20999068.1624  -15250186.75746 -11544850.75361
 91  5  3 22 51 59.9980000  0  4G 2G15G 6G13
  20258478.3814   -2557347.70148  -1898126.59264
  22990461.2954   -6132053.34945  -4688736.86561
  19919534.8264   -8386811.14147  -6474287.57563
  20988417.4124  -15306152.41946 -11588460.26161
 91  5  3 22 52 14.9980000  0  4G 2G15G 6G13
  20257961.9754   -2560053.28448  -1900234.84464
  22988799.857    -6140788.416 5  -4695543.38021
  19915257.8574   -8409290.44347  -6491803.90563
  20977787.5294  -15362013.60946 -11631988.37261
 91  5  3 22 52 29.9970000  0  4G 2G15G 6G13
  20257456.7204   -2562713.11648  -1902307.44964
  22987161.345    -6149386.342 5  -4702243.04021
  19910997.3294   -8431676.18847  -6509247.33363
  20967178.7984  -15417763.56346 -11675429.79661
 91  5  3 22 52 44.9970000  0  4G 2G15G 6G13
  20256959.8144   -2565321.14248  -1904339.68764
  22985552.470    -6157841.740 5  -4708831.63921
  19906756.6574   -8453964.57447  -6526614.89863
  20956591.3604  -15473403.08246 -11718785.16961
 91  5  3 22 52 59.9970000  0  4G 2G15G 6G13
  20256474.2984   -2567873.24648  -1906328.34964
  22983975.157    -6166149.777 5  -4715305.42521
  19902533.5644   -8476149.95847  -6543902.20163
  20946025.4704  -15528924.35446 -11762048.39961
 91  5  3 22 53 14.9970000  0  4G 2G15G 6G13
  20255999.478    -2570368.497 8  -1908272.71024
  22982420.673    -6174309.813 5  -4721663.87221
  19898332.1894   -8498231.20047  -6561108.35963
  20935482.9464  -15584326.23046 -11805218.60261
 91  5  3 22 53 29.9970000  0  4G 2G15G 6G13
  20255533.5094   -2572814.52348  -1910178.71564
  22980894.282    -6182329.169 5  -4727912.70021
  19894150.1184   -8520215.53847  -6578239.00063
  20924961.8994  -15639615.60246 -11848301.13061
 91  5  3 22 53 44.9970000  0  4G 2G15G 6G13
  20255077.681    -2575213.367 8  -1912047.95624
  22979396.157    -6190209.816 5  -4734053.44121
  19889982.7284   -8542104.68047  -6595295.46963
  20914461.0324  -15694794.28946 -11891297.41561
 91  5  3 22 53 59.9970000  0  4G 2G15G 6G13
  20254630.353    -2577563.285 8  -1913879.07324
  22977920.837    -6197949.940 5  -4740084.68221
  19885836.5644   -8563896.69747  -6612276.25663
  20903982.2044  -15749860.39646 -11934205.97361
 91  5  3 22 54 14.9970000  0  4G 2G15G 6G13
  20254191.681    -2579869.349 8  -1915676.02124
  22976476.6184   -6205554.71845  -4746010.48061
  19881708.4464   -8585596.61947  -6629185.27763
  20893524.446   -15804818.709 6 -11977030.53521
 91  5  3 22 54 29.9970000  0  4G 2G15G 6G13
  20253763.509    -2582122.806 8  -1917431.96924
  22975056.7044   -6213015.25646  -4751823.85261
  19877597.3684   -8607195.20547  -6646015.33963
  20883088.9074  -15859660.19546 -12019764.06661
 91  5  3 22 54 44.9970000  0  4G 2G15G 6G13
  20253342.868    -2584325.508 8  -1919148.37724
  22973662.353    -6220333.413 6  -4757526.29721
  19873507.1814   -8628694.04847  -6662767.68063
  20872674.9934  -15914386.46046 -12062407.81461
 91  5  3 22 54 59.9970000  0  4G 2G15G 6G13
  20252932.384    -2586480.416 8  -1920827.53724
  22972297.220    -6227511.816 6  -4763119.83721
  19869433.0324   -8650095.77547  -6679444.34563
  20862280.6494  -15968999.90846 -12104963.64461
 91  5  3 22 55 14.9970000  0  4G 2G15G 6G13
  20252530.892    -2588592.168 8  -1922473.06724
  22970960.0484   -6234555.38946  -4768608.31861
  19865378.3764   -8671404.87347  -6696048.83263
  20851909.5484  -16023505.09746 -12147435.13261
 91  5  3 22 55 29.9970000  0  4G 2G15G 6G13
  20252138.532    -2590656.517 8  -1924081.66624
  22969645.556    -6241459.703 5  -4773988.27821
  19861341.9784   -8692616.88747  -6712577.67163
  20841557.5564  -16077897.46746 -12189818.69861
 91  5  3 22 55 44.9970000  0  4G 2G15G 6G13
  20251755.814    -2592668.035 8  -1925649.09524
  22968356.673    -6248219.398 5  -4779255.55821
  19857325.1344   -8713726.17647  -6729026.46863
  20831231.6424  -16132171.22247 -12232109.84161
 91  5  3 22 55 59.9970000  0  4G 2G15G 6G13
  20251381.634    -2594635.495 8  -1927182.19424
  22967096.149    -6254843.268 6  -4784416.99921
  19853326.6424   -8734741.25147  -6745401.84363
  20820922.1894  -16186335.03647 -12274315.31261
 91  5  3 22 56 14.9970000  0  4G 2G15G 6G13
  20251013.649    -2596572.704 8  -1928691.72324
  22965861.189    -6261344.980 6  -4789483.24221
  19849341.7434   -8755675.50147  -6761714.24763
  20810635.7434  -16240402.16247 -12316445.44561
 91  5  3 22 56 29.9970000  0  4G 2G15G 6G13
  20250655.845    -2598447.579 8  -1930152.67724
  22964652.845    -6267692.638 5  -4794429.46221
  19845380.2204   -8776496.67347  -6777938.53163
  20800370.2354  -16294340.43447 -12358475.17261
 91  5  3 22 56 44.9970000  0  4G 2G15G 6G13
  20250306.939    -2600280.190 8  -1931580.68624
  22963470.915    -6273906.209 5  -4799271.18621
  19841436.5644   -8797224.61947  -6794090.17863
  20790127.0094  -16348169.72846 -12400419.98261
 91  5  3 22 56 59.9970000  0  4G 2G15G 6G13
  20249967.798    -2602059.742 8  -1932967.38024
  22962313.524    -6279974.615 6  -4803999.78521
  19837511.3924   -8817848.31647  -6810160.58763
  20779906.2124  -16401878.88447 -12442271.18261
 91  5  3 22 57 14.9970000  0  4G 2G15G 6G13
  20249640.251    -2603789.514 8  -1934315.26824
  22961182.009    -6285901.039 5  -4808617.75821
  19833604.9934   -8838370.80147  -6826152.13563
  20769708.7594  -16455470.89746 -12484031.10061
 91  5  3 22 57 29.9970000  0  4G 2G15G 6G13
  20249320.064    -2605468.076 8  -1935623.25424
  22960087.5174   -6291684.21145  -4813124.12061
  19829720.1344   -8858790.18147  -6842063.34063
  20759532.0014  -16508944.05647 -12525698.40861
 91  5  3 22 57 44.9970000  0  4G 2G15G 6G13
  20249009.228    -2607101.690 8  -1936896.21424
  22959010.4784   -6297329.90345  -4817523.34961
  19825852.8924   -8879112.56647  -6857898.96563
  20749378.4544  -16562304.07147 -12567277.54861
 91  5  3 22 57 59.9970000  0  4G 2G15G 6G13
  20248710.165    -2608673.338 8  -1938120.89224
  22957965.329    -6302821.385 5  -4821802.41321
  19822008.5174   -8899320.66547  -6873645.53763
  20739248.8604  -16615533.89847 -12608755.24961
 91  5  3 22 58 14.9970000  0  4G 2G15G 6G13
  20248423.548    -2610180.320 8  -1939295.17724
  22956951.376    -6308155.965 5  -4825959.21721
  19818185.1814   -8919411.58147  -6889300.79463
  20729145.478   -16668630.666 7 -12650129.27021
 91  5  3 22 58 29.9970000  0  4G 2G15G 6G13
  20248144.181    -2611642.866 8  -1940434.83624
  22955960.110    -6313353.907 5  -4830009.54321
  19814380.4934   -8939405.29747  -6904880.31263
  20719061.9704  -16721614.22347 -12691415.06761
 91  5  3 22 58 44.9970000  0  4G 2G15G 6G13
  20247874.774    -2613064.980 8  -1941542.98924
  22954995.3764   -6318419.08145  -4833956.42161
  19810594.0094   -8959305.51547  -6920386.97363
  20708999.8684  -16774488.36547 -12732615.61161
 91  5  3 22 58 59.9970000  0  4G 2G15G 6G13
  20247610.978    -2614447.614 8  -1942620.37624
  22954061.173    -6323352.449 5  -4837800.58721
  19806823.8844   -8979113.01947  -6935821.39063
  20698959.970   -16827253.612 7 -12773731.30321
 91  5  3 22 59 14.9970000  0  4G 2G15G 6G13
  20247359.540    -2615773.023 8  -1943653.17924
  22953149.9394   -6328136.35145  -4841528.30061
  19803076.2124   -8998809.77947  -6951169.51363
  20688943.0564  -16879892.17747 -12814748.27861
 91  5  3 22 59 29.9970000  0  4G 2G15G 6G13
  20247114.798    -2617060.162 8  -1944656.15424
  22952262.0564   -6332789.72745  -4845154.30061
  19799344.6264   -9018414.55447  -6966445.95563
  20678946.493   -16932422.633 7 -12855681.01921
 91  5  3 22 59 44.9970000  0  4G 2G15G 6G13
  20246878.165    -2618301.503 8  -1945623.44924
  22951400.7124   -6337305.12045  -4848672.77661
  19795632.3994   -9037919.50847  -6981644.62063
  20668971.673   -16984837.235 7 -12896523.48521
 91  5  3 22 59 59.9970000  0  4G 2G15G 6G13
  20246651.071    -2619494.133 8  -1946552.78324
  22950568.8844   -6341679.56145  -4852081.42561
  19791940.5244   -9057321.62947  -6996763.15063
  20659020.6424  -17037132.77847 -12937273.17161
 91  5  3 23  0 14.9970000  0  4G 2G15G 6G13
  20246434.774    -2620628.145 8  -1947436.44224
  22949766.7354   -6345902.92045  -4855372.34661
  19788269.4704   -9076610.56247  -7011793.48763
  20649093.517   -17089298.965 7 -12977922.06921
 91  5  3 23  0 29.9970000  0  4G 2G15G 6G13
  20246227.149    -2621724.992 8  -1948291.13924
  22948985.524    -6349996.802 5  -4858562.37621
  19784617.5094   -9095807.63347  -7026752.23863
  20639187.579   -17141356.995 7 -13018486.68521
 91  5  3 23  0 44.9970000  0  4G 2G15G 6G13
  20246024.626    -2622784.798 8  -1949116.97524
  22948232.4934   -6353961.26445  -4861651.55761
  19780981.4154   -9114912.72647  -7041639.31863
  20629302.282   -17193307.040 7 -13058967.16021
 91  5  3 23  0 59.9970000  0  4G 2G15G 6G13
  20245830.4544   -2623809.83248  -1949915.70964
  22947503.1184   -6357798.52445  -4864641.62161
  19777362.1654   -9133927.72647  -7056456.19763
  20619435.399   -17245150.768 7 -13099364.78921
 91  5  3 23  1 14.9970000  0  4G 2G15G 6G13
  20245644.3064   -2624784.23148  -1950674.99464
  22946802.806    -6361492.944 5  -4867520.38121
  19773765.3994   -9152836.80747  -7071190.54363
  20609594.259   -17296872.260 7 -13139667.17021
 91  5  3 23  1 29.9970000  0  4G 2G15G 6G13
  20245469.4784   -2625709.16148  -1951395.72664
  22946122.1734   -6365045.66745  -4870288.72761
  19770186.6894   -9171640.65647  -7085842.88963
  20599774.782   -17348472.299 7 -13179874.91121
 91  5  3 23  1 44.9970000  0  4G 2G15G 6G13
  20245302.0644   -2626581.48148  -1952075.46464
  22945473.4624   -6368453.60145  -4872944.25361
  19766629.8684   -9190336.02547  -7100410.70763
  20589978.610   -17399947.519 7 -13219985.39121
 91  5  3 23  1 59.9970000  0  4G 2G15G 6G13
  20245143.9934   -2627408.84148  -1952720.16464
  22944855.3604   -6371724.22545  -4875492.79161
  19763090.3454   -9208930.23847  -7114899.69563
  20580205.798   -17451305.494 7 -13260004.51921
 91  5  3 23  2 14.9970000  0  4G 2G15G 6G13
  20244994.5174   -2628197.85748  -1953334.99164
  22944254.9074   -6374864.17545  -4877939.48561
  19759570.3374   -9227429.70247  -7129314.85363
  20570453.798   -17502552.538 7 -13299937.19321
 91  5  3 23  2 29.9970000  0  4G 2G15G 6G13
  20244854.2044   -2628928.77348  -1953904.54264
  22943688.0644   -6377853.39245  -4880268.73961
  19756071.5484   -9245814.22247  -7143640.44663
  20560726.587   -17553668.501 7 -13339767.73221
 91  5  3 23  2 44.9970000  0  4G 2G15G 6G13
  20244724.6034   -2629619.92848  -1954443.11164
  22943140.689    -6380710.557 5  -4882495.09121
  19752592.5014   -9264102.17547  -7157890.79163
  20551021.579   -17604671.889 7 -13379510.55421
 91  5  3 23  2 59.9970000  0  4G 2G15G 6G13
  20244598.8994   -2630273.38048  -1954952.30064
  22942623.5874   -6383437.79545  -4884620.20861
  19749128.7434   -9282295.50247  -7172067.40363
  20541336.524   -17655564.249 7 -13419166.85521
 91  5  3 23  3 14.9970000  0  4G 2G15G 6G13
  20244486.1104   -2630861.58848  -1955410.64864
  22942137.1574   -6386007.26845  -4886622.38561
  19745690.9854   -9300366.27747  -7186148.51963
  20531678.337   -17706317.638 7 -13458714.87521
 91  5  3 23  3 29.9970000  0  4G 2G15G 6G13
  20244382.3764   -2631407.26948  -1955835.85964
  22941675.204    -6388441.857 5  -4888519.46021
  19742272.1814   -9318336.81247  -7200151.52663
  20522041.978   -17756954.406 7 -13498172.01921
 91  5  3 23  3 44.9970000  0  4G 2G15G 6G13
  20244289.8604   -2631912.23248  -1956229.34364
  22941233.0644   -6390743.39245  -4890312.84461
  19738869.5564   -9336208.74547  -7214077.70163
  20512427.446   -17807476.327 7 -13537539.67421
 91  5  3 23  3 59.9970000  0  4G 2G15G 6G13
  20244199.8604   -2632367.20548  -1956583.86964
  22940821.9544   -6392902.62545  -4891995.36161
  19735489.8764   -9353972.60247  -7227919.65763
  20502838.110   -17857874.039 7 -13576810.54421
 91  5  3 23  4 14.9970000  0  4G 2G15G 6G13
  20244120.1654   -2632788.24348  -1956911.95664
  22940433.6344   -6394935.87145  -4893579.69661
  19732127.6264   -9371644.28947  -7241689.79763
  20493268.626   -17908163.437 7 -13615997.01221
 91  5  3 23  4 29.9970000  0  4G 2G15G 6G13
  20244049.8454   -2633155.70848  -1957198.29864
  22940073.7744   -6396823.34845  -4895050.44161
  19728786.7204   -9389203.87447  -7255372.58163
  20483723.548   -17958324.427 7 -13655083.41921
 91  5  3 23  4 44.9970000  0  4G 2G15G 6G13
  20243989.8844   -2633481.82948  -1957452.42264
  22939741.470    -6398577.323 5  -4896417.15921
  19725463.4154   -9406663.47547  -7268977.45863
  20474199.235   -18008368.928 7 -13694079.05721
 91  5  3 23  4 59.9970000  0  4G 2G15G 6G13
  20243934.9854   -2633761.48148  -1957670.33864
  22939437.024    -6400192.616 5  -4897675.81821
  19722160.4234   -9424017.62347  -7282500.16663
  20464698.774   -18058291.633 7 -13732979.78721
 91  5  3 23  5 14.9970000  0  4G 2G15G 6G13
  20243893.8924   -2633992.96848  -1957850.72564
  22939159.7124   -6401667.43745  -4898825.02061
  19718878.7434   -9441264.32347  -7295939.14563
  20455222.524   -18108090.529 7 -13771784.04721
 91  5  3 23  5 29.9970000  0  4G 2G15G 6G13
  20243857.8994   -2634174.31148  -1957992.03864
  22938902.3454   -6402999.90445  -4899863.30561
  19715617.6264   -9458401.61547  -7309292.86863
  20445770.118   -18157763.637 7 -13810490.28421
 91  5  3 23  5 44.9970000  0  4G 2G15G 6G13
  20243829.5794   -2634314.48648
  22938670.087    -6404199.162 5  -4900797.76721
  19712376.1104   -9475438.08947  -7322568.03363
  20436340.564   -18207319.641 7 -13849105.27421
 91  5  3 23  5 59.9970000  0  4G 2G15G 6G13
  20243814.3374   -2634406.67548
  22938475.329    -6405258.333 5  -4901623.07721
  19709154.0484   -9492366.78047  -7335759.21663
  20426934.009   -18256751.529 7 -13887623.55321
 91  5  3 23  6 14.9970000  0  4G 2G15G 6G13
  20243808.5564   -2634438.22848
  22938299.0644   -6406164.78245  -4902329.39461
  19705956.6654   -9509174.62547  -7348856.22963
  20417552.806   -18306046.334 7 -13926035.00921
 91  5  3 23  6 29.9970000  0  4G 2G15G 6G13
  20243810.3534   -2634426.24148
  22938154.8604   -6406935.56946  -4902929.99661
  19702777.1104   -9525878.59747  -7361872.30763
  20408194.587   -18355220.898 7 -13964352.77521
 91  5  3 23  6 44.9970000  0  4G 2G15G 6G13
  20243820.6184   -2634370.57548
  22938031.024    -6407570.750 5  -4903424.92021
  19699618.5244   -9542478.41447  -7374807.22163
  20398860.548   -18404274.652 7 -14002576.40921
 91  5  3 23  6 59.9970000  0  4G 2G15G 6G13
  20243841.3924   -2634263.97148
  22937941.345    -6408063.281 5  -4903808.70021
  19696480.2984   -9558966.41747  -7387655.01363
  20389549.478   -18453200.453 7 -14040700.33521
 91  5  3 23  7 14.9970000  0  4G 2G15G 6G13
  20243869.8454   -2634106.36448
  22937872.4854   -6408412.83045  -4904081.08061
  19693364.4784   -9575342.39447  -7400415.50563
  20380264.0714  -18501997.95747 -14078724.29261
 91  5  3 23  7 29.9970000  0  4G 2G15G 6G13
  20243909.7204   -2633898.04848
  22937833.8534   -6408619.84645
  19690269.6184   -9591606.51847  -7413088.84063
  20371003.915   -18550667.147 7 -14116648.26721
 91  5  3 23  7 44.9970000  0  4G 2G15G 6G13
  20243959.6344   -2633647.15648  -1957581.32964
  22937818.524    -6408692.438 5
  19687193.8294   -9607766.54647  -7425681.06763
  20361764.314   -18599215.801 7 -14154478.31521
 91  5  3 23  7 59.9970000  0  4G 2G15G 6G13
  20244011.2354   -2633355.39548  -1957353.98964
  22937833.571    -6408632.450 5
  19684138.2984   -9623824.06247  -7438193.41563
  20352547.939   -18647645.723 7 -14192215.84621
 91  5  3 23  8 14.9970000  0  4G 2G15G 6G13
  20244076.4784   -2633021.73448
  22937867.1344   -6408438.98945
  19681103.1964   -9639777.99947  -7450625.04963
  20343354.3764  -18695955.83247 -14229860.02061
 91  5  3 23  8 29.9970000  0  4G 2G15G 6G13
  20244148.6104   -2632644.01948
  22937931.0644   -6408109.78945
  19678086.9154   -9655625.88847  -7462974.05063
  20334184.9154  -18744143.35247 -14267408.66561
 91  5  3 23  8 44.9970000  0  4G 2G15G 6G13
  20244226.5714   -2632226.28248
  22938019.4934   -6407649.10145
  19675091.6814   -9671371.40547  -7475243.28163
  20325038.001   -18792212.210 7 -14304864.84721
 91  5  3 23  8 59.9970000  0  4G 2G15G 6G13
  20244318.212    -2631757.996 8  -1956109.29824
  22938135.290    -6407046.310 5  -4903016.16221
  19672116.0644   -9687003.97947  -7487424.50163
  20315914.9854  -18840151.70947 -14342220.22961
 91  5  3 23  9 14.9970000  0  4G 2G15G 6G13
  20244413.8144   -2631243.88148  -1955708.69964
  22938274.368    -6406306.067 5  -4902439.32121
  19669162.1574   -9702527.97647  -7499521.11763
  20306816.1034  -18887966.55747 -14379478.48661
 91  5  3 23  9 29.9970000  0  4G 2G15G 6G13
  20244523.040    -2630668.385 8  -1955260.27724
  22938442.4154   -6405412.95245  -4901743.38461
  19666231.7594   -9717927.64347  -7511520.85463
  20297744.212   -18935640.567 7 -14416626.99321
 91  5  3 23  9 44.9970000  0  4G 2G15G 6G13
  20244641.564    -2630055.250 8  -1954782.52124
  22938636.993    -6404390.813 5  -4900946.89021
  19663319.6814   -9733226.63747  -7523442.14163
  20288694.571   -18983197.729 7 -14453684.45121
 91  5  3 23  9 59.9970000  0  4G 2G15G 6G13
  20244767.048    -2629400.508 8  -1954272.34424
  22938858.2674   -6403235.67145  -4900046.78261
  19660429.4934   -9748420.63947  -7535281.62063
  20279667.173   -19030633.722 7 -14490647.49321
 91  5  3 23 10 14.9970000  0  4G 2G15G 6G13
  20244899.0564   -2628700.92648  -1953727.22464
  22939101.9934   -6401944.42445  -4899040.61861
  19657559.1264   -9763506.32747  -7547036.69763
  20270664.603   -19077945.116 7 -14527513.44521
 91  5  3 23 10 29.9970000  0  4G 2G15G 6G13
  20245041.8604   -2627946.61148  -1953139.45664
  22939375.509    -6400507.486 5  -4897920.90121
  19654710.0484   -9778473.57947  -7558699.48663
  20261687.3454  -19125121.75247 -14564274.39061
 91  5  3 23 10 44.9970000  0  4G 2G15G 6G13
  20245192.0174   -2627161.52048  -1952527.70564
  22939673.4074   -6398948.46545  -4896706.07961
  19651878.7904   -9793345.98047  -7570288.36963
  20252730.970   -19172187.267 7 -14600948.75421
 91  5  3 23 10 59.9970000  0  4G 2G15G 6G13
  20245347.6494   -2626347.84248  -1951893.68364
  22939993.5324   -6397269.80345  -4895398.02361
  19649067.2044   -9808125.65647  -7581804.99563
  20243795.6344  -19219143.78047 -14637538.16761
 91  5  3 23 11 14.9970000  0  4G 2G15G 6G13
  20245510.1344   -2625489.91748  -1951225.17964
  22940334.8064   -6395455.99645  -4893984.65661
  19646275.9234   -9822796.74147  -7593237.00963
  20234883.571   -19265975.402 7 -14674030.27121
 91  5  3 23 11 29.9970000  0  4G 2G15G 6G13
  20245682.7434   -2624587.66748  -1950522.13464
  22940710.142    -6393507.064 5  -4892465.98821
  19643504.4464   -9837359.03347  -7604584.24463
  20225995.6184  -19312681.89147 -14710424.86561
 91  5  3 23 11 44.9970000  0  4G 2G15G 6G13
  20245864.3064   -2623633.92048  -1949778.96964
  22941108.2204   -6391415.57445  -4890836.25661
  19640755.7124   -9851804.88447  -7615840.74763
  20217132.3064  -19359255.82147 -14746716.16962
 91  5  3 23 11 59.9970000  0  4G 2G15G 6G13
  20246053.6814   -2622639.38248  -1949004.01464
  22941529.884    -6389192.350 5  -4889103.87121
  19638026.6034   -9866144.88147  -7627014.76763
  20208292.4934  -19405707.76947 -14782912.42762
 91  5  3 23 12 14.9970000  0  4G 2G15G 6G13
  20246250.6574   -2621598.77748  -1948193.16164
  22941975.9464   -6386832.46145  -4887264.99061
  19635318.2744   -9880373.73047  -7638102.18063
  20199477.5324  -19452032.17447 -14819009.29562
 91  5  3 23 12 29.9970000  0  4G 2G15G 6G13
  20246458.5794   -2620508.47248  -1947343.58164
  22942451.1574   -6384332.36645  -4885316.86261
  19632632.8844   -9894487.48147  -7649099.90763
  20190687.9854  -19498225.40347 -14855003.95461
 91  5  3 23 12 44.9970000  0  4G 2G15G 6G13
  20246674.2284   -2619379.72348  -1946464.04264
  22942952.759    -6381703.281 5  -4883268.22021
  19629967.6034   -9908497.23747  -7660016.59863
  20181919.7434  -19544298.62147 -14890905.09862
 91  5  3 23 12 59.9970000  0  4G 2G15G 6G13
  20246895.7674   -2618208.14448  -1945551.12864
  22943477.743    -6378940.979 5  -4881115.76821
  19627322.5564   -9922398.38347  -7670848.65963
  20173175.0174  -19590247.01847 -14926708.97861
 91  5  3 23 13 14.9970000  0  4G 2G15G 6G13
  20247126.7204   -2616997.54448  -1944607.81664
  22944027.9464   -6376049.31345  -4878862.52261
  19624696.4154   -9936194.63647  -7681598.98163
  20164455.7514  -19636074.28547 -14962418.47561
 91  5  3 23 13 29.9970000  0  4G 2G15G 6G13
  20247366.1734   -2615740.34848  -1943628.18764
  22944605.985    -6373020.811 5  -4876502.64221
  19622092.2744   -9949878.08047  -7692261.40663
  20155759.4074  -19681772.63947 -14998027.51461
 91  5  3 23 13 44.9970000  0  4G 2G15G 6G13
  20247612.3684   -2614439.11948  -1942614.25464
  22945209.7044   -6369858.12945  -4874038.20561
  19619510.4154   -9963451.15547  -7702837.82963
  20147087.532   -19727344.501 7 -15033537.98721
 91  5  3 23 13 59.9970000  0  4G 2G15G 6G13
  20247867.6964   -2613099.16948  -1941570.14364
  22945835.657    -6366566.456 5  -4871473.24821
  19616947.6264   -9976918.86947  -7713332.14863
  20138437.8144  -19772794.87747 -15068953.79862
 91  5  3 23 14 14.9970000  0  4G 2G15G 6G13
  20248133.1264   -2611714.53548  -1940491.21764
  22946483.665    -6363139.865 5  -4868803.17521
  19614405.5714   -9990275.13647  -7723739.62763
  20129812.3534  -19818117.59547 -15104270.14361
 91  5  3 23 14 29.9970000  0  4G 2G15G 6G13
  20248403.7434   -2610279.06548  -1939372.67364
  22947167.423    -6359572.625 5  -4866023.49121
  19611886.4854  -10003513.65147  -7734055.35263
  20121214.2824  -19863306.27847 -15139482.04362
 91  5  3 23 14 44.9970000  0  4G 2G15G 6G13
  20248686.3924   -2608803.05648  -1938222.54764
  22947868.274    -6355875.062 5  -4863142.26221
  19609386.4464  -10016644.42547  -7744287.12363
  20112638.0644  -19908371.37647 -15174597.64062
 91  5  3 23 14 59.9970000  0  4G 2G15G 6G13
  20248974.2284   -2607283.60448  -1937038.56964
  22948600.1574   -6352044.38945  -4860157.32061
  19606910.1654  -10029664.48647  -7754432.62463
  20104087.1734  -19953309.86047 -15209614.58661
 91  5  3 23 15 14.9970000  0  4G 2G15G 6G13
  20249272.8144   -2605717.47748  -1935818.21964
  22949352.782    -6348077.448 5  -4857066.18421
  19604454.5564  -10042570.38447  -7764489.17063
  20095559.8294  -19998118.12247 -15244530.04861
 91  5  3 23 15 29.9970000  0  4G 2G15G 6G13
  20249578.5954   -2604111.04848  -1934566.46364
  22950135.0324   -6343980.57845  -4853873.80861
  19602018.1734  -10055368.33647  -7774461.59863
  20087056.3374  -20042802.62047 -15279349.07862
 91  5  3 23 15 44.9970000  0  4G 2G15G 6G13
  20249892.8214   -2602457.45848  -1933277.96164
  22950937.7204   -6339746.94645  -4850574.86561
  19599605.0324  -10068051.16347  -7784344.32163
  20078578.5244  -20087356.06147 -15314065.98962
 91  5  3 23 15 59.9970000  0  4G 2G15G 6G13
  20250217.5244   -2600754.94348  -1931951.33664
  22951768.5404   -6335375.25645  -4847168.35961
  19597214.4544  -10080617.00847  -7794135.88763
  20070126.1894  -20131776.57747 -15348679.31662
 91  5  3 23 16 14.9970000  0  4G 2G15G 6G13
  20250550.8684   -2599003.05648  -1930586.23963
  22952630.5324   -6330864.92645  -4843653.81161
  19594845.1964  -10093065.15047  -7803835.73763
  20061697.892   -20176063.507 7 -15383188.56122
 91  5  3 23 16 29.9970000  0  4G 2G15G 6G13
  20250894.9854   -2597193.51948  -1929176.21264
  22953516.509    -6326207.740 5  -4840024.82321
  19592499.6894  -10105387.19847  -7813437.33063
  20053298.0484  -20220208.29647 -15417587.03961
 91  5  3 23 16 44.9970000  0  4G 2G15G 6G13
  20251245.9624   -2595346.68048  -1927737.12764
  22954428.509    -6321424.229 5  -4836297.39621
  19590176.1494  -10117603.21547  -7822956.30463
  20044919.868   -20264231.035 7 -15451890.41821
 91  5  3 23 16 59.9970000  0  4G 2G15G 6G13
  20251604.2124   -2593462.88247  -1926269.23863
  22955361.8294   -6316514.79245  -4832471.85961
  19587871.4154  -10129713.65047  -7832393.00663
  20036565.595   -20308132.216 7 -15486099.07522
 91  5  3 23 17 14.9970000  0  4G 2G15G 6G13
  20251970.8454   -2591537.11647  -1924768.65664
  22956320.509    -6311474.646 5  -4828544.45521
  19585587.7984  -10141713.02847  -7841743.16963
  20028236.8454  -20351906.40147 -15520208.77161
 91  5  3 23 17 29.9970000  0  4G 2G15G 6G13
  20252347.564    -2589558.151 8  -1923226.61524
  22957306.3764   -6306292.47045  -4824506.37661
  19583327.8604  -10153589.90847  -7850997.87563
  20019932.087   -20395542.262 7 -15554210.68921
 91  5  3 23 17 44.9970000  0  4G 2G15G 6G13
  20252731.6494   -2587542.38748  -1921655.90264
  22958314.610    -6300985.090 5  -4820370.75121
  19581087.6574  -10165360.80447  -7860169.99863
  20011652.345   -20439056.370 7 -15588117.73422
 91  5  3 23 17 59.9970000  0  4G 2G15G 6G13
  20253124.2284   -2585483.16248  -1920051.32064
  22959346.7824   -6295545.99745  -4816132.47961
  19578869.4784  -10177018.77847  -7869254.13263
  20003395.759   -20482441.669 7 -15621924.40521
 91  5  3 23 18 14.9970000  0  4G 2G15G 6G13
  20253524.298    -2583379.714 7  -1918412.28224
  22960409.2904   -6289974.36245  -4811790.93361
  19576672.3604  -10188562.70347  -7878249.39463
  19995164.524   -20525697.464 7 -15655630.17021
 91  5  3 23 18 29.9970000  0  4G 2G15G 6G13
  20253930.556    -2581238.385 8  -1916743.72723
  22961496.4234   -6284276.65245  -4807351.15361
  19574496.3994  -10199998.89847  -7887160.71463
  19986957.728   -20568829.891 7 -15689239.79621
 91  5  3 23 18 44.9970000  0  4G 2G15G 6G13
  20254347.8764   -2579049.79148  -1915038.33563
  22962605.618    -6278443.512 6  -4802805.84121
  19572343.0874  -10211317.78747  -7895980.62463
  19978774.681   -20611829.389 7 -15722745.84722
 91  5  3 23 18 59.9970000  0  4G 2G15G 6G13
  20254772.3604   -2576818.35848  -1913299.56563
  22963738.540    -6272479.545 5  -4798158.57221
  19570209.5484  -10222523.67147  -7904712.47663
  19970616.853   -20654700.283 7 -15756151.68122
 91  5  3 23 19 14.9970000  0  4G 2G15G 6G13
  20255207.6964   -2574528.84048  -1911515.53363
  22964902.3604   -6266369.52445  -4793397.52161
  19568102.1494  -10233601.27747  -7913344.37663
  19962485.649   -20697427.032 7 -15789445.20122
 91  5  3 23 19 29.9970000  0  4G 2G15G 6G13
  20255651.3844   -2572196.66848  -1909698.26663
  22966089.2904   -6260128.92745  -4788534.71161
  19566015.4394  -10244565.52847  -7921887.94463
  19954380.399   -20740024.983 7 -15822638.35922
 91  5  3 23 19 44.9970000  0  4G 2G15G 6G13
  20256104.3684   -2569822.52048  -1907848.28664
  22967300.306    -6253758.896 5  -4783571.03821
  19563950.0174  -10255417.09947  -7930343.70663
  19946297.165   -20782494.650 7 -15855731.55422
 91  5  3 23 19 59.9970000  0  4G 2G15G 6G13
  20256565.5644   -2567388.78248  -1905951.87764
  22968543.6734   -6247241.87045  -4778492.84261
  19561910.2284  -10266138.19947  -7938697.80563
  19938243.228   -20824818.398 7 -15888711.04322
 91  5  3 23 20 14.9970000  0  4G 2G15G 6G13
  20257041.3764   -2564894.71748  -1904008.45763
  22969808.9464   -6240577.12345  -4773299.53361
  19559895.6654  -10276727.91947  -7946949.52863
  19930218.532   -20866995.311 7 -15921576.12222
 91  5  3 23 20 29.9970000  0  4G 2G15G 6G13
  20257523.3454   -2562358.88848  -1902032.49363
  22971101.868    -6233783.492 5  -4768005.79421
  19557901.2284  -10287204.68447  -7955113.23363
  19922216.048   -20909043.588 7 -15954340.95422
 91  5  3 23 20 44.9970000  0  4G 2G15G 6G13
  20258012.3844   -2559792.44748  -1900032.67764
  22972418.149    -6226872.108 5  -4762620.29621
  19555927.3924  -10297579.33747  -7963197.37263
  19914236.384   -20950974.295 7 -15987014.18122
 91  5  3 23 20 59.9970000  0  4G 2G15G 6G13
  20258511.5484   -2557169.39148  -1897988.74664
  22973762.157    -6219817.266 5  -4757123.01821
  19553977.0244  -10307825.89547  -7971181.69763
  19906285.462   -20992761.590 7 -16019575.65622
 91  5  3 23 21 14.9970000  0  4G 2G15G 6G13
  20259019.9074   -2554498.80348  -1895907.77763
  22975131.9394   -6212627.93145  -4751520.94461
  19552049.9854  -10317953.06647  -7979072.99363
  19898358.860   -21034414.022 7 -16052032.04522
 91  5  3 23 21 29.9970000  0  4G 2G15G 6G13
  20259535.6894   -2551788.36248  -1893795.75864
  22976523.9784   -6205312.21845  -4745820.38061
  19550143.6654  -10327968.59847  -7986877.29863
  19890456.720   -21075939.262 7 -16084389.32322
 91  5  3 23 21 44.9970000  0  4G 2G15G 6G13
  20260059.3454   -2549036.70548  -1891651.61963
  22977939.735    -6197868.935 5  -4740020.41921
  19548260.3844  -10337871.00847  -7994593.45263
  19882578.564   -21117336.200 7 -16116646.62822
 91  5  3 23 21 59.9970000  0  4G 2G15G 6G13
  20260590.5714   -2546244.76147  -1889476.08864
  22979378.8064   -6190299.11645  -4734121.85861
  19546397.3844  -10347660.82347  -8002221.87363
  19874725.626   -21158605.239 7 -16148804.26822
 91  5  3 23 22 14.9970000  0  4G 2G15G 6G13
  20261130.4234   -2543407.29548  -1887265.08763
  22980842.6034   -6182597.62245  -4728120.68961
  19544556.6494  -10357332.81647  -8009758.48363
  19866897.267   -21199741.143 7 -16180858.16422
 91  5  3 23 22 29.9970000  0  4G 2G15G 6G13
  20261679.267    -2540527.720 8  -1885021.27224
  22982330.5484   -6174767.85045  -4722019.56961
  19542737.7044  -10366890.24147  -8017205.82263
  19859094.485   -21240747.321 7 -16212810.97922
 91  5  3 23 22 44.9970000  0  4G 2G15G 6G13
  20262234.681    -2537602.914 8  -1882742.21524
  22983849.5644   -6166806.79645  -4715816.15161
  19540941.4074  -10376329.73347  -8024561.26263
  19851316.681   -21281620.324 7 -16244660.02322
 91  5  3 23 22 59.9970000  0  4G 2G15G 6G13
  20262801.5324   -2534627.66048  -1880423.84463
  22985389.618    -6158709.384 5  -4709506.49121
  19539168.1344  -10385645.81747  -8031820.54163
  19843564.556   -21322354.795 7 -16276401.11522
 91  5  3 23 23 14.9970000  0  4G 2G15G 6G13
  20263378.3534   -2531596.55648  -1878061.95963
  22986955.7674   -6150470.56345  -4703086.63161
  19537420.2434  -10394833.10347  -8038979.45863
  19835840.048   -21362945.354 7 -16308030.06822
 91  5  3 23 23 29.9970000  0  4G 2G15G 6G13
  20263963.8764   -2528516.54448  -1875661.95763
  22988550.564    -6142097.256 5  -4696561.99721
  19535695.4314  -10403898.46747  -8046043.37663
  19828142.767   -21403398.842 7 -16339552.21222
 91  5  3 23 23 44.9970000  0  4G 2G15G 6G13
  20264557.3144   -2525398.80348  -1873232.56163
  22990165.4154   -6133600.84445  -4689941.41161
  19533992.2824  -10412852.75847  -8053020.73663
  19820469.0244  -21443726.36647 -16370976.20262
 91  5  3 23 23 59.9970000  0  4G 2G15G 6G13
  20265159.189    -2522235.873 8  -1870767.95223
  22991809.3604   -6124974.02845  -4683219.21761
  19532309.9854  -10421688.45047  -8059905.68763
  19812820.220   -21483920.370 7 -16402296.15422
 91  5  3 23 24 14.9970000  0  4G 2G15G 6G13
  20265772.2984   -2519019.24848  -1868261.49963
  22993474.8454   -6116208.43445  -4676388.90261
  19530652.6894  -10430396.82047  -8066691.42363
  19805197.821   -21523972.026 7 -16433505.18122
 91  5  3 23 24 29.9970000  0  4G 2G15G 6G13
  20266390.6654   -2515762.59247  -1865723.86063
  22995168.3844   -6107317.98045  -4669461.27161
  19529016.6184  -10438991.53547  -8073388.60063
  19797600.649   -21563895.042 7 -16464613.97322
 91  5  3 23 24 44.9970000  0  4G 2G15G 6G13
  20267018.8374   -2512460.36147  -1863150.70463
  22996885.360    -6098297.453 5  -4662432.30021
  19527404.6734  -10447466.74147  -8079992.65563
  19790029.798   -21603683.600 7 -16495617.98722
 91  5  3 23 24 59.9970000  0  4G 2G15G 6G13
  20267656.196    -2509117.864 8  -1860546.17224
  22998626.2824   -6089151.96945  -4655305.95061
  19525813.7984  -10455827.60947  -8086507.61463
  19782482.259   -21643342.905 7 -16526521.29422
 91  5  3 23 25 14.9960000  0  4G 2G15G 6G13
  20268300.965    -2505723.840 7  -1857901.49023
  23000387.645    -6079870.824 5  -4648073.90421
  19524246.4184  -10464061.80947  -8092923.87063
  19774963.527   -21682858.624 7 -16557312.71322
 91  5  3 23 25 29.9960000  0  4G 2G15G 6G13
  20268956.0824   -2502287.39647  -1855223.75263
  23002180.699    -6070462.817 5  -4640742.98921
  19522700.9104  -10472180.19347  -8099249.88163
  19767467.637   -21722245.781 7 -16588003.95522
 91  5  3 23 25 44.9960000  0  4G 2G15G 6G13
  20269621.5044   -2498787.71547  -1852496.74063
  23003998.1914   -6060907.67645  -4633297.44061
  19521183.4574  -10480161.10047  -8105468.76863
  19760001.754   -21761480.804 7 -16618576.64822
 91  5  3 23 25 59.9960000  0  4G 2G15G 6G13
  20270295.8714   -2495246.96347  -1849737.72363
  23005841.020    -6051227.501 5  -4625754.46221
  19519686.1604  -10488026.38447  -8111597.55863
  19752559.559   -21800585.513 7 -16649047.79422
 91  5  3 23 26 14.9960000  0  4G 2G15G 6G13
  20270978.4104   -2491655.68247  -1846939.33463
  23007708.004    -6041412.967 5  -4618106.77221
  19518214.4574  -10495766.43147  -8117628.76163
  19745146.496   -21839550.183 7 -16679409.82422
 91  5  3 23 26 29.9960000  0  4G 2G15G 6G13
  20271670.5904   -2488019.04047  -1844105.59763
  23009599.902    -6031469.632 5  -4610358.73821
  19516762.6844  -10503386.30647  -8123566.33163
  19737756.488   -21878380.146 7 -16709666.88422
 91  5  3 23 26 44.9960000  0  4G 2G15G 6G13
  20272372.3954   -2484334.06147  -1841234.19864
  23011518.4654   -6021394.78745  -4602508.21561
  19515336.4024  -10510882.82047  -8129407.77163
  19730393.231   -21917072.196 7 -16739816.47922
 91  5  3 23 26 59.9960000  0  4G 2G15G 6G13
  20273081.574    -2480604.748 8  -1838328.25224
  23013460.9814   -6011192.49245  -4594558.39061
  19513933.8164  -10518259.88147  -8135156.13163
  19723054.738   -21955630.283 7 -16769861.69522
 91  5  3 23 27 14.9960000  0  4G 2G15G 6G13
  20273799.738    -2476825.006 7  -1835383.00923
  23015428.9264   -6000856.60145  -4586504.45461
  19512553.0824  -10525511.29647  -8140806.58463
  19715746.066   -21994048.056 7 -16799797.57022
 91  5  3 23 27 29.9960000  0  4G 2G15G 6G13
  20274529.270    -2472996.381 7  -1832399.68223
  23017416.7154   -5990388.82845  -4578347.75661
  19511197.0904  -10532638.43447  -8146360.20063
  19708461.746   -22032327.168 7 -16829625.40122
 91  5  3 23 27 44.9960000  0  4G 2G15G 6G13
  20275265.7464   -2469124.04647  -1829382.28963
  23019436.1684   -5979794.83945  -4570092.70161
  19509864.3164  -10539646.40647  -8151820.96163
  19701201.996   -22070472.695 7 -16859349.13722
 91  5  3 23 27 59.9960000  0  4G 2G15G 6G13
  20276012.5824   -2465198.32747  -1826323.29864
  23021475.8014   -5969065.06545  -4561731.84961
  19508555.1214  -10546525.37947  -8157181.20463
  19693970.0434  -22108474.82547 -16888961.13262
 91  5  3 23 28 14.9960000  0  4G 2G15G 6G13
  20276768.7314   -2461222.85947  -1823225.54063
  23023543.606    -5958203.186 5  -4553268.06421
  19507269.7854  -10553278.75847  -8162443.57763
  19686765.629   -22146337.053 7 -16918464.11322
 91  5  3 23 28 29.9960000  0  4G 2G15G 6G13
  20277534.5514   -2457200.74847  -1820091.43863
  23025635.231    -5947212.573 5  -4544703.94721
  19506007.5124  -10559909.42147  -8167610.33163
  19679586.176   -22184062.419 7 -16947860.45422
 91  5  3 23 28 44.9960000  0  4G 2G15G 6G13
  20278308.4344   -2453137.79747  -1816925.50963
  23027750.012    -5936099.255 5  -4536044.23321
  19504768.0044  -10566423.29747  -8172686.08463
  19672432.527   -22221656.720 7 -16977154.66122
 91  5  3 23 28 59.9960000  0  4G 2G15G 6G13
  20279090.9184   -2449027.45647  -1813722.65463
  23029888.7234   -5924856.88745  -4527283.95661
  19503551.6524  -10572813.75847  -8177665.66463
  19665305.191   -22259113.505 7 -17006341.71622
 91  5  3 23 29 14.9960000  0  4G 2G15G 6G13
  20279883.0044   -2444863.50747  -1810478.02763
  23032056.363    -5913479.126 5  -4518418.17921
  19502360.5044  -10579074.29047  -8182544.00863
  19658203.840   -22296426.346 7 -17035416.60422
 91  5  3 23 29 29.9960000  0  4G 2G15G 6G13
  20280683.5434   -2440653.63847  -1807197.61663
  23034245.481    -5901974.318 5  -4509453.40521
  19501193.1684  -10585212.47047  -8187327.01163
  19651130.434   -22333602.698 7 -17064385.14122
 91  5  3 23 29 44.9960000  0  4G 2G15G 6G13
  20281493.8874   -2436395.45847  -1803879.56463
  23036455.676    -5890339.836 5  -4500387.59221
  19500048.9734  -10591225.86047  -8192012.77163
  19644082.348   -22370639.931 7 -17093245.27122
 91  5  3 23 29 59.9960000  0  4G 2G15G 6G13
  20282316.1374   -2432080.92047  -1800517.59063
  23038696.723    -5878568.083 5  -4491214.81221
  19498928.3874  -10597106.21147  -8196594.86963
  19637061.090   -22407530.328 7 -17121990.98222
 91  5  3 23 30 14.9960000  0  4G 2G15G 6G13
  20283143.5044   -2427726.47847  -1797124.52563
  23040958.191    -5866675.596 5  -4481947.94821
  19497833.0204  -10602869.89847  -8201086.05663
  19630067.051   -22444290.133 7 -17150634.93822
 91  5  3 23 30 29.9960000  0  4G 2G15G 6G13
  20283981.2854   -2423330.41747  -1793699.03063
  23043247.3874   -5854660.89045  -4472585.86361
  19496757.9734  -10608514.97347  -8205484.81963
  19623096.410   -22480917.532 7 -17179175.71722
 91  5  3 23 30 44.9960000  0  4G 2G15G 6G13
  20284826.8954   -2418878.48447  -1790229.99663
  23045558.356    -5842509.996 5  -4463117.64021
  19495710.2314  -10614027.16947  -8209780.04063
  19616154.645   -22517398.311 7 -17207602.25322
 91  5  3 23 30 59.9960000  0  4G 2G15G 6G13
  20285685.9574   -2414371.44847  -1786718.02663
  23047897.4654   -5830223.68145  -4453543.92561
  19494684.1524  -10619407.23947  -8213972.31063
  19609240.527   -22553732.986 7 -17235914.93922
 91  5  3 23 31 14.9960000  0  3G 2G 6G13
  20286552.5904   -2409816.53047  -1783168.74563
  19493685.9574  -10624662.24647  -8218067.12763
  19602352.004   -22589928.819 7 -17264119.43522
 91  5  3 23 31 29.9960000  0  3G 2G 6G13
  20287426.2384   -2405223.54947  -1779589.80663
  19492708.2384  -10629801.90547  -8222072.06263
  19595488.809   -22625995.877 7 -17292223.59022
 91  5  3 23 31 44.9960000  0  3G 2G 6G13
  20288308.2774   -2400589.18047  -1775978.61663
  19491751.2384  -10634822.81647  -8225984.46563
  19588650.074   -22661930.555 7 -17320224.58822
 91  5  3 23 31 59.9960000  0  3G 2G 6G13
  20289199.0984   -2395907.99147  -1772330.94363
  19490819.8014  -10639719.39147  -8229799.98163
  19581838.231   -22697727.282 7 -17348118.08922
 91  5  3 23 32 14.9960000  0  3G 2G 6G13
  20290099.1064   -2391180.57847  -1768647.24963
  19489912.9414  -10644492.08047  -8233518.96563
  19575053.223   -22733386.609 7 -17375904.53122
 91  5  3 23 32 29.9960000  0  3G 2G 6G13
  20291005.9024   -2386405.52747  -1764926.43763
  19489028.3094  -10649139.34247  -8237140.21063
  19568293.207   -22768906.966 7 -17403582.68022
 91  5  3 23 32 44.9960000  0  3G 2G 6G13
  20291925.3014   -2381576.83147  -1761163.82463
  19488168.8634  -10653655.10447  -8240658.98863
  19561562.363   -22804282.265 7 -17431147.80022
 91  5  3 23 32 59.9960000  0  3G 2G 6G13
  20292853.1604   -2376704.35147  -1757367.09563
  19487333.1524  -10658048.94347  -8244082.76463
  19554855.996   -22839522.224 7 -17458607.46022
 91  5  3 23 33 14.9960000  0  3G 2G 6G13
  20293787.6064   -2371787.24247  -1753535.59063
  19486520.3634  -10662320.08847  -8247410.93263
  19548176.496   -22874626.025 7 -17485961.02522
 91  5  3 23 33 29.9960000  0  3G 2G 6G13
  20294735.8874   -2366805.42847  -1749653.66463
  19485734.9654  -10666448.42647  -8250627.82663
  19541526.496   -22909573.756 7 -17513192.97722
 91  5  3 23 33 44.9960000  0  3G 2G 6G13
  20295691.5124   -2361790.36347  -1745745.83063
  19484968.8324  -10670465.18047  -8253757.76863
  19534899.488   -22944396.792 7 -17540327.76522
 91  5  3 23 33 59.9960000  0  3G 2G 6G13
  20296655.1994   -2356732.99247  -1741805.03063
  19484227.3244  -10674361.28747  -8256793.69963
  19528298.481   -22979086.001 7 -17567358.26622
 91  5  3 23 34 14.9960000  0  3G 2G 6G13
  20297626.4494   -2351624.33647  -1737824.26563
  19483511.3794  -10678127.74147  -8259728.60463
  19521723.801   -23013632.465 7 -17594277.54822
 91  5  3 23 34 29.9960000  0  3G 2G 6G13
  20298609.402    -2346455.188 7  -1733796.37223
  19482821.8874  -10681755.06947  -8262555.10063
  19515178.574   -23048026.767 7 -17621078.25422
 91  5  3 23 34 44.9960000  0  3G 2G 6G13
  20299601.1844   -2341243.65447  -1729735.44663
  19482153.8094  -10685261.40247  -8265287.31463
  19508659.191   -23082287.181 7 -17647774.63622
 91  5  3 23 34 59.9960000  0  3G 2G 6G13
  20300600.691    -2335991.957 7  -1725643.22623
  19481508.6764  -10688648.80247  -8267926.85763
  19502164.731   -23116415.526 7 -17674368.10922
 91  5  3 23 35 14.9960000  0  3G 2G 6G13
  20301608.7934   -2330693.32447  -1721514.43163
  19480889.0354  -10691910.39647  -8270468.35863
  19495696.066   -23150405.224 7 -17700853.54022
 91  5  3 23 35 29.9960000  0  3G 2G 6G13
  20302630.324    -2325327.953 7  -1717333.63723
  19480295.0124  -10695026.30247  -8272896.34963
  19489258.637   -23184236.554 7 -17727215.56822
 91  5  3 23 35 44.9960000  0  3G 2G 6G13
  20303659.309    -2319917.706 7  -1713117.87323
  19479727.1914  -10698018.40247  -8275227.86463
  19482846.809   -23217931.349 7 -17753471.20522
 91  5  3 23 35 59.9960000  0  3G 2G 6G13
  20304697.543    -2314459.744 7  -1708864.92523
  19479181.5124  -10700883.51147  -8277460.43063
  19476460.699   -23251486.509 7 -17779618.03422
 91  5  3 23 36 14.9960000  0  3G 2G 6G13
  20305746.238    -2308955.758 7  -1704576.12023
  19478659.6994  -10703623.37647  -8279595.39463
  19470102.395   -23284903.584 7 -17805657.26922
 91  5  3 23 36 29.9960000  0  3G 2G 6G13
  20306801.402    -2303404.195 7  -1700250.24223
  19478164.3014  -10706236.28447  -8281631.43463
  19463770.434   -23318181.097 7 -17831587.75122
 91  5  3 23 36 44.9960000  0  3G 2G 6G13
  20307864.941    -2297815.594 7  -1695895.49923
  19477688.2384  -10708732.67147  -8283576.68263
  19457461.535   -23351329.493 7 -17857417.62222
 91  5  3 23 36 59.9960000  0  3G 2G 6G13
  20308936.527    -2292188.703 7  -1691510.92523
  19477234.7774  -10711111.38747  -8285430.23363
  19451178.598   -23384347.713 7 -17883146.06122
 91  5  3 23 37 14.9960000  0  3G 2G 6G13
  20310016.957    -2286512.962 7  -1687088.28523
  19476805.4344  -10713361.66147  -8287183.69763
  19444922.270   -23417225.085 7 -17908764.74722
 91  5  3 23 37 29.9960000  0  3G 2G 6G13
  20311106.301    -2280790.263 7  -1682629.05523
  19476401.3324  -10715485.38747  -8288838.55963
  19438692.918   -23449963.614 7 -17934275.24122
 91  5  3 23 37 44.9960000  0  3G 2G 6G13
  20312202.934    -2275026.582 7  -1678137.89023
  19476020.5124  -10717488.31147  -8290399.28963
  19432487.949   -23482569.064 7 -17959682.03922
 91  5  3 23 37 59.9960000  0  3G 2G 6G13
  20313308.754    -2269217.317 7  -1673611.21023
  19475662.9734  -10719365.86647  -8291862.32563
  19426309.402   -23515037.008 7 -17984981.69322
 91  5  3 23 38 14.9960000  0  3G 2G 6G13
  20314422.348    -2263365.196 7  -1669051.13423
  19475329.0044  -10721120.77947  -8293229.79963
  19420156.566   -23547370.118 7 -18010176.27822
 91  5  3 23 38 29.9960000  0  3G 2G 6G13
  20315547.387    -2257448.267 7  -1664440.55723
  19475022.4884  -10722730.87647  -8294484.42763
  19414033.395   -23579546.093 7 -18035248.42322
 91  5  3 23 38 44.9960000  0  3G 2G 6G13
  20316683.184    -2251477.521 7  -1659788.04423
  19474741.9884  -10724207.16047  -8295634.78163
  19407939.051   -23611576.105 7 -18060206.82922
 91  5  3 23 38 59.9960000  0  3G 2G 6G13
  20317826.434    -2245466.052 7  -1655103.80323
  19474485.6684  -10725562.65147  -8296691.01163
  19401868.0664  -23643473.45547 -18085061.86562
 91  5  3 23 39 14.9960000  0  3G 2G 6G13
  20318980.301    -2239404.231 7  -1650380.32623
  19474253.0664  -10726787.74147  -8297645.63363
  19395825.934   -23675228.459 7 -18109805.97922
 91  5  3 23 39 29.9960000  0  3G 2G 6G13
  20320144.996    -2233290.146 7  -1645616.12323
  19474043.3954  -10727880.34647  -8298497.02363
  19389810.277   -23706839.117 7 -18134437.61922
 91  5  3 23 39 44.9960000  0  3G 2G 6G13
  20321314.152    -2227141.058 7  -1640824.64623
  19473860.2624  -10728857.75547  -8299258.64863
  19383818.379   -23738322.645 7 -18158970.19422
 91  5  3 23 39 59.9960000  0  3G 2G 6G13
  20322492.566    -2220955.032 7  -1636004.38623
  19473692.4184  -10729717.83747  -8299928.84963
  19377853.113   -23769677.364 7 -18183402.40122
 91  5  3 23 40 14.9960000  0  3G 2G 6G13
  20323677.801    -2214717.291 7  -1631143.82923
  19473556.4414  -10730445.77647  -8300496.07763
  19371913.246   -23800888.226 7 -18207722.50922
 91  5  3 23 40 29.9960000  0  3G 2G 6G13
  20324877.129    -2208424.736 7  -1626240.56123
  19473442.2384  -10731038.38647  -8300957.85763
  19366002.254   -23831951.900 7 -18231927.92622
 91  5  3 23 40 44.9960000  0  3G 2G 6G13
  20326081.020    -2202088.402 7  -1621303.17423
  19473354.4104  -10731506.51847  -8301322.64663
  19360115.566   -23862879.479 7 -18256027.29422
 91  5  3 23 40 59.9960000  0  3G 2G 6G13
  20327297.832    -2195702.256 7  -1616326.97523
  19473286.9184  -10731844.30947  -8301585.86763
  19354257.645   -23893665.337 7 -18280016.23422
 91  5  3 23 41 14.9960000  0  3G 2G 6G13
  20328522.543    -2189264.254 7  -1611310.36723
  19473249.2074  -10732049.71547
  19348426.895   -23924307.357 7 -18303893.09122
 91  5  3 23 41 29.9960000  0  3G 2G 6G13
  20329757.168    -2182767.983 7  -1606248.35523
  19473239.3404  -10732116.08747
  19342624.504   -23954798.879 7 -18327652.67322
 91  5  3 23 41 44.9960000  0  3G 2G 6G13
  20331002.793    -2176228.964 7  -1601153.03423
  19473248.7934  -10732059.01747
  19336848.012   -23985155.703 7 -18351307.29922
 91  5  3 23 41 59.9960000  0  3G 2G 6G13
  20332258.402    -2169634.370 7  -1596014.40823
  19473283.1134  -10731865.57647
  19331098.785   -24015364.985 7 -18374846.95622
 91  5  3 23 42 14.9960000  0  3G 2G 6G13
  20333524.004    -2162985.996 7  -1590833.87623
  19473347.3634  -10731537.34647
  19325377.809   -24045428.456 7 -18398272.99322
 91  5  3 23 42 29.9960000  0  3G 2G 6G13
  20334796.246    -2156298.812 7  -1585623.09823
  19473430.3094  -10731089.26647  -8300997.55863
  19319682.941   -24075360.861 7 -18421596.90022
 91  5  3 23 42 44.9960000  0  3G 2G 6G13
  20336077.629    -2149566.415 7  -1580377.09323
  19473539.4884  -10730514.95747  -8300550.05063
  19314012.3954  -24105155.80147 -18444813.69962
 91  5  3 23 42 59.9960000  0  3G 2G 6G13
  20337365.238    -2142802.247 7  -1575106.32923
  19473673.6064  -10729827.78447  -8300014.59663
  19308365.4104  -24134826.79847 -18467933.91662
 91  5  3 23 43 14.9960000  0  3G 2G 6G13
  20338660.988    -2135986.301 7  -1569795.22423
  19473828.1684  -10729007.74547  -8299375.61363
  19302747.020   -24164354.130 7 -18490942.17922
 91  5  3 23 43 29.9960000  0  3G 2G 6G13
  20339968.082    -2129112.777 7  -1564439.24923
  19474012.2774  -10728048.94147  -8298628.50263
  19297156.9494  -24193731.64547 -18513833.71362
 91  5  3 23 43 44.9960000  0  3G 2G 6G13
  20341283.457    -2122198.163 7  -1559051.25623
  19474219.5204  -10726967.94747  -8297786.17763
  19291591.848   -24222976.128 7 -18536621.57722
 91  5  3 23 43 59.9960000  0  3G 2G 6G13
  20342610.738    -2115233.607 7  -1553624.34423
  19474447.7234  -10725755.94147  -8296841.76563
  19286053.6214  -24252078.96347 -18559299.07162
 91  5  3 23 44 14.9960000  0  3G 2G 6G13
  20343944.520    -2108223.283 7  -1548161.76923
  19474701.7464  -10724416.98047  -8295798.42463
  19280542.246   -24281044.203 7 -18581869.34922
 91  5  3 23 44 29.9960000  0  3G 2G 6G13
  20345288.176    -2101153.532 7  -1542652.88623
  19474986.3954  -10722937.34547  -8294645.46863
  19275058.7544  -24309858.21547 -18604321.78262
 91  5  3 23 44 44.9960000  0  3G 2G 6G13
  20346645.324    -2094034.274 7  -1537105.42623
  19475289.6294  -10721326.79247  -8293390.50663
  19269603.090   -24338530.841 7 -18626664.04822
 91  5  3 23 44 59.9960000  0  3G 2G 6G13
  20348009.0984   -2086854.15647  -1531510.53863
  19475626.1134  -10719574.05547  -8292024.74463
  19264174.691   -24367050.704 7 -18648887.27622
 91  5  3 23 45 14.9960000  0  3G 2G 6G13
  20349387.574    -2079623.732 7  -1525876.45823
  19475982.262   -10717689.539 7  -8290556.30323
  19258775.5434  -24395428.49547 -18670999.80362
 91  5  3 23 45 29.9960000  0  3G 2G 6G13
  20350768.426    -2072352.124 7  -1520210.28823
  19476366.590   -10715682.157 7  -8288992.12123
  19253400.8324  -24423673.14147 -18693008.57562
 91  5  3 23 45 44.9960000  0  3G 2G 6G13
  20352164.816    -2065027.039 7  -1514502.44423
  19476771.4184  -10713539.75747  -8287322.73063
  19248054.2074  -24451772.38947 -18714904.05762
 91  5  3 23 45 59.9960000  0  3G 2G 6G13
  20353567.066    -2057658.386 7  -1508760.65623
  19477205.0354  -10711272.28647  -8285555.88063
  19242732.2544  -24479736.39747 -18736694.15562
 91  5  3 23 46 14.9960000  0  3G 2G 6G13
  20354974.957    -2050249.246 7  -1502987.31623
  19477660.1064  -10708882.71247  -8283693.88363
  19237436.121   -24507568.298 7 -18758381.31022
 91  5  3 23 46 29.9960000  0  3G 2G 6G13
  20356394.496    -2042792.666 7  -1497177.01123
  19478138.8014  -10706364.12147  -8281731.35763
  19232165.7934  -24535261.13847 -18779960.10862
 91  5  3 23 46 44.9960000  0  3G 2G 6G13
  20357823.910    -2035285.045 7  -1491326.93523
  19478641.895   -10703712.915 7  -8279665.49323
  19226922.7074  -24562811.45147 -18801427.84562
 91  5  3 23 46 59.9960000  0  3G 2G 6G13
  20359262.723    -2027727.116 7  -1485437.65823
  19479170.6214  -10700929.69147  -8277496.76063
  19221707.5904  -24590219.80147 -18822784.96762
 91  5  3 23 47 14.9960000  0  3G 2G 6G13
  20360711.113    -2020115.857 7  -1479506.82723
  19479726.293   -10698011.421 7  -8275222.79723
  19216519.0744  -24617483.33547 -18844029.24162
 91  5  3 23 47 29.9960000  0  3G 2G 6G13
  20362168.035    -2012462.020 7  -1473542.82023
  19480305.512   -10694968.895 7  -8272852.01023
  19211356.8244  -24644612.85747 -18865169.09262
 91  5  3 23 47 44.9960000  0  3G 2G 6G13
  20363632.332    -2004766.326 7  -1467546.19723
  19480908.3164  -10691802.80847  -8270384.94263
  19206219.4414  -24671609.02047 -18886205.03662
 91  5  3 23 47 59.9960000  0  3G 2G 6G13
  20365104.559    -1997023.421 7  -1461512.78823
  19481534.8404  -10688507.76047  -8267817.38263
  19201108.5204  -24698466.44147 -18907132.86262
 91  5  3 23 48 14.9960000  0  3G 2G 6G13
  20366588.051    -1989224.339 7  -1455435.60423
  19482190.840   -10685074.551 7  -8265142.17023
  19196025.5744  -24725176.16747 -18927945.60562
 91  5  3 23 48 29.9960000  0  3G 2G 6G13
  20368081.754    -1981370.823 7  -1449316.00523
  19482869.738   -10681505.277 7  -8262360.93123
  19190970.8794  -24751740.21747 -18948644.83462
 91  5  3 23 48 44.9960000  0  3G 2G 6G13
  20369587.949    -1973470.962 7  -1443160.29523
  19483572.121   -10677807.808 7  -8259479.80123
  19185942.3244  -24778166.58847 -18969236.78162
 91  5  3 23 48 59.9960000  0  3G 2G 6G13
  20371097.785    -1965532.370 7  -1436974.40023
  19484298.0904  -10673989.95147  -8256504.85563
  19180937.8324  -24804463.19847 -18989727.61162
 91  5  3 23 49 14.9960000  0  3G 2G 6G13
  20372617.574    -1957537.461 7  -1430744.62123
  19485052.793   -10670034.008 7  -8253422.32423
  19175962.4884  -24830612.58347 -19010103.72462
 91  5  3 23 49 29.9960000  0  3G 2G 6G13
  20374153.402    -1949480.437 7  -1424466.44423
  19485831.637   -10665934.140 7  -8250227.63723
  19171014.1914  -24856608.97947 -19030360.62162
 91  5  3 23 49 44.9960000  0  3G 2G 6G13
  20375689.934    -1941392.548 7  -1418164.21123
  19486635.434   -10661721.393 7  -8246944.99123
  19166092.1374  -24882483.38347 -19050522.46562
 91  5  3 23 49 59.9960000  0  3G 2G 6G13
  20377239.066    -1933265.730 7  -1411831.65023
  19487457.535   -10657387.869 7  -8243568.23423
  19161192.4184  -24908227.94147 -19070583.12562
 91  5  3 23 50 14.9960000  0  3G 2G 6G13
  20378794.699    -1925079.691 7  -1405452.93823
  19488311.895   -10652913.276 7  -8240081.55223
  19156320.7934  -24933822.75947 -19090527.10562
 91  5  3 23 50 29.9960000  0  3G 2G 6G13
  20380363.856    -1916838.731 7  -1399031.43023
  19489187.152   -10648301.872 7  -8236488.26223
  19151478.5594  -24959271.70547 -19110357.41962
 91  5  3 23 50 44.9960000  0  3G 2G 6G13
  20381942.387    -1908551.303 7  -1392573.71223
  19490088.145   -10643561.961 7  -8232794.84123
  19146661.9104  -24984583.37647 -19130080.77162
 91  5  3 23 50 59.9960000  0  3G 2G 6G13
  20383524.316    -1900223.023 7  -1386084.16423
  19491015.0354  -10638699.30147  -8229005.76463
  19141870.7074  -25009763.43147 -19149701.56162
 91  5  3 23 51 14.9960000  0  3G 2G 6G13
  20385119.277    -1891838.751 7  -1379550.98223
  19491968.2934  -10633698.74047  -8225109.23863
  19137107.3794  -25034796.92247 -19169208.14662
 91  5  3 23 51 29.9960000  0  3G 2G 6G13
  20386723.606    -1883414.101 7  -1372986.34023
  19492942.7704  -10628575.71847  -8221117.28363
  19132367.3874  -25059699.29747 -19188612.56062
 91  5  3 23 51 44.9960000  0  3G 2G 6G13
  20388335.559    -1874942.651 7  -1366385.22823
  19493941.098   -10623324.094 7  -8217025.12323
  19127655.7544  -25084464.44947 -19207910.05262
 91  5  3 23 51 59.9960000  0  3G 2G 6G13
  20389959.012    -1866419.511 7  -1359743.83623
  19494964.691   -10617938.752 7  -8212828.76623
  19122969.8634  -25109087.48647 -19227096.80162
 91  5  3 23 52 14.9960000  0  3G 2G 6G13
  20391590.606    -1857845.022 7  -1353062.43023
  19496013.621   -10612420.076 7  -8208528.51323
  19118311.6914  -25133568.81847 -19246173.13062
 91  5  3 23 52 29.9960000  0  3G 2G 6G13
  20393230.184    -1849226.397 7  -1346346.63823
  19497090.137   -10606775.464 7  -8204130.13723
  19113677.2854  -25157915.74247 -19265144.72762
 91  5  3 23 52 44.9960000  0  3G 2G 6G13
  20394876.754    -1840566.203 7  -1339598.44723
  19498188.246   -10601007.322 7  -8199635.49423
  19109070.6294  -25182130.81047 -19284013.57862
 91  5  3 23 52 59.9960000  0  3G 2G 6G13
  20396533.074    -1831862.500 7  -1332816.35523
  19499312.121   -10595113.580 7  -8195042.98223
  19104486.3714  -25206212.11047 -19302778.19362
 91  5  3 23 53 14.9960000  0  3G 2G 6G13
  20398204.324    -1823093.894 7  -1325983.69023
  19500457.918   -10589073.135 7  -8190336.15723
  19099933.8014  -25230138.66347 -19321422.23062
 91  5  3 23 53 29.9960000  0  3G 2G 6G13
  20399883.824    -1814268.928 7  -1319107.10823
  19501633.340   -10582894.393 7  -8185521.56623
  19095408.4184  -25253918.84547 -19339952.21062
 91  5  3 23 53 44.9960000  0  3G 2G 6G13
  20401566.543    -1805408.228 7  -1312202.68223
  19502833.402   -10576598.178 7  -8180615.44223
  19090907.9654  -25277573.49647 -19358384.37562
 91  5  3 23 53 59.9960000  0  3G 2G 6G13
  20403265.301    -1796498.213 7  -1305259.82923
  19504054.691   -10570170.771 7  -8175607.09223
  19086432.941   -25301089.400 7 -19376708.41522
 91  5  3 23 54 14.9960000  0  3G 2G 6G13
  20404968.5044   -1787539.54147  -1298279.05563
  19505302.809   -10563612.782 7  -8170496.98923
  19081983.9414  -25324466.81447 -19394924.54862
 91  5  3 23 54 29.9960000  0  3G 2G 6G13
  20406682.254    -1778537.648 7  -1291264.60823
  19506574.434   -10556929.506 7  -8165289.25223
  19077560.8714  -25347711.13947 -19413036.98062
 91  5  3 23 54 44.9960000  0  3G 2G 6G13
  20408402.184    -1769494.762 7  -1284218.22023
  19507871.098   -10550123.493 7  -8159985.88423
  19073161.4654  -25370825.12147 -19431047.84162
 91  5  3 23 54 59.9960000  0  3G 2G 6G13
  20410137.410    -1760386.290 7  -1277120.72123
  19509191.856   -10543170.084 7  -8154567.65823
  19068793.1454  -25393784.09447 -19448937.92462
 91  5  3 23 55 14.9960000  0  3G 2G 6G13
  20411877.824    -1751222.383 7  -1269980.03223
  19510544.520   -10536079.561 7  -8149042.58723
  19064451.7074  -25416598.58847 -19466715.42262
 91  5  3 23 55 29.9960000  0  3G 2G 6G13
  20413631.270    -1742016.388 7  -1262806.54523
  19511915.426   -10528865.168 7  -8143420.99623
  19060135.7464  -25439281.73947 -19484390.57062
 91  5  3 23 55 44.9960000  0  3G 2G 6G13
  20415391.520    -1732773.709 7  -1255604.47623
  19513309.621   -10521532.418 7  -8137707.18123
  19055842.0594  -25461839.18447 -19501967.77162
 91  5  3 23 55 59.9960000  0  3G 2G 6G13
  20417158.981    -1723483.958 7  -1248365.72423
  19514729.856   -10514070.834 7  -8131892.97523
  19051575.4814  -25484260.55247 -19519438.94162
 91  5  3 23 56 14.9960000  0  3G 2G 6G13
  20418936.434    -1714137.549 7  -1241082.82723
  19516177.9654  -10506470.97547  -8125971.02063
  19047336.3324  -25506536.38847 -19536796.70262
 91  5  3 23 56 29.9960000  0  3G 2G 6G13
  20420725.723    -1704726.601 7  -1233749.64223
  19517653.3094  -10498724.71947  -8119934.98963
  19043126.8484  -25528658.57047 -19554034.73662
 91  5  3 23 56 44.9960000  0  3G 2G 6G13
  20422526.066    -1695271.878 7  -1226382.33923
  19519150.590   -10490853.102 7  -8113801.27823
  19038942.6524  -25550648.29247 -19571169.55262
 91  5  3 23 56 59.9960000  0  3G 2G 6G13
  20424333.973    -1685767.611 7  -1218976.43823
  19520673.145   -10482850.321 7  -8107565.36023
  19034785.3404  -25572499.80347 -19588196.68062
 91  5  3 23 57 14.9960000  0  3G 2G 6G13
  20426154.270    -1676204.501 7  -1211524.67823
  19522222.113   -10474706.978 7  -8101219.91523
  19030654.3874  -25594203.90447 -19605108.93562
 91  5  3 23 57 29.9950000  0  3G 2G 6G13
  20427987.140    -1666586.647 7  -1204030.26322
  19523795.874   -10466427.353 7  -8094768.27323
  19026551.5854  -25615762.85047 -19621908.08062
 91  5  3 23 57 44.9950000  0  3G 2G 6G13
  20429826.991    -1656919.905 7  -1196497.75222
  19525395.562   -10458017.346 7  -8088215.03523
  19022474.6404  -25637186.81747 -19638602.05162
 91  5  3 23 57 59.9950000  0  3G 2G 6G13
  20431676.421    -1647189.779 7  -1188915.85322
  19527026.3354  -10449462.42247  -8081548.87363
  19018427.0234  -25658459.04947 -19655177.78462
 91  5  3 23 58 14.9950000  0  3G 2G 6G13
  20433535.015    -1637417.413 7  -1181301.04122
  19528678.733   -10440783.770 7  -8074786.30023
  19014403.8984  -25679601.04847 -19671652.03962
 91  5  3 23 58 29.9950000  0  3G 2G 6G13
  20435405.148    -1627601.713 7  -1173652.45922
  19530351.1554  -10431980.41447  -8067926.55263
  19010405.4214  -25700611.64647 -19688023.90362
 91  5  3 23 58 44.9950000  0  3G 2G 6G13
  20437280.523    -1617734.881 7  -1165964.03622
  19532052.366   -10423044.379 7  -8060963.42023
  19006434.7184  -25721483.36047 -19704287.54762
 91  5  3 23 58 59.9950000  0  3G 2G 6G13
  20439169.890    -1607815.019 7  -1158234.28922
  19533779.655   -10413973.985 7  -8053895.59623
  19002489.0074  -25742214.32447 -19720441.51462
 91  5  3 23 59 14.9950000  0  3G 2G 6G13
  20441067.765    -1597842.050 7  -1150463.16422
  19535530.1324  -10404769.22847  -8046723.06863
  18998570.3124  -25762804.59547 -19736485.84162
 91  5  3 23 59 29.9950000  0  3G 2G 6G13
  20442973.569    -1587824.870 7  -1142657.58822
  19537305.0234  -10395439.06547  -8039452.82463
  18994677.4764  -25783263.21847 -19752427.59862
 91  5  3 23 59 44.9950000  0  3G 2G 6G13
  20444885.468    -1577762.052 7  -1134816.45322
  19539107.0304  -10385981.95747  -8032083.66363
  18990810.3584  -25803588.73147 -19768265.63162
 91  5  3 23 59 59.9950000  0  3G 2G 6G13
  20446815.210    -1567643.339 7  -1126931.76322
  19540928.835   -10376387.764 7  -8024607.68423
  18986968.7494  -25823771.18747 -19783992.18962
 91  5  4  0  0 14.9950000  0  4G 2G12G 6G13
  20448746.569    -1557485.490 7  -1119016.57422
  22844032.2884         -0.94255
  19542779.030   -10366673.272 7  -8017037.96423
  18983151.8984  -25843827.32747 -19799620.32362
 91  5  4  0  0 29.9950000  0  4G 2G12G 6G13
  20450686.913    -1547280.634 7  -1111064.76022
  22832374.0624     -61262.92645
  19544653.6874  -10356830.62047  -8009368.37463
  18979361.8354  -25863749.14547 -19815143.79062
 91  5  4  0  0 44.9950000  0  4G 2G12G 6G13
  20452639.827    -1537024.572 7  -1103073.04822
  22820717.952     -122515.028 5        -0.45731
  19546552.1554  -10346855.71947  -8001595.73863
  18975596.1164  -25883532.78547 -19830559.58462
 91  5  4  0  0 59.9950000  0  4G 2G12G 6G13
  20454600.749    -1526721.013 7  -1095044.31922
  22809063.913     -183760.654 5    -47724.20221
  19548473.530   -10336752.257 7  -7993722.92423
  18971857.5854  -25903181.93547 -19845870.58362
 91  5  4  0  1 14.9950000  0  4G 2G12G 6G13
  20456571.304    -1516372.680 7
  22797408.452     -245002.535 5    -95445.04421
  19550419.171   -10326523.104 7
  18968142.6874  -25922699.87947 -19861079.34162
 91  5  4  0  1 29.9950000  0  4G 2G12G 6G13
  20458553.374    -1505958.319 7
  22785760.6404    -306218.97945   -143146.05861
  19552393.741   -10316147.073 7
  18964457.6164  -25942065.49347 -19876169.40462
 91  5  4  0  1 44.9950000  0  4G 2G12G 6G13
  20460545.1714   -1495487.74247
  22774114.054     -367419.605 5   -190834.74021
  19554394.202   -10305633.942 7
  18960800.7024  -25961288.67747 -19891148.48462
 91  5  4  0  1 59.9950000  0  4G 2G12G 6G13
  20462545.671    -1484971.542 7  -1062512.35722
  22762465.7414    -428614.70245   -238519.13061
  19556419.741   -10294994.324 7  -7961184.33623
  18957167.8584  -25980379.81447 -19906024.66862
 91  5  4  0  2 14.9950000  0  4G 2G12G 6G13
  20464556.749    -1474399.398 7  -1054274.34622
  22750828.444     -489793.586 5   -286190.86521
  19558471.898   -10284218.015 7  -7952787.22723
  18953560.5304  -25999328.78447 -19920790.06862
 91  5  4  0  2 29.9950000  0  4G 2G12G 6G13
  20466578.960    -1463768.202 7  -1045990.32022
  22739188.0304    -550953.25845   -333847.64661
  19560550.116   -10273302.066 7  -7944281.31022
  18949982.718   -26018132.922 7 -19935442.62022
 91  5  4  0  2 44.9950000  0  4G 2G12G 6G13
  20468615.905    -1453079.410 7  -1037661.41722
  22727552.452     -612094.711 5   -381490.24321
  19562651.733   -10262247.935 7  -7935667.72023
  18946431.476   -26036793.437 7 -19949983.25822
 91  5  4  0  2 59.9950000  0  4G 2G12G 6G13
  20470660.671    -1442339.481 7  -1029292.66222
  22715919.569     -673224.251 5   -429123.54221
  19564778.905   -10251062.095 7  -7926951.50422
  18942906.710   -26055317.051 7 -19964417.21722
 91  5  4  0  3 14.9950000  0  4G 2G12G 6G13
  20472711.5074   -1431542.46347  -1020879.42462
  22704289.4524    -734335.55845   -476742.65661
  19566936.304   -10239738.656 7  -7918128.06323
  18939408.7964  -26073698.12447 -19978740.10462
 91  5  4  0  3 29.9950000  0  4G 2G12G 6G13
  20474777.2804   -1420696.77547  -1012428.27062
  22692662.4524    -795436.68645   -524353.82461
  19569113.499   -10228286.027 7  -7909203.95723
  18935936.890   -26091944.914 7 -19992958.35822
 91  5  4  0  3 44.9950000  0  4G 2G12G 6G13
  20476852.0934   -1409792.34647  -1003931.33762
  22681039.601     -856517.600 5   -571949.25221
  19571320.038   -10216694.415 7  -7900171.54722
  18932491.765   -26110047.811 7 -20007064.48422
 91  5  4  0  3 59.9950000  0  4G 2G12G 6G13
  20478935.0384   -1398846.42547   -995402.07762
  22669419.3824    -917595.44145   -619542.29761
  19573550.116   -10204981.214 7  -7891044.39522
  18929071.554   -26128024.355 7 -20021072.15722
 91  5  4  0  4 14.9950000  0  4G 2G12G 6G13
  20481027.194    -1387847.500 7   -986831.51222
  22657798.0624    -978658.23145   -667123.59861
  19575804.054   -10193134.825 7  -7881813.46323
  18925676.218   -26145862.817 7 -20034972.23522
 91  5  4  0  4 29.9950000  0  4G 2G12G 6G13
  20483132.398    -1376794.648 7   -978218.92122
  22646179.546    -1039704.828 5   -714692.30621
  19578081.663   -10181154.425 7  -7872478.10323
  18922308.679   -26163562.604 7 -20048764.25222
 91  5  4  0  4 44.9950000  0  4G 2G12G 6G13
  20485243.077    -1365689.533 7   -969565.61022
  22634566.929    -1100736.710 5   -762249.54021
  19580390.398   -10169041.755 7  -7863039.67623
  18918965.718   -26181125.513 7 -20062449.61122
 91  5  4  0  4 59.9950000  0  4G 2G12G 6G13
  20487367.757    -1354532.865 7   -960872.12922
  22622955.2804   -1161754.20845   -809795.57261
  19582718.218   -10156797.427 7  -7853498.66023
  18915649.554   -26198552.266 7 -20076028.87322
 91  5  4  0  5 14.9950000  0  4G 2G12G 6G13
  20489502.9914   -1343320.12547   -952134.95762
  22611349.077    -1222752.465 5   -857326.61521
  19585071.663   -10144416.939 7  -7843851.54623
  18912361.366   -26215838.315 7 -20089498.50122
 91  5  4  0  5 29.9950000  0  4G 2G12G 6G13
  20491642.6794   -1332072.88847   -943370.90562
  22599741.163    -1283752.929 5   -904859.37121
  19587451.101   -10131922.123 7  -7834115.34523
  18909093.562   -26233005.511 7 -20102875.51822
 91  5  4  0  5 44.9950000  0  4G 2G12G 6G13
  20493790.444    -1320778.991 7   -934570.49222
  22588133.9834   -1344743.19445   -952384.18861
  19589854.624   -10119300.757 7  -7824280.54023
  18905852.179   -26250041.868 7 -20116150.57622
 91  5  4  0  5 59.9950000  0  4G 2G12G 6G13
  20495947.2734   -1309438.34647   -925733.65162
  22576529.0544   -1405722.92345   -999900.80761
  19592281.304   -10106552.864 7  -7814347.14023
  18902634.710   -26266947.459 7 -20129323.74322
 91  5  4  0  6 14.9950000  0  4G 2G12G 6G13
  20498116.6484   -1298040.27447   -916852.06562
  22564929.1484   -1466681.18746  -1047400.68361
  19594732.819   -10093667.842 7  -7804306.88523
  18899444.148   -26283711.746 7 -20142386.80322
 91  5  4  0  6 29.9950000  0  4G 2G12G 6G13
  20500297.288    -1286583.209 7   -907924.50922
  22553334.101    -1527616.412 5  -1094882.60021
  19597211.233   -10080644.405 7  -7794158.77222
  18896281.546   -26300333.569 7 -20155338.84722
 91  5  4  0  6 44.9950000  0  4G 2G12G 6G13
  20502487.6164   -1275073.11247   -898955.63262
  22541740.077    -1588534.116 5  -1142350.89721
  19599714.062   -10067488.506 7  -7783907.43823
  18893144.851   -26316818.915 7 -20168184.55122
 91  5  4  0  6 59.9950000  0  4G 2G12G 6G13
  20504689.202    -1263509.686 7   -889945.19222
  22530153.085    -1649433.586 5  -1189804.95621
  19602243.007   -10054199.839 7  -7773552.65423
  18890032.968   -26333167.584 7 -20180923.75122
 91  5  4  0  7 14.9950000  0  4G 2G12G 6G13
  20506897.890    -1251903.803 7   -880901.67322
  22518564.7104   -1710325.73745  -1237253.30761
  19604792.577   -10040789.495 7  -7763103.05723
  18886946.101   -26349390.762 7 -20193565.17022
 91  5  4  0  7 29.9950000  0  4G 2G12G 6G13
  20509119.249    -1240231.539 7   -871806.42422
  22506985.124    -1771186.279 5  -1284677.03821
  19607371.632   -10027233.597 7  -7752540.04223
  18883887.468   -26365464.619 8 -20206090.22722
 91  5  4  0  7 44.9950000  0  4G 2G12G 6G13
  20511348.0074   -1228511.91947   -862674.28062
  22495403.983    -1832033.775 5  -1332090.59021
  19609978.491   -10013551.026 7  -7741878.32023
  18880853.562   -26381407.854 7 -20218513.50622
 91  5  4  0  7 59.9950000  0  4G 2G12G 6G13
  20513589.4444   -1216738.86747   -853500.50262
  22483829.6874   -1892862.16745  -1379489.27061
  19612606.538    -9999736.054 7  -7731113.43123
  18877845.773   -26397214.911 7 -20230830.67222
 91  5  4  0  8 14.9950000  0  4G 2G12G 6G13
  20515840.710    -1204909.336 7   -844282.71022
  22472259.257    -1953668.121 5  -1426870.44721
  19615259.163    -9985785.700 7  -7720243.04623
  18874863.937   -26412883.046 7 -20243039.59122
 91  5  4  0  8 29.9950000  0  4G 2G12G 6G13
  20518100.327    -1193029.111 7   -835025.41522
  22460690.3664   -2014457.26645  -1474238.52961
  19617941.858    -9971705.871 7  -7709271.77323
  18871908.023   -26428418.299 8 -20255144.96222
 91  5  4  0  8 44.9950000  0  4G 2G12G 6G13
  20520372.210    -1181098.796 7   -825729.08922
  22449125.819    -2075229.866 6  -1521593.72721
  19620643.257    -9957497.279 7  -7698200.16523
  18868976.007   -26443821.429 8 -20267147.38122
 91  5  4  0  8 59.9950000  0  4G 2G12G 6G13
  20522650.991    -1169116.182 7   -816392.01322
  22437565.5694   -2135983.46546  -1568934.11161
  19623374.319    -9943157.725 7  -7687026.50923
  18866071.280   -26459090.389 8 -20279045.25222
 91  5  4  0  9 14.9950000  0  4G 2G12G 6G13
  20524942.304    -1157082.982 7   -807015.52322
  22426006.398    -2196719.349 5  -1616260.67421
  19626126.273    -9928688.930 7  -7675752.14723
  18863190.233   -26474226.738 8 -20290839.79222
 91  5  4  0  9 29.9950000  0  4G 2G12G 6G13
  20527242.0384   -1144995.52947   -797596.75962
  22414454.163    -2257433.621 5  -1663570.39321
  19628904.132    -9914087.375 7  -7664374.33523
  18860336.335   -26489227.150 8 -20302528.40622
 91  5  4  0  9 44.9950000  0  4G 2G12G 6G13
  20529550.663    -1132851.514 7   -788133.91822
  22402903.273    -2318123.715 6  -1710861.28121
  19631709.585    -9899350.786 7  -7652891.29923
  18857508.382   -26504089.460 8 -20314109.40522
 91  5  4  0  9 59.9950000  0  4G 2G12G 6G13
  20531872.890    -1120662.278 7   -778635.83122
  22391357.3744   -2378800.88146  -1758142.09061
  19634536.616    -9884490.871 7  -7641312.17123
  18854704.054   -26518825.368 8 -20325591.91222
 91  5  4  0 10 14.9950000  0  4G 2G12G 6G13
  20534202.218    -1108423.688 7   -769099.28722
  22379815.1404   -2439460.76346  -1805409.43361
  19637387.499    -9869503.648 7  -7629633.84023
  18851924.132   -26533431.048 8 -20336972.94322
 91  5  4  0 10 29.9950000  0  4G 2G12G 6G13
  20536543.741    -1096117.210 7   -759509.84322
  22368276.788    -2500084.324 6  -1852648.46021
  19640268.4604   -9854370.27547  -7617841.62863
  18849173.101   -26547887.857 8 -20348237.97022
 91  5  4  0 10 44.9950000  0  4G 2G12G 6G13
  20538894.296    -1083760.224 7   -749881.04222
  22356743.9374   -2560688.64746  -1899872.50361
  19643172.335    -9839108.207 7  -7605949.13123
  18846447.460   -26562213.191 8 -20359400.54822
 91  5  4  0 10 59.9950000  0  4G 2G12G 6G13
  20541255.390    -1071352.263 7   -740212.51822
  22345216.773    -2621273.073 6  -1947081.02821
  19646102.562    -9823717.288 7  -7593956.23323
  18843746.187   -26576406.703 7 -20370460.40822
 91  5  4  0 11 14.9950000  0  4G 2G12G 6G13
  20543625.257    -1058895.967 7   -730506.33722
  22333690.382    -2681840.160 6  -1994276.04321
  19649055.765    -9808200.444 7  -7581865.20823
  18841069.921   -26590471.578 8 -20381420.03022
 91  5  4  0 11 29.9950000  0  4G 2G12G 6G13
  20546007.187    -1046382.246 7   -720755.40422
  22322171.5544   -2742380.50946  -2041450.22761
  19652034.398    -9792548.561 7  -7569668.96022
  18838419.124   -26604398.854 8 -20392272.43522
 91  5  4  0 11 44.9950000  0  4G 2G12G 6G13
  20548399.343    -1033815.363 7   -710963.04622
  22310653.5774   -2802898.06546  -2088606.64461
  19655035.9294   -9776765.87847  -7557370.79163
  18835794.999   -26618193.059 8 -20403021.15022
 91  5  4  0 11 59.9950000  0  4G 2G12G 6G13
  20550800.827    -1021199.791 7   -701132.74922
  22299141.476    -2863396.961 6  -2135748.53421
  19658062.444    -9760857.105 7  -7544974.37323
  18833194.702   -26631858.613 8 -20413669.61222
 91  5  4  0 12 14.9950000  0  4G 2G12G 6G13
  20553210.991    -1008529.043 7   -691259.46222
  22287632.616    -2923870.652 6  -2182870.77821
  19661114.3514   -9744815.81547  -7532474.69163
  18830619.429   -26645389.104 8 -20424212.83222
 91  5  4  0 12 29.9950000  0  4G 2G12G 6G13
  20555631.194     -995809.751 7   -681348.35222
  22276130.5934   -2984325.38346  -2229978.23061
  19664193.913    -9728648.671 7  -7519876.94322
  18828069.015   -26658791.479 8 -20434656.22322
 91  5  4  0 12 44.9950000  0  4G 2G12G 6G13
  20558061.921     -983030.270 7   -671390.33622
  22264630.608    -3044749.166 6  -2277061.59821
  19667296.194    -9712344.096 7  -7507172.10223
  18825545.608   -26672054.328 8 -20444990.89022
 91  5  4  0 12 59.9950000  0  4G 2G12G 6G13
  20560506.093     -970197.480 7   -661390.78122
  22253139.0304   -3105148.70046  -2324126.04761
  19670422.233    -9695909.277 7  -7494365.77122
  18823046.312   -26685184.850 8 -20455222.44722
 91  5  4  0 13 14.9950000  0  4G 2G12G 6G13
  20562955.038     -957317.401 7   -651354.37922
  22241647.468    -3165529.682 6  -2371176.05721
  19673574.5304   -9679350.19647  -7481462.62262
  18820572.265   -26698188.942 8 -20465355.48722
 91  5  4  0 13 29.9950000  0  4G 2G12G 6G13
  20565418.929     -944378.611 7   -641272.22722
  22230163.2884   -3225880.50146  -2418202.55961
  19676750.968    -9662655.695 7  -7468453.94222
  18818123.413   -26711055.423 8 -20475381.29822
 91  5  4  0 13 44.9950000  0  4G 2G12G 6G13
  20567889.1714    -931391.42447   -631152.37062
  22218682.046    -3286211.314 6  -2465213.47621
  19679951.390    -9645836.199 7  -7455347.87022
  18815699.101   -26723795.025 8 -20485308.24522
 91  5  4  0 13 59.9950000  0  4G 2G12G 6G13
  20570371.5854    -918350.12347   -620990.34462
  22207204.812    -3346516.134 6  -2512204.12621
  19683176.601    -9628886.123 7  -7442140.04722
  18813299.952   -26736402.328 8 -20495132.10222
 91  5  4  0 14 14.9950000  0  4G 2G12G 6G13
  20572863.1634    -905253.00447   -610784.82162
  22195735.2104   -3406792.69146  -2559172.76061
  19686429.179    -9611803.881 7  -7428829.23222
  18810925.991   -26748875.582 8 -20504851.50422
 91  5  4  0 14 29.9950000  0  4G 2G12G 6G13
  20575365.546     -892111.601 7   -600544.78922
  22184269.6484   -3467052.37146  -2606128.22961
  19689699.655    -9594601.041 7  -7415424.44722
  18808576.374   -26761226.557 8 -20514475.62622
 91  5  4  0 14 44.9950000  0  4G 2G12G 6G13
  20577873.194     -878925.637 7   -590270.03522
  22172805.7414   -3527294.61346  -2653070.13861
  19692998.843    -9577277.502 7  -7401925.61422
  18806248.976   -26773455.132 8 -20524004.36922
 91  5  4  0 14 59.9950000  0  4G 2G12G 6G13
  20580391.124     -865691.834 7   -579958.00122
  22161344.655    -3587515.824 6  -2699995.65321
  19696319.257    -9559830.032 7  -7388330.20622
  18803946.077   -26785558.168 8 -20533435.28522
 91  5  4  0 15 14.9950000  0  4G 2G12G 6G13
  20582920.538     -852405.289 7   -569604.87622
  22149888.5934   -3647710.92446  -2746900.82561
  19699662.757    -9542253.874 7  -7374634.52422
  18801667.437   -26797531.050 8 -20542764.78722
 91  5  4  0 15 29.9950000  0  4G 2G12G 6G13
  20585458.788     -839067.871 7   -559212.10822
  22138440.905    -3707881.360 6  -2793786.77721
  19703030.929    -9524550.987 7  -7360840.09122
  18799413.437   -26809375.797 8 -20551994.44022
 91  5  4  0 15 44.9950000  0  4G 2G12G 6G13
  20588009.288     -825670.068 7   -548772.28022
  22126997.2264   -3768017.50246  -2840646.01361
  19706425.210    -9506711.986 7  -7346939.59522
  18797185.999   -26821083.105 8 -20561117.00522
 91  5  4  0 15 59.9950000  0  4G 2G12G 6G13
  20590567.007     -812224.948 7   -538295.58622
  22115558.437    -3828132.257 6  -2887488.57821
  19709843.851    -9488750.156 7  -7332943.39322
  18794981.382   -26832666.221 8 -20570142.79222
 91  5  4  0 16 14.9950000  0  4G 2G12G 6G13
  20593135.788     -798727.633 7   -527778.22122
  22104123.6554   -3888220.38046  -2934310.40361
  19713286.124    -9470660.794 7  -7318847.80822
  18792801.546   -26844120.573 8 -20579068.24422
 91  5  4  0 16 29.9950000  0  4G 2G12G 6G13
  20595714.530     -785176.538 7   -517218.95222
  22092693.2334   -3948279.94646  -2981109.96961
  19716752.249    -9452442.439 7  -7304651.71222
  18790646.843   -26855444.716 8 -20587892.23022
 91  5  4  0 16 44.9950000  0  4G 2G12G 6G13
  20598302.538     -771575.166 7   -506620.50422
  22081270.3194   -4008314.13746  -3027889.76761
  19720243.694    -9434098.637 7  -7290357.86322
  18788515.796   -26866642.204 8 -20596617.53422
 91  5  4  0 16 59.9950000  0  4G 2G12G 6G13
  20600900.890     -757925.247 7   -495984.23022
  22069850.9994   -4068324.52946  -3074651.03261
  19723757.257    -9415631.253 7  -7275967.72122
  18786409.312   -26877715.282 8 -20605245.89022
 91  5  4  0 17 14.9950000  0  4G 2G12G 6G13
  20603505.983     -744224.806 7   -485308.58422
  22058435.960    -4128308.931 6  -3121392.02521
  19727297.077    -9397038.508 7  -7261479.89622
  18784326.132   -26888662.192 8 -20613775.93222
 91  5  4  0 17 29.9950000  0  4G 2G12G 6G13
  20606121.749     -730474.057 7   -474593.73322
  22047026.3904   -4188267.20146  -3168112.67261
  19730859.2334   -9378320.72247  -7246894.63462
  18782266.773   -26899483.161 8 -20622207.84822
 91  5  4  0 17 44.9950000  0  4G 2G12G 6G13
  20608753.476     -716655.933 7   -463826.38922
  22035624.3124   -4248181.92646  -3214799.39961
  19734448.233    -9359461.026 7  -7232198.79622
  18780234.437   -26910161.524 8 -20630528.63222
 91  5  4  0 17 59.9950000  0  4G 2G12G 6G13
  20611390.233     -702799.847 7   -453029.46322
  22024226.546    -4308082.222 6  -3261474.87021
  19738056.5624   -9340488.81747  -7217415.28962
  18778224.648   -26920726.538 8 -20638761.10122
 91  5  4  0 18 14.9950000  0  4G 2G12G 6G13
  20614035.3514    -688887.60147   -442188.77862
  22012832.515    -4367949.805 6  -3308124.84921
  19741694.0694   -9321386.29047  -7202530.23262
  18776238.601   -26931160.427 8 -20646891.38522
 91  5  4  0 18 29.9950000  0  4G 2G12G 6G13
  20616695.132     -674926.499 7   -431310.02222
  22001444.0694   -4427791.45646  -3354754.64461
  19745350.6324   -9302160.54047  -7187549.15962
  18774277.062   -26941470.500 8 -20654925.19222
 91  5  4  0 18 44.9950000  0  4G 2G12G 6G13
  20619361.187     -660902.762 7   -420382.45722
  21990065.093    -4487593.260 6  -3401353.36421
  19749035.9214   -9282798.14747  -7172461.61362
  18772340.733   -26951643.400 8 -20662852.11422
 91  5  4  0 18 59.9950000  0  4G 2G12G 6G13
  20622040.343     -646835.518 7   -409420.98722
  21978690.1794   -4547374.01246  -3447935.70761
  19752741.4684   -9263318.36747  -7157282.59862
  18770427.616   -26961698.520 8 -20670687.25722
 91  5  4  0 19 14.9950000  0  4G 2G12G 6G13
  20624725.312     -632715.347 7   -398418.28322
  21967318.460    -4607123.979 6  -3494494.05321
  19756475.3984   -9243711.90347  -7142004.87562
  18768537.710   -26971626.694 8 -20678423.48322
 91  5  4  0 19 29.9950000  0  4G 2G12G 6G13
  20627424.179     -618539.424 7   -387372.13022
  21955954.5624   -4666840.06746  -3541026.00061
  19760228.2964   -9223976.01847  -7126626.29562
  18766672.968   -26981425.122 8 -20686058.60722
 91  5  4  0 19 44.9950000  0  4G 2G12G 6G13
  20630129.648     -604314.028 7   -376287.42622
  21944597.4054   -4726528.14546  -3587536.11661
  19764008.9374   -9204117.18447  -7111151.91962
  18764833.015   -26991100.280 8 -20693597.67422
 91  5  4  0 19 59.9950000  0  4G 2G12G 6G13
  20632848.421     -590028.541 7   -365155.90222
  21933245.1164   -4786177.51246  -3634016.07661
  19767813.2334   -9184124.94647  -7095573.58662
  18763016.624   -27000641.844 8 -20701032.64922
 91  5  4  0 20 14.9950000  0  4G 2G12G 6G13
  20635580.163     -575682.302 7   -353977.03522
  21921903.0074   -4845787.16046  -3680465.09261
  19771642.0774   -9163998.74547  -7079890.86762
  18761226.827   -27010049.431 8 -20708363.22222
 91  5  4  0 20 29.9950000  0  4G 2G12G 6G13
  20638317.999     -561296.340 7   -342767.21222
  21910566.0074   -4905377.77246  -3726899.27261
  19775493.0304   -9143760.00247  -7064120.45462
  18759457.382   -27019344.219 8 -20715605.89922
 91  5  4  0 20 44.9950000  0  4G 2G12G 6G13
  20641063.0774    -546866.62247   -331523.30562
  21899228.0154   -4964945.14946  -3773315.33861
  19779367.3984   -9123404.60247  -7048259.13762
  18757710.819   -27028522.576 8 -20722757.85022
 91  5  4  0 20 59.9950000  0  4G 2G12G 6G13
  20643818.054     -532386.463 7   -320240.08722
  21887896.3744   -5024482.37846  -3819707.92761
  19783265.4764   -9102926.06247  -7032301.86962
  18755988.0934  -27037578.14848 -20729814.12962
 91  5  4  0 21 14.9950000  0  4G 2G12G 6G13
  20646580.343     -517865.987 7   -308925.45622
  21876572.6484   -5083999.16246  -3866084.58461
  19787183.7574   -9082334.55947  -7016256.58662
  18754286.155   -27046520.747 8 -20736782.37222
 91  5  4  0 21 29.9950000  0  4G 2G12G 6G13
  20649353.304     -503296.300 7   -297572.47622
  21865253.0154   -5143486.38046  -3912438.19961
  19791124.8434   -9061621.58147  -7000116.63362
  18752608.046   -27055341.720 8 -20743655.84022
 91  5  4  0 21 44.9950000  0  4G 2G12G 6G13
  20652136.515     -488669.227 7   -286174.78422
  21853938.835    -5202935.598 6  -3958762.20821
  19795090.9054   -9040778.93947  -6983875.65362
  18750953.585   -27064033.571 8 -20750428.70122
 91  5  4  0 21 59.9950000  0  4G 2G12G 6G13
  20654929.054     -473998.175 7   -274742.81722
  21842631.679    -5262360.028 6  -4005066.89221
  19799079.0934   -9019820.26047  -6967544.25462
  18749321.233   -27072609.929 8 -20757111.56322
 91  5  4  0 22 14.9950000  0  4G 2G12G 6G13
  20657731.0854    -459279.43447   -263273.69562
  21831329.4764   -5321755.53446  -4051349.05561
  19803090.0624   -8998742.06847  -6951119.72462
  18747711.648   -27081067.096 8 -20763701.55122
 91  5  4  0 22 29.9950000  0  4G 2G12G 6G13
  20660542.405     -444504.942 7   -251761.12822
  21820032.983    -5381113.627 6  -4097602.05421
  19807125.4914   -8977536.25847  -6934595.75062
  18746126.601   -27089397.119 8 -20770192.46722
 91  5  4  0 22 44.9950000  0  4G 2G12G 6G13
  20663360.2494    -429688.54147   -240215.90962
  21808742.632    -5440447.819 6  -4143836.43321
  19811182.0234   -8956216.84247  -6917983.25462
  18744563.5774  -27097614.12248 -20776595.31662
 91  5  4  0 22 59.9950000  0  4G 2G12G 6G13
  20666193.374     -414802.355 7   -228616.31222
  21797462.444    -5499729.946 6  -4190030.24021
  19815267.2334   -8934756.16147  -6901260.67962
  18743025.9764  -27105690.36248 -20782888.47962
 91  5  4  0 23 14.9950000  0  4G 2G12G 6G13
  20669037.694     -399859.718 7   -216972.72722
  21786188.1554   -5558973.21546  -4236193.76561
  19819374.5464   -8913167.85347  -6884438.65862
  18741513.9604  -27113639.73348 -20789082.78462
 91  5  4  0 23 29.9950000  0  4G 2G12G 6G13
  20671888.765     -384871.250 7   -205293.42822
  21774918.694    -5618187.837 6  -4282334.97021
  19823505.2264   -8891462.55447  -6867525.47662
  18740023.4054  -27121472.79448 -20795186.46262
 91  5  4  0 23 44.9950000  0  4G 2G12G 6G13
  20674752.7334    -369827.81647   -193571.30462
  21763658.5774   -5677364.54346  -4328446.62661
  19827660.6084   -8869631.35547  -6850514.18962
  18738556.0304  -27129180.86248 -20801192.73762
 91  5  4  0 23 59.9950000  0  4G 2G12G 6G13
  20677628.6244    -354717.35647   -181796.95362
  21752407.1324   -5736490.92046  -4374519.05561
  19831839.288    -8847662.291 7  -6833395.48222
  18737115.3274  -27136751.90648 -20807092.24262
 91  5  4  0 24 14.9950000  0  4G 2G12G 6G13
  20680513.1554    -339550.07347   -169978.32262
  21741163.8664   -5795576.85146  -4420559.98061
  19836045.3514   -8825565.87347  -6816177.53262
  18735699.2654  -27144196.46748 -20812893.18862
 91  5  4  0 24 29.9950000  0  4G 2G12G 6G13
  20683411.9994    -324321.41647   -158111.86462
  21729929.366    -5854617.702 6  -4466565.76821
  19840274.3434   -8803337.94547  -6798857.11162
  18734307.4604  -27151510.41648 -20818592.36462
 91  5  4  0 24 44.9950000  0  4G 2G12G 6G13
  20686321.0544    -309037.40447   -146202.27762
  21718701.1244   -5913618.91646  -4512540.68061
  19844528.4684   -8780984.19347  -6781438.64062
  18732939.2334  -27158699.73748 -20824194.42162
 91  5  4  0 24 59.9950000  0  4G 2G12G 6G13
  20689234.8354    -293714.64846   -134262.49762
  21707475.929    -5972596.775 6  -4558497.38321
  19848803.452    -8758521.415 7  -6763935.22022
  18731591.5774  -27165781.25348 -20829712.48262
 91  5  4  0 25 14.9950000  0  4G 2G12G 6G13
  20692162.491     -278341.190 6   -122283.20622
  21696261.4834   -6031539.23646  -4604426.49661
  19853099.8584   -8735938.25047  -6746337.99062
  18730266.5234  -27172743.43848 -20835137.55362
 91  5  4  0 25 29.9950000  0  4G 2G12G 6G13
  20695095.9054    -262921.63346   -110268.00162
  21685051.3664   -6090450.49146  -4650331.29961
  19857419.3584   -8713239.18146  -6728650.44262
  18728964.1714  -27179591.17848 -20840473.44662
 91  5  4  0 25 44.9950000  0  4G 2G12G 6G13
  20698041.1164    -247446.25446    -98209.29562
  21673847.358    -6149320.589 6  -4696204.03321
  19861763.999    -8690414.815 6  -6710865.26022
  18727684.8744  -27186315.12448 -20845712.87862
 91  5  4  0 25 59.9950000  0  4G 2G12G 6G13
  20700994.3904    -231922.79846    -86113.11862
  21662651.562    -6208156.780 6  -4742050.33921
  19866129.476    -8667472.893 6  -6692988.47922
  18726426.4054  -27192922.70748 -20850861.63962
 91  5  4  0 26 14.9950000  0  4G 2G12G 6G13
  20703957.6794    -216351.88446    -73979.97361
  21651461.171    -6266959.593 6  -4787870.63621
  19870517.1084   -8644414.42947  -6675020.88662
  18725190.9444  -27199415.17348 -20855920.69462
 91  5  4  0 26 29.9950000  0  4G 2G12G 6G13
  20706933.3434    -200722.83746    -61801.52961
  21640280.148    -6325717.898 6  -4833656.24821
  19874928.9444   -8621228.63447  -6656954.07062
  18723980.1714  -27205781.84248 -20860881.73362
 91  5  4  0 26 44.9950000  0  4G 2G12G 6G13
  20709918.5464    -185035.77846    -49577.87462
  21629107.1244   -6384431.59746  -4879407.11161
  19879364.7964   -8597915.99447  -6638788.41562
  18722791.3904  -27212023.17348 -20865745.09862
 91  5  4  0 26 59.9950000  0  4G 2G12G 6G13
  20712912.5234    -169296.80646    -37313.77761
  21617940.991    -6443106.477 6  -4925127.71921
  19883823.6874   -8574482.60947  -6620528.67062
  18721626.8984  -27218145.33348 -20870515.60762
 91  5  4  0 27 14.9950000  0  4G 2G12G 6G13
  20715917.0304    -153507.84446    -25010.72161
  21606784.640    -6501744.298 6  -4970819.43721
  19888306.1634   -8550930.83447  -6602176.67362
  18720484.5074  -27224150.78748 -20875195.17462
 91  5  4  0 27 29.9950000  0  4G 2G12G 6G13
  20718931.2414    -137663.42546    -12664.46162
  21595632.616    -6560339.003 6  -5016477.57421
  19892811.2654   -8527255.22547  -6583728.18062
  18719364.4764  -27230034.11148 -20879779.57662
 91  5  4  0 27 44.9950000  0  4G 2G12G 6G13
  20721959.9684    -121751.92746      -265.92562
  21584492.069    -6618878.783 6  -5062092.90821
  19897343.4914   -8503444.45547  -6565174.36862
  18718270.5694  -27235784.05648 -20884260.04962
 91  5  4  0 27 59.9950000  0  4G 2G12G 6G13
  20724995.6014    -105792.50647     12169.95462
  21573361.101    -6677382.517 6  -5107680.16121
  19901895.7884   -8479517.76546  -6546530.23162
  18717198.491   -27241419.752 8 -20888651.49422
 91  5  4  0 28 14.9950000  0  4G 2G12G 6G13
  20728044.4214     -89773.70547     24652.09962
  21562236.499    -6735838.454 6  -5153230.16321
  19906473.4214   -8455463.89246  -6527786.98662
  18716149.1634  -27246930.33548 -20892945.44862
 91  5  4  0 28 29.9950000  0  4G 2G12G 6G13
  20731101.2104     -73712.75847     37167.08562
  21551118.210    -6794263.445 6  -5198756.05921
  19911070.9834   -8431300.13546  -6508958.12062
  18715121.8274  -27252333.06048 -20897155.36062
 91  5  4  0 28 44.9950000  0  4G 2G12G 6G13
  20734165.6944     -57604.16647     49719.19862
  21540008.3194   -6852651.63146  -5244253.27361
  19915691.9834   -8407021.23346  -6490039.53262
  18714115.2964  -27257622.64048 -20901277.10762
 91  5  4  0 28 59.9950000  0  4G 2G12G 6G13
  20737245.4524     -41428.63347     62323.47561
  21528907.663    -6910983.532 6  -5289706.63021
  19920337.2494   -8382608.20246  -6471016.42962
  18713133.1244  -27262780.10948 -20905295.91162
 91  5  4  0 29 14.9950000  0  4G 2G12G 6G13
  20740331.9684     -25212.96547     74959.02762
  21517812.890    -6969285.509 6  -5335136.66221
  19925002.3044   -8358087.93646  -6451909.76662
  18712172.3664  -27267832.51848 -20909232.85162
 91  5  4  0 29 29.9950000  0  4G 2G12G 6G13
  20743427.1714      -8937.41147     87641.24162
  21506729.4054   -7027537.81646  -5380528.00161
  19929694.5624   -8333441.21746  -6432704.56462
  18711233.8124  -27272760.41248 -20913072.76662
 91  5  4  0 29 44.9940000  0  4G 2G12G 6G13
  20746534.4794       7387.49747    100361.91462
  21495652.7134   -7085745.55946  -5425884.61161
  19934406.2294   -8308679.12746  -6413409.47062
  18710318.7604  -27277573.20248 -20916822.99262
 91  5  4  0 29 59.9940000  0  4G 2G12G 6G13
  20749652.4794      23768.82747    113126.54961
  21484582.580    -7143911.327 6  -5471208.51421
  19939142.1904   -8283793.57846  -6394018.17462
  18709425.6434  -27282267.04148 -20920480.53062
 91  5  4  0 30 14.9940000  0  4G 2G12G 6G13
  20752783.7604      40223.43647    125948.29562
  21473526.1114   -7202012.86746  -5516482.36261
  19943903.4554   -8258768.48746  -6374518.14562
  18708557.4944  -27286823.67548 -20924031.15462
 91  5  4  0 30 29.9940000  0  4G 2G12G 6G13
  20755924.4714      56730.04147    138810.54662
  21462477.580    -7260071.150 6  -5561722.51321
  19948688.6194   -8233625.40246  -6354926.16962
  18707713.3614  -27291264.53648 -20927491.56562
 91  5  4  0 30 44.9940000  0  4G 2G12G 6G13
  20759074.2604      73284.68947    151710.23262
  21451438.1434   -7318089.76746  -5606931.74861
  19953493.619    -8208368.460 6  -6335245.47522
  18706889.5494  -27295593.92748 -20930865.11462
 91  5  4  0 30 59.9940000  0  4G 2G12G 6G13
  20762233.5964      89884.51846    164645.12562
  21440403.0414   -7376071.22346  -5652112.03661
  19958321.7604   -8183000.58546  -6315478.33962
  18706085.6974  -27299815.16148 -20934154.38962
 91  5  4  0 31 14.9940000  0  4G 2G12G 6G13
  20765401.3544     106527.59846    177613.72262
  21429377.5964   -7434017.21046  -5697264.68861
  19963170.0724   -8157523.71346  -6295626.26762
  18705302.2684  -27303930.18848 -20937360.90762
 91  5  4  0 31 29.9940000  0  4G 2G12G 6G13
  20768578.2834     123231.39646    190629.63862
  21418359.5024   -7491910.12346  -5742375.97861
  19968042.1664   -8131920.93646  -6275676.09762
  18704543.1824  -27307921.90448 -20940471.33162
 91  5  4  0 31 44.9940000  0  4G 2G12G 6G13
  20771769.7364     139992.74546    203690.39162
  21407352.533    -7549752.793 6  -5787448.11621
  19972936.940    -8106195.565 6  -6255630.39422
  18703806.1354  -27311793.68548 -20943488.30662
 91  5  4  0 31 59.9940000  0  4G 2G12G 6G13
  20774970.0574     156809.67946    216794.45961
  21396356.0494   -7607546.89846  -5832482.42261
  19977855.0964   -8080349.84446  -6235490.91662
  18703091.6274  -27315547.89448 -20946413.66162
 91  5  4  0 32 14.9940000  0  4G 2G12G 6G13
  20778180.260      173687.504 6    229945.97122
  21385368.119    -7665286.843 6  -5877474.51621
  19982797.7364   -8054378.73446  -6215253.72562
  18702400.7364  -27319179.48248 -20949243.47262
 91  5  4  0 32 29.9940000  0  4G 2G12G 6G13
  20781402.5254     190616.83446    243137.61461
  21374389.7294   -7722981.35246  -5922431.21461
  19987762.299    -8028291.486 7  -6194926.04322
  18701731.0104  -27322697.87048 -20951985.07762
 91  5  4  0 32 44.9940000  0  4G 2G12G 6G13
  20784636.1274     207606.90246    256376.58862
  21363419.5024   -7780620.87846  -5967345.06461
  19992750.510    -8002079.194 6  -6174500.92422
  18701084.0254  -27326094.01748 -20954631.42362
 91  5  4  0 32 59.9940000  0  4G 2G12G 6G13
  20787878.8774     224648.49146    269655.70961
  21352460.4714   -7838214.45046  -6012223.10861
  19997758.963    -7975751.213 6  -6153985.66622
  18700460.9474  -27329377.37248 -20957189.88562
 91  5  4  0 33 14.9940000  0  4G 2G12G 6G13
  20791132.6354     241750.30246    282981.75661
  21341511.8694   -7895753.02446  -6057058.29761
  20002794.104    -7949299.127 6  -6133373.69822
  18699858.4244  -27332539.75548 -20959654.08062
 91  5  4  0 33 29.9940000  0  4G 2G12G 6G13
  20794397.3154     258909.86346    296352.80061
  21330572.5724   -7953238.94446  -6101852.45261
  20007851.018    -7922725.800 6  -6112667.25522
  18699279.1664  -27335583.74848 -20962026.01962
 91  5  4  0 33 44.9940000  0  4G 2G12G 6G13
  20797671.8224     276117.97246    309761.68061
  21319641.5574   -8010680.97146  -6146612.41661
  20012928.744    -7896040.279 6  -6091873.39422
  18698720.9794  -27338518.77048 -20964313.05262
 91  5  4  0 33 59.9940000  0  4G 2G12G 6G13
  20800957.791      293383.123 6    323215.00621
  21308721.1274   -8068070.27746  -6191331.29261
  20018029.760    -7869234.562 6  -6070985.87122
  18698184.8934  -27341336.65248 -20966508.80462
 91  5  4  0 34 14.9940000  0  4G 2G12G 6G13
  20804252.033      310695.808 6    336705.37121
  21297808.2364   -8125416.09746  -6236016.28761
  20023151.869    -7842318.308 6  -6050012.21822
  18697668.4324  -27344047.16248 -20968620.89162
 91  5  4  0 34 29.9940000  0  4G 2G12G 6G13
  20807556.3694     328059.60746    350235.55961
  21286904.9084   -8182714.40946  -6280664.25961
  20028295.338    -7815287.887 6  -6028949.59722
  18697174.3224  -27346646.87748 -20970646.64262
 91  5  4  0 34 44.9940000  0  4G 2G12G 6G13
  20810870.9864     345482.29346    363811.63661
  21276010.658    -8239957.282 6  -6325269.03121
  20033463.033    -7788135.983 6  -6007792.31922
  18696702.4004  -27349128.35748 -20972580.26462
 91  5  4  0 34 59.9940000  0  4G 2G12G 6G13
  20814199.033      362966.487 6    377435.64521
  21265129.6114   -8297141.56746  -6369828.16261
  20038652.791    -7760860.056 6  -5986538.39722
  18696253.5334  -27351489.36748 -20974420.01062
 91  5  4  0 35 14.9940000  0  4G 2G12G 6G13
  20817537.432      380506.093 6    391102.82521
  21254258.2604   -8354273.05846  -6414346.14561
  20043865.424    -7733466.611 6  -5965192.90722
  18695825.4554  -27353736.13548 -20976170.73662
 91  5  4  0 35 29.9940000  0  4G 2G12G 6G13
  20820885.1114     398099.63446    404812.03761
  21243396.3694   -8411353.15146  -6458824.08561
  20049101.291    -7705957.390 6  -5943757.20022
  18695419.0334  -27355870.47248 -20977833.85062
 91  5  4  0 35 44.9940000  0  4G 2G12G 6G13
  20824245.635      415755.482 6    418569.79821
  21232544.3074   -8468373.00246  -6503255.07661
  20054358.791    -7678323.962 6  -5922224.71222
  18695035.7684  -27357884.10048 -20979402.90962
 91  5  4  0 35 59.9940000  0  4G 2G12G 6G13
  20827614.244      433466.867 6    432370.83621
  21221704.6274   -8525339.19446  -6547644.25961
  20059639.916    -7650573.568 6  -5900601.08122
  18694674.6434  -27359784.36848 -20980883.63662
 91  5  4  0 36 14.9940000  0  4G 2G12G 6G13
  20830995.5574     451232.65746    446214.27361
  21210874.3694   -8582252.43446  -6591992.18261
  20064943.150    -7622707.429 6  -5878887.26622
  18694333.2754  -27361572.40248 -20982276.90462
 91  5  4  0 36 29.9940000  0  4G 2G12G 6G13
  20834389.494      469060.273 6    460105.88121
  21200055.0024   -8639104.92846  -6636292.77361
  20070269.4324   -7594718.15646  -5857077.49962
  18694015.7134  -27363241.05248 -20983577.14662
 91  5  4  0 36 44.9940000  0  4G 2G12G 6G13
  20837790.768      486938.318 6    474036.78021
  21189245.8074   -8695907.60046  -6680554.54161
  20075617.408    -7566617.491 6  -5835180.92922
  18693719.7754  -27364801.83548 -20984793.33662
 91  5  4  0 36 59.9940000  0  4G 2G12G 6G13
  20841202.674      504862.905 6    488003.94421
  21178444.041    -8752664.272 6  -6724780.46121
  20080984.244    -7538409.776 6  -5813200.94522
  18693442.0024  -27366259.22148 -20985928.95762
 91  5  4  0 37 14.9940000  0  4G 2G12G 6G13
  20844624.471      522848.034 6    502018.28121
  21167655.9864   -8809360.48446  -6768959.27261
  20086375.588    -7510081.012 6  -5791126.63622
  18693187.0254  -27367599.44648 -20986973.28662
 91  5  4  0 37 29.9940000  0  4G 2G12G 6G13
  20848056.869      540885.549 6    516073.44621
  21156876.7214   -8866004.21046  -6813097.17661
  20091787.643    -7481639.685 6  -5768964.62022
  18692952.4714  -27368831.04248 -20987932.96562
 91  5  4  0 37 44.9940000  0  4G 2G12G 6G13
  20851499.1434     558981.72746    530174.32561
  21146109.7834   -8922588.89346  -6857189.08361
  20097222.690    -7453079.758 6  -5746710.18822
  18692739.5104  -27369947.78148 -20988803.14762
 91  5  4  0 37 59.9940000  0  4G 2G12G 6G13
  20854955.1504     577136.02946    544320.49661
  21135354.3544   -8979114.53346  -6901234.97361
  20102678.650    -7424401.869 6  -5724363.83522
  18692549.4714  -27370950.32748 -20989584.34762
 91  5  4  0 38 14.9940000  0  4G 2G12G 6G13
  20858421.338      595349.158 6    558512.50221
  21124607.4714   -9035580.08046  -6945234.03861
  20108159.916    -7395605.634 6  -5701925.26322
  18692379.7524  -27371838.35648 -20990276.31462
 91  5  4  0 38 29.9940000  0  4G 2G12G 6G13
  20861899.447      613619.688 6    572749.23221
  21113874.7604   -9091986.81846  -6989187.28661
  20113661.268    -7366692.576 6  -5679395.65922
  18692231.7294  -27372613.69648 -20990880.47362
 91  5  4  0 38 44.9940000  0  4G 2G12G 6G13
  20865386.924      631943.810 6    587027.72121
  21103151.0494   -9148338.13746  -7033097.34561
  20119183.729    -7337666.873 6  -5656778.28322
  18692107.0494  -27373280.57748 -20991400.11962
 91  5  4  0 38 59.9940000  0  4G 2G12G 6G13
  20868881.338      650321.338 6    601347.82821
  21092438.885    -9204633.879 6  -7076964.10321
  20124729.369    -7308528.892 6  -5634073.41322
  18691999.5494  -27373839.24448 -20991835.43862
 91  5  4  0 39 14.9940000  0  4G 2G12G 6G13
  20872389.565      668750.479 6    615708.15721
  21081735.7054   -9260875.40946  -7120788.61161
  20130295.502    -7279280.585 6  -5611282.57722
  18691914.5414  -27374291.68548 -20992187.99162
 91  5  4  0 39 29.9940000  0  4G 2G12G 6G13
  20875905.760      687224.424 6    630103.39021
  21071041.846    -9317069.238 6  -7164575.96021
  20135880.736    -7249928.857 6  -5588411.15322
  18691847.7524  -27374645.03748 -20992463.32762
 91  5  4  0 39 44.9940000  0  4G 2G12G 6G13
  20879431.971      705763.406 6    644549.29921
  21060363.010    -9373194.940 6  -7208310.22221
  20141490.033    -7220454.054 6  -5565443.82722
  18691801.4864  -27374879.60048 -20992646.10462
 91  5  4  0 39 59.9940000  0  4G 2G12G 6G13
  20882970.502      724359.573 6    659039.77121
  21049692.119    -9429259.955 6  -7251997.18921
  20147120.979    -7190863.967 6  -5542386.66222
  18691778.4004  -27375003.03048
 91  5  4  0 40 14.9940000  0  4G 2G12G 6G13
  20886521.111      743017.948 6    673578.71921
  21039037.010    -9485258.850 6  -7295632.63721
  20152773.783    -7161153.784 6  -5519235.92522
  18691777.0334  -27375010.63148
 91  5  4  0 40 29.9940000  0  4G 2G12G 6G13
  20890084.252      761743.842 6    688170.27721
  21028394.0334   -9541186.01946  -7339212.18761
  20158452.291    -7131318.553 6  -5495987.74622
  18691798.4794  -27374897.33248
 91  5  4  0 40 44.9940000  0  4G 2G12G 6G13
  20893659.190      780525.312 6    702805.13921
  21017762.9084   -9597053.15046  -7382744.96361
  20164150.533    -7101370.472 6  -5472651.62422
  18691842.6824  -27374675.51748
 91  5  4  0 40 59.9940000  0  4G 2G12G 6G13
  20897244.705      799369.791 6    717489.10021
  21007145.6664   -9652852.38746  -7426224.82261
  20169872.307    -7071302.342 6  -5449221.97722
  18691903.9004  -27374338.11548
 91  5  4  0 41 14.9940000  0  4G 2G12G 6G13
  20900842.354      818273.857 6    732219.49621
  20996539.1114   -9708586.88046  -7469654.23561
  20175616.2444   -7041117.93846  -5425701.71662
  18691991.9714  -27373888.68148 -20991873.94762
 91  5  4  0 41 29.9940000  0  4G 2G12G 6G13
  20904450.158      837228.864 6    746989.57721
  20985942.8544   -9764264.79046  -7513039.56361
  20181380.408    -7010825.846 6  -5402097.54722
  18692096.8694  -27373336.09348 -20991443.35662
 91  5  4  0 41 44.9940000  0  4G 2G12G 6G13
  20908065.682      856238.259 6    761802.03921
  20975359.9794   -9819882.42146  -7556377.91361
  20187166.5254   -6980422.96846  -5378407.05162
  18692220.4864  -27372677.17248 -20990929.90862
 91  5  4  0 41 59.9940000  0  4G 2G12G 6G13
  20911695.080      875305.757 6    776659.77921
  20964789.5494   -9875435.72246  -7599666.13361
  20192973.221    -6949905.808 6  -5354627.50322
  18692366.3774  -27371908.68748 -20990331.08562
 91  5  4  0 42 14.9940000  0  4G 2G12G 6G13
  20915335.783      894435.092 6    791565.69621
  20954229.0964   -9930920.70746  -7642901.12361
  20198802.940    -6919270.955 6  -5330756.24322
  18692535.8464  -27371026.90848 -20989643.98462
 91  5  4  0 42 29.9940000  0  4G 2G12G 6G13
  20918984.666      913612.780 6    806509.30521
  20943681.463    -9986350.476 6  -7686093.09421
  20204652.5414   -6888532.03746  -5306803.90062
  18692721.8304  -27370045.67748 -20988879.38462
 91  5  4  0 42 44.9940000  0  4G 2G12G 6G13
  20922643.6274     932837.11746    821489.25061
  20933145.0024  -10041726.40546  -7729243.10261
  20210521.9164   -6857691.07346  -5282772.04162
  18692925.9794  -27368967.02148 -20988038.87262
 91  5  4  0 42 59.9940000  0  4G 2G12G 6G13
  20926312.994      952124.211 6    836518.10121
  20922620.6584  -10097031.94547  -7772338.26261
  20216412.8154   -6826732.17946  -5258648.28961
  18693153.3614  -27367774.96648 -20987109.99562
 91  5  4  0 43 14.9940000  0  4G 2G12G 6G13
  20929994.963      971467.707 6    851590.90421
  20912108.8384  -10152273.19347  -7815383.32561
  20222325.4324   -6795661.97846  -5234437.80362
  18693400.0574  -27366476.24948 -20986098.00562
 91  5  4  0 43 29.9940000  0  4G 2G12G 6G13
  20933687.807      990875.046 6    866713.45321
  20901609.1824  -10207442.28647  -7858372.16761
  20228261.0574   -6764473.15046  -5210134.88561
  18693668.4634  -27365063.58348 -20984997.22462
 91  5  4  0 43 44.9940000  0  4G 2G12G 6G13
  20937389.611     1010329.745 6    881872.90421
  20891122.1974  -10262555.39747  -7901317.38561
  20234214.3544   -6733182.47746  -5185752.59861
  18693956.8694  -27363554.00048 -20983820.92562
 91  5  4  0 43 59.9940000  0  4G 2G12G 6G13
  20941103.744     1029846.829 6    897080.97021
  20880647.5964  -10317597.18047  -7944207.01861
  20240192.1434   -6701775.18946  -5161279.44861
  18694265.4794  -27361932.68148 -20982557.56062
 91  5  4  0 44 14.9940000  0  4G 2G12G 6G13
  20944829.697     1049424.903 6    912336.56521
  20870187.6744  -10372568.67647  -7987041.88461
  20246190.1504   -6670253.00946  -5136716.76861
  18694594.7294  -27360201.14348 -20981208.30662
 91  5  4  0 44 29.9940000  0  4G 2G12G 6G13
  20948565.900     1069057.383 6    927634.55121
  20859738.4244  -10427476.11947  -8029826.84261
  20252209.1744   -6638622.67646  -5112069.81961
  18694943.9474  -27358366.35548 -20979778.60362
 91  5  4  0 44 44.9940000  0  4G 2G12G 6G13
  20952312.268     1088741.411 6    942972.70721
  20849301.3614  -10482322.01447  -8072563.83261
  20258248.5494   -6606887.24546  -5087340.97261
  18695311.8224  -27356431.38448 -20978270.82962
 91  5  4  0 44 59.9940000  0  4G 2G12G 6G13
  20956067.104     1108474.994 6    958349.47821
  20838877.0884  -10537107.90947  -8115254.08061
  20264307.5804   -6575048.96846  -5062531.99261
  18695698.8224  -27354398.38548 -20976686.67962
 91  5  4  0 45 14.9940000  0  4G 2G12G 6G13
  20959831.650     1128259.912 6    973766.24921
  20828463.0184  -10591831.69047  -8157895.92361
  20270384.9944   -6543106.09846  -5037641.50461
  18696105.1904  -27352265.96148 -20975025.05162
 91  5  4  0 45 29.9940000  0  4G 2G12G 6G13
  20963606.643     1148100.546 6    989226.43221
  20818061.9714  -10646488.69747  -8200485.73461
  20276484.4634   -6511054.74246  -5012666.48761
  18696530.2134  -27350029.92048 -20973282.68162
 91  5  4  0 45 44.9940000  0  4G 2G12G 6G13
  20967393.143     1167994.075 6   1004727.83521
  20807673.1044  -10701081.58847  -8243025.58461
  20282604.635    -6478898.039 6  -4987609.37021
  18696974.4004  -27347693.51748 -20971462.10962
 91  5  4  0 45 59.9940000  0  4G 2G12G 6G13
  20971191.369     1187950.618 6   1020278.33921
  20797297.8934  -10755599.81447  -8285507.26561
  20288746.5724   -6446626.07946  -4962462.45462
  18697440.7444  -27345246.91648 -20969555.67362
 91  5  4  0 46 14.9940000  0  4G 2G12G 6G13
  20974999.143     1207970.128 6   1035877.90321
  20786938.4554  -10810043.09747  -8327930.52861
  20294908.6194   -6414239.10446  -4937225.91761
  18697926.7754  -27342690.29848 -20967563.50662
 91  5  4  0 46 29.9940000  0  4G 2G12G 6G13
  20978821.572     1228049.259 6   1051523.93421
  20776591.1194  -10864414.59247  -8370297.87161
  20301092.8614   -6381740.91046  -4911902.71461
  18698433.5254  -27340027.51148 -20965488.61462
 91  5  4  0 46 44.9940000  0  4G 2G12G 6G13
  20982649.932     1248165.889 6   1067199.18321
  20766255.0884  -10918735.83447  -8412626.05061
  20307294.0964   -6349153.59046  -4886510.06661
  18698956.5494  -27337280.80748 -20963348.32562
 91  5  4  0 46 59.9940000  0  4G 2G12G 6G13
  20986491.346     1268353.466 6   1082929.71421
  20755933.8464  -10972972.99047  -8454888.71061
  20313518.3464   -6316443.98946  -4861022.13061
  18699501.4084  -27334417.01948 -20961116.80862
 91  5  4  0 47 14.9940000  0  4G 2G12G 6G13
  20990343.541     1288602.514 6   1098708.14521
  20745626.502   -11027135.322 7  -8497093.06721
  20319763.8614   -6283621.84246  -4835446.49761
  18700066.7684  -27331446.00748 -20958801.73862
 91  5  4  0 47 29.9940000  0  4G 2G12G 6G13
  20994208.549     1308913.587 6   1114534.90321
  20735332.315   -11081221.982 7  -8539238.46121
  20326031.9084   -6250686.97346  -4809783.02761
  18700653.1584  -27328367.46448 -20956402.87962
 91  5  4  0 47 44.9940000  0  4G 2G12G 6G13
  20998085.565     1329278.633 6   1130403.71721
  20725054.8384  -11135240.33547  -8581330.63161
  20332317.4244   -6217647.43546  -4784038.00061
  18701257.1504  -27325189.51148 -20953926.55462
 91  5  4  0 47 59.9940000  0  4G 2G12G 6G13
  21001971.3774    1349698.20046   1146315.01461
  20714787.6584  -11189189.60047  -8623368.96061
  20338625.6354   -6184503.06846  -4758211.29161
  18701880.9634  -27321911.93548 -20951372.60662
 91  5  4  0 48 14.9940000  0  4G 2G12G 6G13
  21005863.408     1370153.814 6   1162254.40721
  20704531.721   -11243087.988 7  -8665367.65021
  20344950.705    -6151272.568 6  -4732317.46921
  18702520.2054  -27318553.43148 -20948755.59762
 91  5  4  0 48 29.9940000  0  4G 2G12G 6G13
  21009770.5334    1390680.41846   1178249.10561
  20694291.932   -11296900.274 7  -8707299.25121
  20351295.0964   -6117921.32546  -4706329.55861
  18703180.8934  -27315079.35848 -20946048.53262
 91  5  4  0 48 44.9940000  0  4G 2G12G 6G13
  21013684.510     1411257.259 6   1194282.95221
  20684063.705   -11350646.982 7  -8749179.74721
  20357661.6744   -6084470.55746  -4680264.09561
  18703860.1504  -27311511.05748 -20943268.04362
 91  5  4  0 48 59.9940000  0  4G 2G12G 6G13
  21017610.479     1431887.552 6   1210358.46021
  20673849.9324  -11404324.39147  -8791006.24761
  20364046.4084   -6050916.88246  -4654118.44661
  18704558.4634  -27307845.24648 -20940411.57262
 91  5  4  0 49 14.9940000  0  4G 2G12G 6G13
  21021547.6974    1452575.43746   1226478.82861
  20663648.986   -11457927.929 7  -8832775.18321
  20370451.213    -6017256.586 6  -4627889.72121
  18705274.3544  -27304078.08348 -20937476.12262
 91  5  4  0 49 29.9940000  0  4G 2G12G 6G13
  21025495.643     1473318.866 6   1242642.48621
  20653461.924   -11511459.211 7  -8874487.82221
  20376876.924    -5983491.889 6  -4601579.63821
  18706010.8544  -27300211.81048 -20934463.44762
 91  5  4  0 49 44.9940000  0  4G 2G12G 6G13
  21029451.463     1494114.319 6   1258846.68321
  20643290.018   -11564921.469 7  -8916146.67621
  20383320.7994   -5949626.60746  -4575191.17961
  18706764.0414  -27296250.31148 -20931376.56962
 91  5  4  0 49 59.9940000  0  4G 2G12G 6G13
  21033419.268     1514961.329 6   1275091.05321
  20633127.994   -11618314.647 7  -8957751.70021
  20389785.088    -5915661.410 6  -4548724.87021
  18707536.1664  -27292194.26648 -20928216.02062
 91  5  4  0 50 14.9940000  0  4G 2G12G 6G13
  21037397.1194    1535861.98046   1291377.21761
  20622981.104   -11671636.471 7  -8999301.12421
  20396269.346    -5881594.513 6  -4522179.31221
  18708326.5414  -27288042.05748 -20924980.54062
 91  5  4  0 50 29.9940000  0  4G 2G12G 6G13
  21041383.2994    1556813.15246   1307702.75061
  20612848.463   -11724889.885 7  -9040797.24021
  20402770.947    -5847429.425 6  -4495557.23921
  18709133.9474  -27283797.15848 -20921672.82862
 91  5  4  0 50 44.9940000  0  4G 2G12G 6G13
  21045379.447     1577816.938 6   1324069.28021
  20602727.408   -11778072.229 7  -9082237.97621
  20409290.275    -5813164.248 6  -4468857.17921
  18709960.1974  -27279457.53748 -20918291.31162
 91  5  4  0 50 59.9940000  0  4G 2G12G 6G13
  21049386.5024    1598869.36946   1340473.70861
  20592619.690   -11831187.223 7  -9123626.23722
  20415828.697    -5778803.181 6  -4442082.40021
  18710802.6974  -27275027.48448 -20914839.32762
 91  5  4  0 51 14.9940000  0  4G 2G12G 6G13
  21053402.033     1619967.756 6   1356913.96321
  20582525.572   -11884237.381 7  -9164963.96621
  20422385.088    -5744349.277 6  -4415235.27621
  18711663.2364  -27270510.07848 -20911319.27762
 91  5  4  0 51 29.9940000  0  4G 2G12G 6G13
  21057430.5334    1641134.37146   1373407.37361
  20572446.291   -11937199.855 7  -9206233.37921
  20428964.174    -5709780.309 6  -4388298.49821
  18712543.0024  -27265883.26648 -20907713.97162
 91  5  4  0 51 44.9940000  0  4G 2G12G 6G13
  21061467.1744    1662355.75346   1389943.45261
  20562383.143   -11990087.949 7  -9247444.83721
  20435561.502    -5675110.178 6  -4361282.88821
  18713441.9554  -27261160.82648 -20904034.14762
 91  5  4  0 51 59.9940000  0  4G 2G12G 6G13
  21065516.940     1683634.883 6   1406524.54221
  20552332.697   -12042898.155 7  -9288595.59821
  20442179.088    -5640336.169 6  -4334186.33321
  18714359.3384  -27256339.93348 -20900277.61362
 91  5  4  0 52 14.9940000  0  4G 2G12G 6G13
  21069575.9554    1704962.85746   1423143.67761
  20542296.393   -12095638.940 7  -9329692.26621
  20448814.221    -5605467.376 6  -4307015.92721
  18715292.8074  -27251429.82048 -20896451.54762
 91  5  4  0 52 29.9940000  0  4G 2G12G 6G13
  21073645.2444    1726347.19346   1439806.73561
  20532275.588   -12148302.598 7  -9370728.83421
  20455468.565    -5570496.550 6  -4279766.01221
  18716246.3074  -27246423.36348 -20892550.41162
 91  5  4  0 52 44.9940000  0  4G 2G12G 6G13
  21077726.3614    1747791.93546   1456516.86261
  20522269.572   -12200884.734 7  -9411701.88121
  20462143.525    -5535420.032 6  -4252433.73621
  18717217.6434  -27241316.60348 -20888571.11562
 91  5  4  0 52 59.9940000  0  4G 2G12G 6G13
  21081814.7444    1769281.18946   1473261.67261
  20512275.205   -12253400.878 7  -9452623.50121
  20468834.283    -5500253.807 6  -4225031.56321
  18718206.0724  -27236125.70448 -20884526.26062
 91  5  4  0 53 14.9940000  0  4G 2G12G 6G13
  21085916.596     1790832.225 6   1490054.63021
  20502297.338   -12305833.253 7  -9493479.85222
  20475548.572    -5464980.923 6  -4197546.27821
  18719212.7524  -27230833.56848 -20880402.52362
 91  5  4  0 53 29.9940000  0  4G 2G12G 6G13
  21090028.3154    1812443.14646   1506894.25161
  20492335.768   -12358183.330 7  -9534272.06822
  20482280.588    -5429603.398 6  -4169979.45321
  18720237.5254  -27225442.39748 -20876201.61162
 91  5  4  0 53 44.9940000  0  4G 2G12G 6G13
  21094151.971     1834112.440 6   1523779.34521
  20482388.932   -12410452.249 7  -9575001.04922
  20489033.291    -5394123.012 6  -4142332.47321
  18721283.0104  -27219954.13448 -20871925.04462
 91  5  4  0 53 59.9940000  0  4G 2G12G 6G13
  21098290.955     1855856.037 6   1540722.34821
  20472461.768   -12462623.754 7  -9615654.12122
  20495809.213    -5358524.124 6  -4114593.16221
  18722348.0724  -27214353.28448 -20867560.74662
 91  5  4  0 54 14.9940000  0  4G 2G12G 6G13
  21102437.6354    1877657.16046   1557710.17261
  20462549.416   -12514714.475 7  -9656244.24422
  20502598.971    -5322824.037 6  -4086774.98721
  18723432.7134  -27208656.88048 -20863121.99662
 91  5  4  0 54 29.9940000  0  4G 2G12G 6G13
  21106596.8074    1899504.39346   1574733.92161
  20452649.604   -12566735.313 7  -9696779.91522
  20509411.354    -5287034.140 6  -4058886.83321
  18724532.6044  -27202876.45648 -20858617.77162
 91  5  4  0 54 44.9940000  0  4G 2G12G 6G13
  21110764.5024    1921412.18446   1591804.85561
  20442767.447   -12618671.417 7  -9737249.55822
  20516239.721    -5251140.419 6  -4030917.77621
  18725651.0104  -27196997.70648 -20854036.93162
 91  5  4  0 54 59.9940000  0  4G 2G12G 6G13
  21114943.182     1943370.877 6   1608915.45121
  20432897.354   -12670532.156 7  -9777660.47122
  20523087.611    -5215152.781 6  -4002875.53821
  18726787.5414  -27191030.78848 -20849387.38862
 91  5  4  0 55 14.9940000  0  4G 2G12G 6G13
  21119133.4474    1965388.22446   1626071.75361
  20423045.252   -12722309.477 7  -9818006.39022
  20529953.385    -5179063.789 6  -3974754.32121
  18727942.0964  -27184968.17448 -20844663.27962
 91  5  4  0 55 29.9940000  0  4G 2G12G 6G13
  21123333.7684    1987463.75946   1643273.40261
  20413207.283   -12774003.673 7  -9858287.53622
  20536842.369    -5142874.182 6  -3946554.70421
  18729112.6434  -27178810.59848 -20839865.17262
 91  5  4  0 55 44.9940000  0  4G 2G12G 6G13
  21127545.7914    2009599.18146   1660521.71661
  20403387.744   -12825612.582 7  -9898502.22422
  20543748.666    -5106582.500 6  -3918275.55621
  18730302.1824  -27172556.79948 -20834992.08662
 91  5  4  0 55 59.9940000  0  4G 2G12G 6G13
  21131769.4164    2031790.58446   1677813.65661
  20393581.080   -12877139.574 7  -9938653.07922
  20550673.033    -5070192.819 6  -3889920.03321
  18731511.0884  -27166210.81248 -20830047.16862
 91  5  4  0 56 14.9940000  0  4G 2G12G 6G13
  21136004.510     2054039.418 6   1695150.34221
  20383791.041   -12928582.926 7  -9978738.75722
  20557618.721    -5033704.071 6  -3861487.32421
  18732735.9004  -27159771.61448 -20825029.61962
 91  5  4  0 56 29.9940000  0  4G 2G12G 6G13
  21140246.432     2076332.913 6   1712521.82221
  20374016.072   -12979954.953 7 -10018768.85622
  20564577.1044   -4997129.35546  -3832987.63061
  18733975.9164  -27153252.06048 -20819949.45362
 91  5  4  0 56 44.9940000  0  4G 2G12G 6G13
  21144499.752     2098682.872 6   1729937.31221
  20364256.025   -13031243.568 7 -10058733.96122
  20571555.572    -4960456.957 6  -3804411.81921
  18735234.7604  -27146640.58748 -20814797.66162
 91  5  4  0 56 59.9940000  0  4G 2G12G 6G13
  21148761.385     2121083.098 6   1747391.95921
  20354510.361   -13082454.593 7 -10098638.61322
  20578551.236    -4923693.419 6  -3775764.99121
  18736508.9864  -27139943.66148 -20809579.28362
 91  5  4  0 57 14.9940000  0  4G 2G12G 6G13
  21153034.229     2143532.561 6   1764884.96821
  20344779.799   -13133588.777 7 -10138483.38122
  20585563.9404   -4886840.07346  -3747048.18361
  18737798.5414  -27133162.59548 -20804295.34362
 91  5  4  0 57 29.9940000  0  4G 2G12G 6G13
  21157317.4944    2166038.52146   1782422.01961
  20335066.010   -13184638.457 7 -10178262.30522
  20592595.002    -4849889.896 6  -3718255.91821
  18739106.6904  -27126290.56948 -20798940.52462
 91  5  4  0 57 44.9940000  0  4G 2G12G 6G13
  21161609.596     2188596.103 6   1799999.28121
  20325366.994   -13235608.081 7 -10217978.84322
  20599646.3074   -4812848.05146  -3689392.23961
  18740430.1044  -27119332.70348 -20793518.81462
 91  5  4  0 57 59.9940000  0  4G 2G12G 6G13
  21165912.190     2211210.166 6   1817620.55321
  20315682.815   -13286492.239 7 -10257628.78622
  20606712.533    -4775709.905 6  -3660453.50321
  18741772.4004  -27112284.26248 -20788026.53062
 91  5  4  0 58 14.9940000  0  4G 2G12G 6G13
  21170227.275     2233881.139 6   1835286.16821
  20306018.010   -13337290.151 7 -10297211.52422
  20613798.861    -4738475.090 6  -3631439.44521
  18743130.2834  -27105144.86048 -20782463.36662
 91  5  4  0 58 29.9940000  0  4G 2G12G 6G13
  21174552.6664    2256613.69346   1852999.79161
  20296366.986   -13387996.893 7 -10336723.22622
  20620902.549    -4701139.492 6  -3602346.85221
  18744506.8074  -27097910.21348 -20776825.98762
 91  5  4  0 58 44.9940000  0  4G 2G12G 6G13
  21178889.3934    2279401.86146   1870756.73361
  20286735.377   -13438618.199 7 -10376168.35322
  20628026.783    -4663709.382 6  -3573180.61821
  18745900.7214  -27090586.73648 -20771119.38562
 91  5  4  0 58 59.9940000  0  4G 2G12G 6G13
  21183234.861     2302240.171 6   1888552.74621
  20277116.994   -13489158.989 7 -10415550.73722
  20635165.0104   -4626190.40446  -3543945.13361
  18747310.8154  -27083180.10948 -20765347.99662
 91  5  4  0 59 14.9940000  0  4G 2G12G 6G13
  21187590.0724    2325133.03946   1906391.26761
  20267516.393   -13539614.466 7 -10454866.64922
  20642322.963    -4588578.409 6  -3514637.17021
  18748736.2994  -27075686.27748 -20759508.65362
 91  5  4  0 59 29.9940000  0  4G 2G12G 6G13
  21191958.5494    2348081.50246   1924273.11061
  20257930.268   -13589983.318 7 -10494115.05722
  20649498.7994   -4550872.57046  -3485256.08361
  18750179.6504  -27068104.38148 -20753600.68662
 91  5  4  0 59 44.9940000  0  4G 2G12G 6G13
  21196337.580     2371095.280 6   1942205.84921
  20248363.744   -13640255.554 7 -10533288.18122
  20656693.1664   -4513063.65746  -3455794.68061
  18751640.6114  -27060425.11648 -20747616.85062
 91  5  4  0 59 59.9940000  0  4G 2G12G 6G13
  21200729.635     2394171.509 6   1960187.25921
  20238815.729   -13690433.623 7 -10572387.92822
  20663907.611    -4475154.772 6  -3426255.37721
  18753120.3854  -27052651.64648 -20741559.60462
 91  5  4  1  0 14.9940000  0  4G 2G12G 6G13
  21205130.8544    2417302.51646   1978211.35061
  20229284.049   -13740524.852 7 -10611420.00922
  20671137.6824   -4437153.76746  -3396644.29161
  18754615.3304  -27044791.82048 -20735435.07362
 91  5  4  1  0 29.9940000  0  4G 2G12G 6G13
  21209542.0414    2440476.67046   1996269.07061
  20219765.830   -13790540.397 7 -10650393.11722
  20678385.346    -4399072.476 6  -3366970.64521
  18756124.9944  -27036857.25248 -20729252.30062
 91  5  4  1  0 44.9940000  0  4G 2G12G 6G13
  21213962.8154    2463709.22246   2014372.28861
  20210265.643   -13840464.859 7 -10689295.25322
  20685648.6664   -4360896.11346  -3337222.92061
  18757652.3934  -27028833.30848 -20722999.88162
 91  5  4  1  0 59.9940000  0  4G 2G12G 6G13
  21218391.8614    2486983.56646   2032508.07161
  20200780.236   -13890314.451 7 -10728139.04422
  20692930.6274   -4322641.53346  -3307414.24361
  18759192.8934  -27020737.07448 -20716691.13462
 91  5  4  1  1 14.9940000  0  4G 2G12G 6G13
  21222832.002     2510320.380 6   2050692.51721
  20191312.760   -13940067.937 7 -10766907.95122
  20700228.4164   -4284288.20746  -3277528.63161
  18760751.4634  -27012547.81348 -20710309.90062
 91  5  4  1  1 29.9940000  0  4G 2G12G 6G13
  21227284.150     2533725.891 6   2068930.50521
  20181864.1274  -13989718.75347 -10805596.85762
  20707546.158    -4245830.124 6  -3247561.37621
  18762328.9794  -27004259.67048 -20703851.60762
 91  5  4  1  1 44.9930000  0  4G 2G12G 6G13
  21231748.216     2557177.391 6   2087204.32421
  20172432.107   -14039284.543 7 -10844219.50622
  20714879.2634   -4207291.48846  -3217531.35861
  18763920.2554  -26995894.86348 -20697333.57862
 91  5  4  1  1 59.9930000  0  4G 2G12G 6G13
  21236224.083     2580688.301 6   2105524.43121
  20163015.599   -14088760.913 7 -10882772.47622
  20722231.0994   -4168656.83746  -3187426.52261
  18765529.3724  -26987441.75348 -20690746.74662
 91  5  4  1  2 14.9930000  0  4G 2G12G 6G13
  21240710.341     2604265.249 6   2123896.00121
  20153621.614   -14138136.268 7 -10921246.73622
  20729603.4194   -4129921.10546  -3157242.92461
  18767155.4274  -26978893.14848 -20684085.50062
 91  5  4  1  2 29.9930000  0  4G 2G12G 6G13
  21245207.630     2627894.294 6   2142308.16121
  20144240.700   -14187424.170 7 -10959652.85022
  20736992.0364   -4091098.47846  -3126991.61861
  18768797.5284  -26970263.25148 -20677360.90862
 91  5  4  1  2 44.9930000  0  4G 2G12G 6G13
  21249709.732     2651572.445 6   2160758.58821
  20134878.536   -14236627.197 7 -10997992.82422
  20744393.3884   -4052192.28246  -3096675.19061
  18770455.3644  -26961555.47648 -20670575.62962
 91  5  4  1  2 59.9930000  0  4G 2G12G 6G13
  21254228.5524    2675311.11846   2179256.19961
  20125533.911   -14285733.301 7 -11036257.27522
  20751816.4584   -4013191.09046  -3066284.74461
  18772128.8804  -26952758.49948 -20663720.84762
 91  5  4  1  3 14.9930000  0  4G 2G12G 6G13
  21258755.646     2699102.452 6   2197794.81921
  20116205.200   -14334750.144 7 -11074452.17622
  20759255.8644   -3974103.15046  -3035826.69761
  18773819.5444  -26943880.33048 -20656802.80262
 91  5  4  1  3 29.9930000  0  4G 2G12G 6G13
  21263292.8414    2722944.00046   2216372.58161
  20106894.521   -14383679.979 7 -11112579.27822
  20766709.8334   -3934931.35046  -3005303.31461
  18775523.0834  -26934923.79448 -20649823.68862
 91  5  4  1  3 44.9930000  0  4G 2G12G 6G13
  21267839.521     2746829.220 6   2234984.36521
  20097598.489   -14432528.940 7 -11150643.35922
  20774178.1694   -3895682.43746  -2974719.83661
  18777240.3494  -26925895.71148 -20642788.81762
 91  5  4  1  3 59.9930000  0  4G 2G12G 6G13
  21272393.9424    2770761.83746   2253633.08761
  20088319.6924  -14481292.87047 -11188641.18762
  20781661.5054   -3856352.85846  -2944073.50061
  18778973.5604  -26916792.57448 -20635695.46962
 91  5  4  1  4 14.9930000  0  4G 2G12G 6G13
  21276960.9274    2794760.94146   2272333.61861
  20079060.185   -14529952.324 7 -11226557.60322
  20789164.8494   -3816923.98346  -2913349.79361
  18780723.1144  -26907595.54948 -20628528.96162
 91  5  4  1  4 29.9930000  0  4G 2G12G 6G13
  21281537.739     2818813.465 6   2291075.77321
  20069817.560   -14578520.053 7 -11264402.54422
  20796686.3254   -3777409.21446  -2882559.14961
  18782488.7714  -26898318.26548 -20621299.91462
 91  5  4  1  4 44.9930000  0  4G 2G12G 6G13
  21286124.669     2842925.398 6   2309864.21021
  20060593.958   -14626989.635 7 -11302171.00622
  20804220.4584   -3737802.75346  -2851697.06761
  18784270.5994  -26888955.01048 -20614003.87862
 91  5  4  1  4 59.9930000  0  4G 2G12G 6G13
  21290726.0754    2867097.26546   2328699.35961
  20051389.919   -14675360.011 7 -11339862.16522
  20811776.8334   -3698104.15346  -2820763.18161
  18786069.0604  -26879505.21848 -20606640.40962
 91  5  4  1  5 14.9930000  0  4G 2G12G 6G13
  21295337.036     2891334.004 6   2347585.05921
  20042205.810   -14723626.033 7 -11377472.01022
  20819349.489    -3658308.977 6  -2789754.03621
  18787883.5834  -26869964.26548 -20599205.91162
 91  5  4  1  5 29.9930000  0  4G 2G12G 6G13
  21299960.950     2915624.507 6   2366512.64421
  20033038.263   -14771798.345 7 -11415008.83722
  20826938.3494   -3618428.50246  -2758678.43561
  18789715.0444  -26860343.63548 -20591709.32162
 91  5  4  1  5 44.9930000  0  4G 2G12G 6G13
  21304591.028     2939966.761 6   2385480.55321
  20023889.2164  -14819878.66247 -11452473.97662
  20834542.6304   -3578465.14846  -2727538.24561
  18791560.3884  -26850645.64548 -20584152.45262
 91  5  4  1  5 59.9930000  0  4G 2G12G 6G13
  21309235.286     2964365.591 6   2404492.55521
  20014758.450   -14867861.901 7 -11489863.47122
  20842165.466    -3538414.386 6  -2696329.94421
  18793420.9504  -26840865.77948 -20576531.78862
 91  5  4  1  6 14.9930000  0  4G 2G12G 6G13
  21313889.4894    2988824.93446   2423551.70761
  20005645.982   -14915743.826 7 -11527174.02022
  20849802.4664   -3498272.53946  -2665050.67461
  18795298.7164  -26831000.28148 -20568844.39062
 91  5  4  1  6 29.9930000  0  4G 2G12G 6G13
  21318555.294     3013333.302 6   2442649.05821
  19996551.7944  -14963535.33947 -11564414.12262
  20857458.0834   -3458051.24146  -2633709.49561
  18797190.0604  -26821060.77848 -20561099.33262
 91  5  4  1  6 44.9930000  0  4G 2G12G 6G13
  21323226.271     3037885.754 6   2461780.75821
  19987473.4354  -15011241.08947 -11601587.39462
  20865124.9114   -3417755.84746  -2602310.57761
  18799094.9894  -26811052.50748 -20553300.68862
 91  5  4  1  6 59.9930000  0  4G 2G12G 6G13
  21327907.6384    3062489.58046   2480952.50561
  19978412.8884  -15058853.36047 -11638687.82462
  20872809.3254   -3377379.33746  -2570848.45761
  18801013.6144  -26800968.65348 -20545443.14962
 91  5  4  1  7 14.9930000  0  4G 2G12G 6G13
  21332599.489     3087147.130 6   2500166.10021
  19969371.067   -15106369.351 7 -11675713.22922
  20880508.0674   -3336919.51346  -2539321.41361
  18802947.7554  -26790806.76448 -20537524.80262
 91  5  4  1  7 29.9930000  0  4G 2G12G 6G13
  21337301.372     3111854.436 6   2519418.46621
  19960346.6614  -15153792.95247 -11712666.64562
  20888223.2714   -3296380.88046  -2507732.95761
  18804895.3574  -26780571.37748 -20529549.18762
 91  5  4  1  7 44.9930000  0  4G 2G12G 6G13
  21342015.028     3136618.833 6   2538715.32721
  19951342.0134  -15201116.29547 -11749541.94262
  20895953.3334   -3255756.28446  -2476077.52561
  18806858.200   -26770255.349 8 -20521510.73423
 91  5  4  1  7 59.9930000  0  4G 2G12G 6G13
  21346737.5364    3161439.67246   2558056.15261
  19942355.247   -15248339.598 7 -11786339.28322
  20903700.4744   -3215046.58846  -2444355.78061
  18808836.2394  -26759859.64148 -20513410.19462
 91  5  4  1  8 14.9930000  0  4G 2G12G 6G13
  21351470.216     3186309.005 6   2577434.78121
  19933385.849   -15295470.469 7 -11823064.59422
  20911461.1144   -3174260.03546  -2412574.14561
  18810828.5674  -26749392.37448 -20505253.89262
 91  5  4  1  8 29.9930000  0  4G 2G12G 6G13
  21356212.958     3211232.203 6   2596855.37421
  19924436.5284  -15342503.18547 -11859713.42562
  20919239.1854   -3133391.56346  -2380728.68761
  18812834.8414  -26738848.46948 -20497037.87362
 91  5  4  1  8 44.9930000  0  4G 2G12G 6G13
  21360965.333     3236211.001 6   2616319.29721
  19915505.6464  -15389435.64247 -11896284.13862
  20927031.2474   -3092439.75146  -2348818.28161
  18814856.1854  -26728226.43548 -20488760.97062
 91  5  4  1  8 59.9930000  0  4G 2G12G 6G13
  21365730.0054    3261249.34146   2635829.59961
  19906594.1694  -15436263.62947 -11932773.43862
  20934840.388    -3051400.953 6  -2316840.10221
  18816892.2244  -26717522.56448 -20480420.30262
 91  5  4  1  9 14.9930000  0  4G 2G12G 6G13
  21370507.497     3286345.813 6   2655385.21021
  19897702.8334  -15482987.98047 -11969181.98762
  20942666.169    -3010276.814 6  -2284795.41521
  18818945.4664  -26706738.49548 -20472017.13962
 91  5  4  1  9 29.9930000  0  4G 2G12G 6G13
  21375293.3254    3311500.73145   2674986.36361
  19888831.5674  -15529608.14147 -12005509.34862
  20950508.396    -2969067.279 6  -2252684.18621
  18821012.9034  -26695874.39548 -20463551.61662
 91  5  4  1  9 44.9930000  0  4G 2G12G 6G13
  21380092.255     3336720.122 5   2694637.75021
  19879980.8174  -15576117.53747 -12041750.39562
  20958367.4824   -2927766.50746  -2220501.86661
  18823096.2084  -26684924.27648 -20455019.06662
 91  5  4  1  9 59.9930000  0  4G 2G12G 6G13
  21384902.2164    3361991.44145   2714329.58761
  19871149.3804  -15622528.33847 -12077914.62062
  20966241.224    -2886387.461 6  -2188258.56221
  18825193.8574  -26673900.99848 -20446429.50762
